[[{"header":{"parameterUnit":"m.s-1","parameterCategory":1,"la1":30.6,"la2":29.2853,"lo1":-89.7004,"lo2":-87.6739,"dy":0.0162,"dx":0.0183,"nx":112,"ny":82,"refTime":"2024-02-01T06:00:00:Z","depth":0,"parameterNumber":2,"parameterNumberName":"U-component_of_WINDS"},"data":[0.0,0.0,0.0,0.0,0.0,0.0,0.0,0.0,0.0,0.0,0.0,0.0,0.0,0.0,0.0,0.0,0.0,0.0,0.0,0.0,0.0,0.0,0.0,0.0,0.0,0.0,0.0,0.0,0.0,0.0,0.0,0.0,0.0,0.0,0.0,0.0,0.0,0.0,0.0,0.0,0.0,0.0,0.0,0.0,0.0,0.0,0.0,0.0,0.0,0.0,0.0,0.0,0.0,0.0,0.0,0.0,0.0,0.0,0.0,0.0,0.0,0.0,0.0,0.0,0.0,0.0,0.0,0.0,0.0,0.0,0.0,0.0,0.0,0.0,0.0,0.0,0.0,0.0,0.0,0.0,0.0,0.0,0.0,0.0,0.0,0.0,0.0,0.0,0.0,0.0,0.0,5.345,5.3298,5.3188,5.3188,5.3188,5.3188,5.3151,0.0,0.0,0.0,0.0,0.0,0.0,0.0,0.0,0.0,0.0,0.0,0.0,0.0,0.0,0.0,0.0,0.0,0.0,0.0,0.0,0.0,0.0,0.0,0.0,0.0,0.0,0.0,0.0,0.0,0.0,0.0,0.0,0.0,0.0,0.0,0.0,0.0,0.0,0.0,0.0,0.0,0.0,0.0,0.0,0.0,0.0,0.0,0.0,0.0,0.0,0.0,0.0,0.0,0.0,0.0,0.0,0.0,0.0,0.0,0.0,0.0,0.0,0.0,0.0,0.0,0.0,0.0,0.0,0.0,0.0,0.0,0.0,0.0,0.0,0.0,0.0,0.0,0.0,0.0,0.0,0.0,0.0,0.0,0.0,0.0,0.0,0.0,0.0,0.0,0.0,0.0,0.0,0.0,0.0,0.0,0.0,0.0,0.0,0.0,0.0,0.0,0.0,0.0,0.0,5.3492,5.3261,5.3225,5.3151,5.3036,5.3036,5.2962,5.2889,0.0,0.0,0.0,0.0,0.0,0.0,0.0,0.0,0.0,0.0,0.0,0.0,0.0,0.0,0.0,0.0,0.0,0.0,0.0,0.0,0.0,0.0,0.0,0.0,0.0,0.0,0.0,0.0,0.0,0.0,0.0,0.0,0.0,0.0,0.0,0.0,0.0,0.0,0.0,0.0,0.0,0.0,0.0,0.0,0.0,0.0,0.0,0.0,0.0,0.0,0.0,0.0,0.0,0.0,0.0,0.0,0.0,0.0,0.0,0.0,0.0,0.0,0.0,0.0,0.0,0.0,0.0,0.0,0.0,0.0,0.0,0.0,0.0,0.0,0.0,0.0,0.0,0.0,0.0,0.0,0.0,0.0,0.0,0.0,0.0,0.0,0.0,0.0,0.0,0.0,0.0,0.0,0.0,0.0,0.0,0.0,0.0,0.0,0.0,0.0,0.0,0.0,0.0,5.3424,5.3298,5.3225,5.3151,5.3036,5.2889,5.282,5.2761,5.2688,5.287,0.0,0.0,0.0,0.0,0.0,0.0,0.0,0.0,0.0,0.0,0.0,0.0,0.0,0.0,0.0,0.0,0.0,0.0,0.0,0.0,0.0,0.0,0.0,0.0,0.0,0.0,0.0,0.0,0.0,0.0,0.0,0.0,0.0,0.0,0.0,0.0,0.0,0.0,0.0,0.0,0.0,0.0,0.0,0.0,0.0,0.0,0.0,0.0,0.0,0.0,0.0,0.0,0.0,0.0,0.0,0.0,0.0,0.0,0.0,0.0,0.0,0.0,0.0,0.0,0.0,0.0,0.0,0.0,0.0,0.0,0.0,0.0,0.0,0.0,0.0,0.0,0.0,0.0,0.0,0.0,0.0,0.0,0.0,0.0,0.0,0.0,0.0,0.0,0.0,0.0,0.0,0.0,0.0,0.0,0.0,0.0,0.0,0.0,0.0,0.0,0.0,0.0,5.3225,5.3151,5.3151,5.2999,5.2846,5.2645,5.2536,5.2485,5.2448,5.2614,0.0,0.0,0.0,0.0,0.0,0.0,0.0,0.0,0.0,0.0,0.0,0.0,0.0,0.0,0.0,0.0,0.0,0.0,0.0,0.0,0.0,0.0,0.0,0.0,0.0,0.0,0.0,0.0,0.0,0.0,0.0,0.0,0.0,0.0,0.0,0.0,0.0,0.0,0.0,0.0,0.0,0.0,0.0,0.0,0.0,0.0,0.0,0.0,0.0,0.0,0.0,0.0,0.0,0.0,0.0,0.0,0.0,0.0,0.0,0.0,0.0,0.0,0.0,0.0,0.0,0.0,0.0,0.0,0.0,0.0,0.0,0.0,0.0,0.0,0.0,0.0,0.0,0.0,0.0,0.0,0.0,0.0,0.0,0.0,0.0,0.0,0.0,0.0,0.0,0.0,0.0,0.0,0.0,0.0,0.0,0.0,0.0,0.0,0.0,0.0,0.0,0.0,5.3072,5.2999,5.2999,5.2815,5.2492,5.2272,5.2174,5.2058,5.1951,5.2282,0.0,0.0,0.0,0.0,0.0,0.0,0.0,0.0,0.0,0.0,0.0,0.0,0.0,0.0,0.0,0.0,0.0,0.0,0.0,0.0,0.0,0.0,0.0,0.0,0.0,0.0,0.0,0.0,0.0,0.0,0.0,0.0,0.0,0.0,0.0,0.0,0.0,0.0,0.0,0.0,0.0,0.0,0.0,0.0,0.0,0.0,0.0,0.0,0.0,0.0,0.0,0.0,0.0,0.0,0.0,0.0,0.0,0.0,0.0,0.0,0.0,0.0,0.0,0.0,0.0,0.0,0.0,0.0,0.0,0.0,0.0,0.0,0.0,0.0,0.0,0.0,0.0,0.0,0.0,0.0,0.0,0.0,0.0,0.0,0.0,0.0,0.0,0.0,0.0,0.0,0.0,0.0,0.0,0.0,0.0,0.0,0.0,0.0,0.0,0.0,0.0,0.0,5.3036,5.295,0.0,5.249,5.2236,5.1825,5.1734,5.1688,5.1652,0.0,0.0,0.0,0.0,0.0,0.0,0.0,0.0,0.0,0.0,0.0,0.0,0.0,0.0,0.0,0.0,0.0,0.0,0.0,0.0,0.0,0.0,0.0,0.0,0.0,0.0,0.0,0.0,0.0,0.0,0.0,0.0,0.0,0.0,0.0,0.0,0.0,0.0,0.0,0.0,0.0,0.0,0.0,0.0,0.0,0.0,0.0,0.0,0.0,0.0,0.0,0.0,0.0,0.0,0.0,0.0,0.0,0.0,0.0,0.0,0.0,0.0,0.0,0.0,0.0,0.0,0.0,0.0,0.0,0.0,0.0,0.0,0.0,0.0,0.0,0.0,0.0,0.0,0.0,0.0,0.0,0.0,0.0,0.0,0.0,0.0,0.0,0.0,0.0,0.0,0.0,0.0,0.0,0.0,0.0,0.0,0.0,0.0,0.0,0.0,0.0,0.0,5.2999,5.2907,5.2769,0.0,5.2268,5.1861,5.1505,5.1387,5.1345,5.1403,0.0,0.0,0.0,0.0,0.0,0.0,0.0,0.0,0.0,0.0,0.0,0.0,0.0,0.0,0.0,0.0,0.0,0.0,0.0,0.0,0.0,0.0,0.0,0.0,0.0,0.0,0.0,0.0,0.0,0.0,0.0,0.0,0.0,0.0,0.0,0.0,0.0,0.0,0.0,0.0,0.0,0.0,0.0,0.0,0.0,0.0,0.0,0.0,0.0,0.0,0.0,0.0,0.0,0.0,0.0,0.0,0.0,0.0,0.0,0.0,0.0,0.0,0.0,0.0,0.0,0.0,0.0,0.0,0.0,0.0,0.0,0.0,0.0,0.0,0.0,0.0,0.0,0.0,0.0,0.0,0.0,0.0,0.0,0.0,0.0,0.0,0.0,0.0,0.0,0.0,0.0,0.0,0.0,0.0,0.0,0.0,0.0,0.0,0.0,0.0,0.0,0.0,5.2999,5.268,5.2516,5.248,5.2005,5.1541,5.1227,5.092,5.0898,0.0,0.0,0.0,0.0,0.0,0.0,0.0,0.0,0.0,0.0,0.0,0.0,0.0,0.0,0.0,0.0,0.0,0.0,0.0,0.0,0.0,0.0,0.0,0.0,0.0,0.0,0.0,0.0,0.0,0.0,0.0,0.0,0.0,0.0,0.0,0.0,0.0,0.0,0.0,0.0,0.0,0.0,0.0,0.0,0.0,0.0,0.0,0.0,0.0,0.0,0.0,0.0,0.0,0.0,0.0,0.0,0.0,0.0,0.0,0.0,0.0,0.0,0.0,0.0,0.0,0.0,0.0,0.0,0.0,0.0,0.0,0.0,0.0,0.0,0.0,0.0,0.0,0.0,0.0,0.0,0.0,0.0,0.0,0.0,0.0,0.0,0.0,0.0,0.0,0.0,0.0,0.0,0.0,0.0,0.0,0.0,0.0,0.0,0.0,0.0,0.0,0.0,0.0,5.2672,5.2608,5.2412,5.2113,5.1844,5.1505,5.0962,5.078,5.0691,5.0736,0.0,0.0,0.0,0.0,0.0,0.0,0.0,0.0,0.0,0.0,0.0,0.0,0.0,0.0,0.0,0.0,0.0,0.0,0.0,0.0,0.0,0.0,0.0,0.0,0.0,0.0,0.0,0.0,0.0,0.0,0.0,0.0,0.0,0.0,0.0,0.0,0.0,0.0,0.0,0.0,0.0,0.0,0.0,0.0,0.0,0.0,0.0,0.0,0.0,0.0,0.0,0.0,0.0,0.0,0.0,0.0,0.0,0.0,0.0,0.0,0.0,0.0,0.0,0.0,0.0,0.0,0.0,0.0,0.0,0.0,0.0,0.0,0.0,0.0,0.0,0.0,0.0,0.0,0.0,0.0,0.0,0.0,0.0,0.0,0.0,0.0,0.0,0.0,0.0,0.0,0.0,0.0,0.0,0.0,0.0,0.0,0.0,0.0,0.0,0.0,0.0,0.0,5.2526,5.2412,5.2186,5.1861,5.1593,5.1241,5.0697,5.0424,5.0345,5.0472,0.0,0.0,0.0,0.0,0.0,0.0,0.0,0.0,0.0,0.0,0.0,0.0,0.0,0.0,0.0,0.0,0.0,0.0,0.0,0.0,0.0,0.0,0.0,0.0,0.0,0.0,0.0,0.0,0.0,0.0,0.0,0.0,0.0,0.0,0.0,0.0,0.0,0.0,0.0,0.0,0.0,0.0,0.0,0.0,0.0,0.0,0.0,0.0,0.0,0.0,0.0,0.0,0.0,0.0,0.0,0.0,0.0,0.0,0.0,0.0,0.0,0.0,0.0,0.0,0.0,0.0,0.0,0.0,0.0,0.0,0.0,0.0,0.0,0.0,0.0,0.0,0.0,0.0,0.0,0.0,0.0,0.0,0.0,0.0,0.0,0.0,0.0,0.0,0.0,0.0,0.0,0.0,0.0,0.0,0.0,0.0,0.0,0.0,0.0,0.0,0.0,0.0,5.2434,5.2125,5.1835,5.1633,5.1321,5.0925,5.0414,5.0102,4.9987,5.0125,0.0,0.0,0.0,0.0,0.0,0.0,0.0,0.0,0.0,0.0,0.0,0.0,0.0,0.0,0.0,0.0,0.0,0.0,0.0,0.0,0.0,0.0,0.0,0.0,0.0,0.0,0.0,0.0,0.0,0.0,0.0,0.0,0.0,0.0,0.0,0.0,0.0,0.0,0.0,0.0,0.0,0.0,0.0,0.0,0.0,0.0,0.0,0.0,0.0,0.0,0.0,0.0,0.0,0.0,0.0,0.0,0.0,0.0,0.0,0.0,5.3103,0.0,0.0,0.0,0.0,0.0,0.0,0.0,0.0,0.0,0.0,0.0,0.0,0.0,0.0,0.0,0.0,0.0,0.0,0.0,0.0,0.0,0.0,0.0,0.0,0.0,0.0,0.0,0.0,0.0,0.0,0.0,0.0,0.0,0.0,0.0,0.0,0.0,0.0,0.0,0.0,0.0,5.1956,5.1879,5.1722,5.1258,5.1102,5.0819,5.0275,5.0026,4.9862,4.9828,4.9801,0.0,0.0,0.0,0.0,0.0,0.0,0.0,0.0,0.0,0.0,0.0,0.0,0.0,0.0,0.0,0.0,0.0,0.0,0.0,0.0,0.0,0.0,0.0,0.0,0.0,0.0,0.0,0.0,0.0,0.0,0.0,0.0,0.0,0.0,0.0,0.0,0.0,0.0,0.0,0.0,0.0,0.0,0.0,0.0,0.0,0.0,0.0,0.0,0.0,0.0,0.0,0.0,0.0,0.0,0.0,0.0,0.0,0.0,0.0,0.0,5.2893,0.0,0.0,0.0,0.0,0.0,0.0,0.0,0.0,0.0,0.0,0.0,0.0,0.0,0.0,0.0,0.0,0.0,0.0,0.0,0.0,0.0,0.0,0.0,0.0,0.0,0.0,0.0,0.0,0.0,0.0,0.0,0.0,0.0,0.0,0.0,0.0,0.0,0.0,0.0,0.0,5.1687,5.1541,5.135,5.0822,5.0659,5.0389,4.9907,4.9649,4.9514,4.948,4.982,0.0,0.0,0.0,0.0,0.0,0.0,0.0,0.0,0.0,0.0,0.0,0.0,0.0,0.0,0.0,0.0,0.0,0.0,0.0,0.0,0.0,0.0,0.0,0.0,0.0,0.0,0.0,0.0,0.0,0.0,0.0,0.0,0.0,0.0,0.0,0.0,0.0,0.0,0.0,0.0,0.0,0.0,0.0,0.0,0.0,0.0,0.0,0.0,0.0,0.0,0.0,0.0,0.0,5.1052,5.114,5.1398,5.1449,5.1601,5.1848,5.2137,5.2361,5.2499,5.2499,0.0,0.0,0.0,0.0,0.0,0.0,0.0,0.0,0.0,0.0,0.0,0.0,0.0,0.0,0.0,0.0,0.0,0.0,0.0,0.0,0.0,0.0,0.0,0.0,4.9988,5.0272,5.1087,0.0,0.0,0.0,0.0,0.0,0.0,0.0,0.0,0.0,0.0,0.0,5.1414,5.1123,5.0834,5.034,5.0206,4.9997,4.9698,4.9521,4.948,4.9548,5.0209,5.0584,0.0,0.0,0.0,0.0,0.0,0.0,0.0,0.0,0.0,0.0,0.0,0.0,0.0,0.0,0.0,0.0,0.0,0.0,0.0,0.0,0.0,0.0,0.0,0.0,0.0,0.0,0.0,0.0,0.0,0.0,0.0,0.0,5.5996,5.5441,0.0,0.0,0.0,0.0,0.0,0.0,0.0,0.0,0.0,0.0,0.0,0.0,0.0,5.4745,5.3847,5.3032,5.2149,5.1315,5.0619,5.0384,5.0749,5.0857,5.107,5.1331,5.1123,0.0,5.2078,5.2078,0.0,0.0,0.0,0.0,0.0,0.0,0.0,0.0,0.0,0.0,0.0,0.0,0.0,0.0,0.0,0.0,0.0,0.0,0.0,0.0,0.0,0.0,4.9767,4.959,4.9649,4.9825,0.0,5.0307,5.064,5.091,5.1087,0.0,0.0,0.0,0.0,0.0,0.0,0.0,5.0823,5.0593,5.0322,4.9827,4.977,4.9903,5.0237,5.0271,5.0475,5.0878,5.1042,5.1133,5.1095,5.1162,0.0,0.0,0.0,0.0,0.0,0.0,0.0,0.0,0.0,0.0,0.0,0.0,0.0,0.0,0.0,0.0,0.0,0.0,0.0,0.0,0.0,0.0,0.0,0.0,0.0,0.0,0.0,0.0,0.0,5.6701,5.5721,5.5587,5.4498,5.3849,0.0,0.0,0.0,0.0,0.0,0.0,0.0,0.0,0.0,5.4648,5.4648,5.4302,5.3418,5.2597,5.1778,5.0901,5.011,4.9849,5.008,5.0137,5.0307,5.0474,5.0363,5.0739,5.1419,5.1369,5.1347,5.1449,0.0,0.0,0.0,0.0,5.1601,5.1192,5.1087,5.0822,0.0,5.0605,0.0,0.0,0.0,0.0,0.0,0.0,0.0,0.0,0.0,0.0,4.9411,4.9229,4.9229,4.929,4.929,4.9471,4.9767,0.0,5.0495,5.0751,5.1051,0.0,0.0,0.0,0.0,5.0893,5.0432,5.0159,5.0009,5.0078,5.0066,5.0277,5.081,5.0841,5.0986,5.122,5.1589,5.1828,5.1833,5.2236,5.2472,0.0,0.0,0.0,0.0,0.0,0.0,0.0,0.0,0.0,0.0,0.0,0.0,0.0,0.0,0.0,0.0,0.0,0.0,0.0,0.0,0.0,0.0,0.0,0.0,0.0,0.0,0.0,0.0,5.663,5.5716,5.5716,5.4397,5.3551,0.0,0.0,0.0,0.0,0.0,0.0,5.4274,5.4274,5.4274,5.4274,5.4274,5.3901,5.3225,5.2438,5.1623,5.0782,4.9998,4.9718,4.9898,4.9898,5.006,5.0351,5.0317,5.066,5.1107,5.0898,5.1004,5.1234,5.1635,5.1688,5.1581,5.1741,5.1527,5.1088,5.1011,5.0645,5.0241,5.0241,5.0103,5.0022,5.0228,0.0,0.0,0.0,0.0,4.9674,4.9471,4.929,4.9107,4.8984,4.9018,4.9018,4.9018,4.9018,4.9107,0.0,4.9999,5.0194,5.0369,0.0,0.0,0.0,0.0,5.0328,5.0066,4.9922,5.0011,5.0277,5.0493,5.0866,5.1435,5.1461,5.1598,5.1765,5.227,5.264,5.264,5.3213,5.3518,5.3518,0.0,0.0,0.0,0.0,0.0,0.0,0.0,0.0,0.0,0.0,0.0,0.0,0.0,0.0,0.0,0.0,0.0,0.0,0.0,0.0,0.0,0.0,0.0,0.0,0.0,0.0,0.0,0.0,0.0,5.5716,5.4397,0.0,0.0,0.0,0.0,5.3484,5.3551,5.3551,5.3585,5.3551,5.3551,5.3551,5.3551,5.3551,5.3517,5.2704,5.1894,5.115,5.0405,5.0159,5.0317,5.0317,5.0816,5.1589,5.1498,5.1469,5.1435,5.1107,5.1543,5.232,5.232,5.2438,5.2521,5.2379,5.2226,5.2046,5.1898,5.1268,5.0564,5.0564,5.0172,4.9767,4.9884,4.9825,0.0,0.0,4.9471,4.9229,4.9229,4.9107,4.9018,4.9018,4.9018,4.9018,4.9018,4.9018,4.9046,0.0,4.9399,4.9623,4.9918,0.0,5.0161,5.0161,5.0034,4.9835,4.9569,5.0011,5.0277,5.0113,5.0753,5.1464,5.2202,5.2203,5.2539,5.3315,5.345,5.345,5.345,5.3484,5.3518,5.3518,5.3281,0.0,0.0,0.0,0.0,0.0,0.0,0.0,0.0,0.0,0.0,0.0,0.0,0.0,0.0,0.0,0.0,0.0,0.0,0.0,0.0,0.0,0.0,0.0,0.0,0.0,0.0,0.0,0.0,5.5716,5.4397,0.0,5.3518,5.3518,5.3518,5.3518,5.3518,5.3518,5.3518,5.3518,5.3518,5.3518,5.3518,5.3518,5.3518,5.2706,5.2164,5.1894,5.115,5.0811,5.0909,5.0909,5.1108,5.141,5.1346,5.1553,5.2024,5.1881,5.1833,5.185,5.2001,5.2062,5.2001,5.2062,5.1939,5.1691,5.1663,5.1366,5.0973,5.0973,5.0832,5.0589,5.0141,5.0005,4.9841,4.9365,4.9168,4.9046,4.9046,4.908,4.9018,4.9018,4.9018,4.9018,4.9018,4.9018,4.8984,4.9073,4.9182,4.9311,4.9392,4.9615,4.9718,4.9718,4.9521,4.9623,5.0011,5.0175,5.0527,5.1423,5.1765,5.2203,5.3011,5.3045,5.3213,5.3484,5.3518,5.3518,5.3518,5.3518,5.345,5.3281,5.2977,5.2637,0.0,0.0,0.0,0.0,0.0,0.0,0.0,0.0,0.0,0.0,0.0,0.0,0.0,0.0,0.0,0.0,0.0,0.0,0.0,0.0,0.0,0.0,0.0,0.0,0.0,0.0,5.5716,5.5716,5.4397,5.3518,5.3518,5.3518,5.3518,5.3518,5.3518,5.3518,5.3518,5.3518,5.3518,5.3518,5.3518,5.3518,5.3518,5.2976,5.257,5.23,5.1826,5.1589,5.1589,5.1589,5.1725,5.1995,5.1995,5.2266,5.2706,5.2706,5.2501,5.2191,5.235,5.2384,5.232,5.2413,5.232,5.2157,5.1885,5.1654,5.1555,5.1285,5.1217,5.1116,5.0608,5.0473,5.0371,4.9898,4.9763,4.9763,4.9763,4.9763,4.9695,4.9424,4.939,4.926,4.9052,4.9215,4.9351,4.9351,4.9249,4.9086,4.9086,4.9249,4.9447,4.9678,4.9582,4.978,5.0577,5.073,5.1251,5.2202,5.2505,5.2944,5.3484,5.3518,5.3518,5.3518,5.3518,5.3518,5.3518,5.3518,5.345,5.3213,5.2533,5.1933,5.1475,0.0,0.0,0.0,0.0,0.0,0.0,0.0,0.0,0.0,0.0,0.0,0.0,0.0,0.0,0.0,0.0,0.0,0.0,0.0,0.0,0.0,0.0,0.0,5.7881,5.663,5.5716,5.5716,5.4397,5.3518,5.3518,5.3518,5.3518,5.3518,5.3518,5.3518,5.3518,5.3518,5.3518,5.3518,5.3518,5.3518,5.3518,5.3518,5.3112,5.2334,5.2334,5.2334,5.2334,5.2334,5.2773,5.3518,5.3518,5.3518,5.3518,5.3518,5.3518,5.3518,5.3518,5.3518,5.3518,5.3518,5.3518,5.3382,5.2604,5.2334,5.2232,5.1522,5.1285,5.1285,5.1251,5.1251,5.1251,5.1217,5.1217,5.1217,5.1217,5.1217,5.1048,5.0304,5.0105,4.997,4.9221,4.9616,5.0113,5.0147,4.9582,4.9086,4.9052,4.9052,4.9283,5.0011,5.0113,0.0,5.1145,5.1891,5.227,5.2371,5.3011,5.3518,5.3518,5.3518,5.3518,5.3518,5.3518,5.3518,5.3518,5.3484,5.3349,5.3146,5.2013,5.1089,5.047,0.0,0.0,0.0,0.0,0.0,0.0,0.0,0.0,0.0,0.0,0.0,0.0,0.0,0.0,0.0,0.0,0.0,0.0,0.0,0.0,0.0,0.0,5.7881,5.7881,5.663,5.5716,5.5716,5.4397,5.3518,5.3518,5.3518,5.3518,5.3518,5.3518,5.3518,5.3518,5.3518,5.3518,5.3518,5.3518,5.3518,5.3518,5.3518,5.3382,5.3179,5.3179,5.3179,5.3179,5.3179,5.3281,5.3518,5.3518,5.3518,5.3518,5.3518,5.3518,5.3518,5.3518,5.3518,5.3518,5.3518,5.3518,5.3484,5.3247,5.3179,5.3145,5.2942,5.2875,5.2773,5.2164,5.1995,5.1894,5.1315,5.121,5.118,5.1183,5.1217,5.1183,5.0947,5.09,5.085,5.0646,5.0776,5.0924,5.089,5.0725,5.0587,5.0618,5.0577,5.0646,5.0844,5.0913,5.1193,5.193,5.2168,5.2505,5.3079,5.3349,5.3518,5.3518,5.3518,5.3518,5.3518,5.3518,5.3518,5.3518,5.3349,5.2841,5.1951,5.0995,5.0264,0.0,0.0,0.0,0.0,0.0,0.0,0.0,0.0,0.0,0.0,0.0,0.0,0.0,0.0,0.0,0.0,0.0,0.0,0.0,0.0,0.0,0.0,5.7881,5.7881,5.7881,5.69,5.6055,5.575,5.4668,5.3856,5.3551,5.3518,5.3518,5.3518,5.3518,5.3518,5.3518,5.3518,5.3518,5.3518,5.3518,5.3518,5.3518,5.3518,5.3518,5.3518,5.3518,5.3518,5.3518,5.3518,5.3518,5.3518,5.3518,5.3518,5.3518,5.3518,5.3518,0.0,0.0,0.0,0.0,0.0,5.3518,5.3518,5.3518,5.3518,5.3518,5.3518,5.3518,5.3416,5.2942,5.2807,5.2706,5.2264,5.2128,5.2162,5.2164,5.2164,5.2097,5.1729,5.1623,5.1575,5.1281,5.1464,5.1654,5.1631,5.1934,0.0,5.2187,5.1647,5.1346,5.1613,5.1663,5.1934,5.2708,5.2775,5.2977,5.3484,5.3518,5.3518,5.3518,5.3518,0.0,0.0,0.0,5.3484,5.3349,5.3009,0.0,0.0,0.0,4.9646,4.9052,4.8607,0.0,0.0,4.8859,4.8668,0.0,0.0,0.0,0.0,0.0,0.0,0.0,0.0,0.0,0.0,0.0,0.0,0.0,0.0,0.0,0.0,5.7881,5.7881,5.7881,5.734,5.663,5.5818,5.504,5.4296,5.3585,5.3518,5.3518,5.3518,5.3518,5.3518,5.3518,0.0,0.0,0.0,0.0,5.3518,5.3518,5.3518,5.3518,5.3518,5.3518,5.3518,5.3518,5.3518,5.3518,5.3518,5.3518,5.3518,5.3518,5.3518,5.3518,5.3518,5.3518,5.3518,5.3518,5.3518,5.3518,5.3518,5.3518,0.0,0.0,5.3518,5.3518,5.3518,5.3518,5.3518,5.3518,5.3518,5.3518,5.3518,5.3518,5.3518,5.3315,5.264,5.2438,5.2269,5.16,5.1959,5.2438,5.2438,5.3011,5.3518,5.3518,5.2404,5.1665,5.2371,5.2438,5.2708,5.345,5.3518,5.3518,5.3518,5.3518,0.0,5.3518,5.3518,5.3518,5.3518,5.3518,5.3416,5.318,5.2561,5.1842,5.0951,5.0039,4.9166,4.852,4.8136,4.7782,4.7546,4.7989,4.7959,0.0,0.0,0.0,0.0,0.0,0.0,0.0,0.0,0.0,0.0,0.0,0.0,0.0,0.0,0.0,5.7881,5.7881,5.7881,5.7881,5.778,5.7171,5.5886,5.504,5.4296,5.3585,5.3518,5.3518,5.3518,5.3518,5.3518,5.3518,5.3518,5.3518,5.3518,5.3518,5.3518,5.3518,5.3518,5.3518,5.3518,0.0,0.0,5.3518,5.3518,5.3518,5.3518,5.3518,5.3518,5.3518,5.3518,5.3518,5.3518,5.3518,5.3518,5.3518,5.3518,5.3518,5.3518,5.3518,5.3518,5.3518,5.3518,5.3518,5.3518,5.3518,5.3518,0.0,5.3518,5.3518,5.3518,5.3518,5.3518,5.3484,5.3281,5.3281,5.318,5.3077,5.3145,5.3281,5.3281,5.3416,5.3518,5.3518,5.3247,5.3079,5.3247,5.3281,5.3315,5.3484,5.3518,5.3518,5.3518,5.3518,5.3518,5.3518,5.3518,5.3518,5.3518,5.3518,5.3247,5.2741,5.2291,5.1451,5.0136,4.9447,4.8661,4.7752,4.7546,4.7369,4.7339,4.7575,4.7575,0.0,0.0,0.0,0.0,0.0,0.0,0.0,0.0,0.0,0.0,0.0,5.7588,0.0,0.0,5.7735,5.7735,5.7808,5.7881,5.7881,5.7881,5.734,5.5886,5.5378,5.4735,5.3619,5.3518,5.3518,5.3518,5.3518,5.3518,5.3518,5.3518,5.3518,5.3518,5.3518,5.3518,5.3518,5.3518,5.3518,5.3518,5.3518,5.3518,5.3518,5.3518,5.3518,5.3518,5.3518,5.3518,5.3518,5.3518,5.3518,5.3518,5.3518,5.3518,5.3518,5.3518,5.3518,5.3518,5.3518,5.3518,5.3518,5.3518,5.3518,5.3518,5.3518,5.3518,5.3518,5.3518,5.3518,5.3518,5.3518,5.3518,5.3518,5.3518,5.3518,5.3518,5.3518,5.3518,5.3518,5.3518,5.3518,5.3518,5.3518,5.3518,5.3518,5.3518,5.3518,5.3518,5.3518,5.3518,5.3518,5.3518,5.3518,5.3518,5.3518,5.3518,5.3518,5.3518,5.345,5.3146,5.264,5.1938,5.1038,4.9931,4.9047,4.8298,4.7575,4.7369,4.7309,4.7309,4.7369,4.7369,0.0,0.0,0.0,0.0,0.0,0.0,0.0,0.0,5.6911,5.703,5.7139,5.7139,5.7214,5.7364,5.7514,5.7514,5.7662,5.7808,5.7808,5.7808,5.7408,5.6089,5.5818,5.5209,5.3856,5.3585,5.3518,5.3518,5.3518,5.3518,5.3518,5.3518,5.3518,5.3518,5.3518,5.3518,5.3518,5.3518,5.3518,5.3518,5.3518,5.3518,5.3518,5.3518,5.3518,5.3518,5.3518,5.3518,5.3518,5.3518,5.3585,5.3721,5.3721,5.3788,5.389,5.3619,5.3518,5.3518,5.3518,5.3518,5.3518,5.3518,5.3518,5.3518,5.3518,5.3518,5.3518,5.3518,5.3518,5.3518,5.3518,5.3518,5.3518,5.3518,5.3518,5.3518,5.3518,5.3518,5.3518,5.3518,5.3518,5.3518,5.3518,5.3518,5.3518,5.3518,5.3518,5.3518,5.3518,5.3518,5.3518,5.3518,5.3518,5.3518,5.3518,5.3619,5.372,5.3686,5.3585,5.3382,5.2841,5.1908,5.1013,5.0136,4.9197,4.8404,4.7929,4.7752,4.7722,4.7722,4.7722,4.7546,5.7881,5.7588,5.7214,5.6834,5.6569,5.6336,0.0,0.0,5.6179,5.6414,5.6381,5.6569,5.6987,5.7063,5.7139,5.7289,5.7364,5.7439,5.7588,5.7662,5.7358,5.6765,5.6122,5.5378,5.4566,5.389,5.3518,5.3518,5.3518,5.3518,5.3518,5.3518,5.3518,5.3518,5.3518,5.3518,5.3518,5.3518,5.3518,5.3518,5.3518,5.3518,5.3518,5.3518,5.3518,5.3518,5.3518,5.3518,5.3518,5.3518,5.389,5.4465,5.4465,5.4871,5.531,5.3991,5.3518,5.3518,5.3518,5.3518,5.3518,5.3518,5.3518,5.3518,5.3518,5.3518,5.3518,5.3518,5.3518,5.3518,5.3518,5.3518,5.3518,5.3518,5.3518,5.3518,5.3518,5.3518,5.3518,5.3518,5.3518,5.3518,5.3518,5.3518,5.3518,5.3518,5.3518,5.3518,5.3518,5.3518,5.3518,5.3518,5.3518,5.3518,5.3518,5.4093,5.4398,5.4262,5.4635,5.4567,5.377,5.3074,5.2146,5.0881,5.0375,4.9743,4.9088,4.9057,4.9057,4.9057,4.9057,4.8404,5.7439,5.7063,0.0,0.0,5.5458,5.5181,5.5131,5.4934,5.4934,5.5263,5.5507,5.5701,5.6053,5.6257,5.6492,0.0,5.7063,5.7214,5.7588,5.7588,5.756,5.7476,5.6799,5.5886,5.4702,5.3923,5.3518,5.3518,5.3518,5.3518,5.3518,5.3518,5.3518,5.3518,5.3518,5.3518,5.3518,5.3518,5.3518,5.3518,5.3518,5.3518,5.3518,5.3518,5.3518,5.3518,5.3957,5.4126,5.416,5.46,5.4972,5.5243,5.5243,5.5446,5.5649,5.5006,5.4804,5.4771,5.4771,5.4805,5.4805,5.4805,5.4533,5.4127,5.4127,5.3822,5.3518,5.3518,5.3518,5.3518,5.3518,5.3518,5.3518,5.3518,5.3518,5.3518,5.3518,5.3518,5.3518,5.3518,5.3518,5.3518,5.3518,5.3518,5.3518,5.3518,5.3518,5.3518,5.3518,5.3518,5.3686,5.4093,5.4127,5.433,5.4703,5.4941,5.5043,5.4929,5.474,5.4287,5.3693,5.2733,5.1706,5.0764,5.0184,4.9673,4.9343,4.9343,4.9343,4.9343,4.9343,4.8983,5.6911,5.6447,0.0,5.5081,5.4497,5.4125,5.404,5.3836,5.375,5.4264,5.4549,5.4832,5.5246,5.5572,5.5861,5.6369,5.6525,5.6834,5.7214,5.7364,5.7514,5.7808,5.7239,5.6393,5.531,5.4363,5.3721,5.3518,5.3518,5.3518,5.3518,5.3518,5.3518,5.3518,5.3518,5.3518,5.3518,5.3518,5.3518,5.3518,5.3518,5.3518,5.3518,5.3721,5.3923,5.416,5.4668,5.4905,5.4938,5.548,5.5852,5.6021,5.6021,5.6156,5.6325,5.6325,5.6057,5.5688,5.5723,5.5723,5.5689,5.5655,5.5314,5.4872,5.4907,5.4567,5.4093,5.4093,5.4093,5.4093,5.4093,5.3991,5.3788,5.3788,5.3619,5.3518,5.3518,5.3518,5.3518,5.3518,5.3518,5.3518,5.3518,5.3686,5.3788,5.3788,5.3991,5.4025,5.3822,5.3991,5.433,5.4873,5.4873,5.5075,5.562,5.5723,5.5646,5.5595,5.5028,5.4449,5.3981,5.273,5.1744,5.1061,5.0478,5.0075,4.9863,4.9863,4.9863,4.9863,4.9863,4.971,5.6179,5.5701,5.5246,5.4581,5.3899,5.3377,5.3113,5.2935,5.2846,5.3377,5.364,5.3985,5.4948,5.5113,5.5278,5.562,5.5733,5.5894,5.6369,5.6757,5.7139,5.7588,5.7094,5.6799,0.0,5.5412,5.4262,5.3551,5.3518,5.3518,5.3518,5.3518,5.3518,5.3518,5.3518,5.3518,5.3518,5.3518,5.3518,5.3518,5.3518,5.3518,5.3518,5.4228,5.4972,5.5649,5.5683,5.5683,5.5683,5.5716,5.6122,5.6765,5.6765,5.7205,5.7814,5.7814,5.6904,5.5688,5.5723,5.5723,5.569,5.5703,5.5688,5.5698,5.569,5.5689,5.5654,5.5654,5.5654,5.5654,5.5654,5.511,5.4567,5.4567,5.4025,5.3518,5.3518,5.3518,5.3518,5.3518,5.3518,5.3518,5.3518,5.4093,5.4567,5.4567,5.5178,5.5382,5.4635,5.5178,5.5654,5.5689,5.568,5.5688,5.5722,5.6203,5.6385,5.6172,5.6029,5.5698,5.5102,5.3965,5.2978,5.2269,5.1747,5.1443,5.1169,5.1169,5.1169,5.1169,5.1169,5.0803,5.5426,5.4966,5.4412,5.3899,5.3201,5.2667,5.2577,5.2397,5.2337,5.2577,5.3113,5.364,5.3899,5.4327,5.4749,5.4966,5.5295,5.5653,5.602,5.6369,5.6757,5.7139,5.7055,0.0,0.0,0.0,0.0,5.4262,5.3788,5.3518,5.3518,5.3518,5.3518,5.3518,5.3518,5.3518,5.3518,5.3991,5.4228,5.4228,5.4735,5.4972,5.4972,5.5243,5.548,5.575,5.6224,5.6427,5.6461,5.6968,5.7306,5.7509,5.7509,5.7679,5.7881,5.7881,5.7616,5.7141,5.7145,5.7182,5.7145,5.7167,5.6814,5.6443,5.6423,5.6085,5.5744,5.5744,5.5744,5.5744,5.5744,5.5538,5.5339,5.5349,5.5144,5.4941,5.4941,5.4941,5.4941,5.4941,5.4941,5.4941,5.4941,5.5178,5.5315,5.5302,5.5552,5.5621,5.5336,5.5538,5.5879,5.6393,5.6415,5.6645,5.7089,5.7055,5.7036,5.689,5.6195,5.5553,5.5134,5.4028,5.3039,5.2329,5.187,5.1473,5.1229,5.1229,5.1229,5.1229,5.1229,5.1046,5.4517,5.404,5.3465,5.3113,5.2487,5.2033,5.2033,5.1972,5.188,5.2155,5.2757,5.329,5.3377,5.3813,5.4242,5.4295,5.4665,5.5081,5.5377,5.5781,5.6211,5.6569,5.6834,5.6863,0.0,0.0,0.0,5.5006,5.4566,5.4296,5.4296,5.4296,5.4296,5.4296,5.4296,5.4296,5.4296,5.4769,5.5006,5.5006,5.548,5.5852,5.6089,5.6089,5.6258,5.6528,5.7002,5.7171,5.7239,5.7679,5.7881,5.7881,5.7881,5.7881,5.7881,5.7881,5.7881,5.7881,5.7881,5.7881,5.7881,5.7881,5.7572,5.7195,5.7195,5.6886,5.6471,5.6471,5.6471,5.6471,5.6471,5.6337,5.6068,5.6094,5.5892,5.5687,5.5687,5.5687,5.5687,5.5687,5.5687,5.5687,5.5687,5.5926,5.6195,5.6443,5.6498,5.6365,5.6135,5.6337,5.6679,5.7161,5.7195,5.7364,5.7848,5.7606,5.7379,5.731,5.6437,5.5712,5.5101,5.4065,5.3124,5.2305,5.1874,5.1473,5.1229,5.1229,5.1229,5.1229,5.1229,5.1229,5.3465,5.3024,5.2577,5.2306,5.1941,5.1572,5.1572,5.1572,5.1695,5.2002,5.2518,5.3113,0.0,0.0,5.3789,5.364,5.3899,5.4157,5.4327,5.4915,5.5491,0.0,0.0,0.0,0.0,0.0,0.0,5.5886,0.0,5.5716,5.5716,5.5716,5.5716,5.5716,5.5716,5.5716,5.5716,5.575,5.5784,5.5818,5.5818,5.619,5.6867,5.6867,5.7239,5.7881,5.7881,5.7881,5.7881,5.7881,5.7881,5.7881,5.7881,5.7881,5.7881,5.7881,5.7881,5.7881,5.7881,5.7881,5.7881,5.7881,5.7881,5.7881,5.7881,5.7881,5.7881,5.7881,5.7881,5.7881,5.7881,5.7364,5.6886,5.6886,5.6337,5.5822,5.5822,5.5822,5.5822,5.5822,5.5822,5.5822,5.5822,5.6404,5.7055,5.7814,5.7881,5.764,5.6954,5.7504,5.7881,5.7881,5.7881,5.7881,5.7881,5.7746,5.7554,5.7276,5.679,5.5982,5.5183,5.4274,5.3246,5.2303,5.1878,5.1473,5.1229,5.1229,5.1229,5.1229,5.1229,5.1229,5.3001,5.2518,5.2155,5.2063,5.188,5.1572,5.1572,5.1787,5.188,5.2002,5.2518,5.2966,0.0,0.0,0.0,5.3055,5.3377,0.0,5.3899,5.4327,0.0,5.5246,0.0,5.6257,5.6987,5.7122,0.0,0.0,5.6325,5.5716,5.5716,5.5716,5.5716,5.5716,5.5716,5.5716,5.5716,5.6258,5.6799,5.734,5.734,5.7442,5.7611,5.7611,5.7712,5.7881,5.7881,5.7881,5.7881,5.7881,5.7881,5.7881,5.7881,5.7881,5.7881,5.7881,5.7881,5.7881,5.7881,5.7881,5.7881,5.7881,5.7881,5.7881,5.7881,5.7881,5.7881,5.7881,5.7881,5.7881,5.7881,5.778,5.7606,5.7606,5.7504,5.733,5.733,5.733,5.733,5.733,5.733,5.733,5.733,5.7504,5.764,5.7881,5.7881,5.7848,5.7606,5.7814,5.7881,5.7881,5.7881,5.7881,5.7881,5.7746,5.7499,5.7278,5.6854,5.6261,5.5332,5.4608,5.3702,5.2667,5.2122,5.1686,5.1229,5.1229,5.1229,5.1229,5.1229,5.1229,5.252,5.2185,5.2002,5.188,5.1695,5.1572,5.1479,5.1602,5.1787,5.1787,5.2337,5.2698,5.2397,5.2757,0.0,0.0,0.0,0.0,5.3409,5.3726,5.4157,0.0,5.5246,0.0,5.6757,5.7139,5.7439,0.0,5.7137,5.6664,5.6664,5.6664,5.6664,5.6664,5.6664,5.6664,5.6664,5.707,5.7476,5.7881,5.7881,5.7881,5.7881,5.7881,5.7881,5.7881,5.7881,5.7881,5.7881,5.7881,5.7881,5.7881,5.7881,5.7881,5.7881,5.7881,5.7881,5.7881,5.7881,5.7881,5.7881,5.7881,5.7881,5.7881,5.7881,5.7881,5.7881,5.7881,5.7881,5.7881,5.7881,5.7881,5.7881,5.7881,5.7881,5.7881,5.7881,5.7881,5.7881,5.7881,5.7881,5.7881,5.7881,5.7881,5.7881,5.7881,5.7881,5.7881,5.7881,5.7881,5.7881,5.7881,5.7881,5.7881,5.7881,5.7814,5.764,5.7471,5.7139,5.6581,5.5578,5.4902,5.3946,5.2729,5.2275,5.1717,5.1229,5.1229,5.1229,5.1229,5.1229,5.1229,5.2214,5.2002,5.191,5.1695,5.1572,5.1572,5.1323,5.1386,5.1572,5.1572,5.1941,5.2215,5.2215,5.2518,5.2608,5.2608,0.0,5.2698,5.2997,5.3233,5.3552,5.4242,5.4915,5.5653,5.6525,5.6987,5.7364,5.7808,5.7881,5.7881,5.7881,5.7881,5.7881,5.7881,5.7881,5.7881,5.7881,5.7881,5.7881,5.7881,5.7881,5.7881,5.7881,5.7881,5.7881,5.7881,5.7881,5.7881,5.7881,5.7881,5.7881,5.7881,5.7881,5.7881,5.7881,5.7881,5.7881,5.7881,5.7881,5.7881,5.7881,5.7881,5.7881,5.7881,5.7881,5.7881,5.7881,5.7881,5.7881,5.7881,5.7881,5.7881,5.7881,5.7881,5.7881,5.7881,5.7881,5.7881,5.7881,5.7881,5.7881,5.7881,5.7881,5.7881,5.7881,5.7881,5.7881,5.7881,5.7881,5.7881,5.7881,5.7881,5.7881,5.7881,5.7881,5.7881,5.7814,5.7606,5.739,5.6834,5.5754,5.4966,5.3978,5.2729,5.2152,5.1686,5.1229,5.1229,5.1229,5.1229,5.1229,5.1229,5.2336,5.2002,5.2002,5.191,5.1787,5.1572,5.1572,5.1572,0.0,5.1572,5.188,5.2063,5.2063,5.2246,5.2397,5.2397,0.0,0.0,0.0,0.0,5.3055,0.0,0.0,0.0,0.0,0.0,0.0,0.0,0.0,5.7735,5.7881,5.7881,5.7881,5.7881,5.7881,5.7881,5.7881,5.7881,5.7881,5.7881,5.7881,5.7881,5.7881,5.7881,5.7881,5.7881,5.7881,0.0,5.7881,5.7881,5.7881,5.7881,5.7881,5.7881,5.7881,5.7881,5.7881,5.7881,5.7881,5.7881,5.7881,5.7881,5.7881,5.7881,5.7881,5.7881,5.7881,5.7881,5.7881,5.7881,5.7881,5.7881,5.7881,5.7881,5.7881,5.7881,5.7881,5.7881,5.7881,5.7881,5.7881,5.7881,5.7881,5.7881,5.7881,5.7881,5.7881,5.7881,5.7881,5.7881,5.7881,5.7881,5.7881,5.7881,5.7881,5.7881,5.7814,5.7606,5.7291,5.6679,5.5754,5.4659,5.3671,5.2729,5.2061,5.1503,5.1229,5.1229,5.1229,5.1229,5.1229,5.1229,5.2336,5.2276,5.2549,5.2246,5.2155,5.2063,5.1665,0.0,0.0,5.1386,5.1509,5.1695,5.2002,5.2063,0.0,5.2518,5.2337,0.0,5.2427,5.2427,0.0,5.329,0.0,0.0,0.0,0.0,0.0,0.0,0.0,5.7662,5.7881,5.7881,5.7881,5.7881,5.7881,5.7881,5.7881,5.7881,5.7881,5.7881,5.7881,5.7881,5.7881,5.7881,5.7881,5.7881,5.7881,5.7881,5.7881,5.7881,5.7881,5.7881,5.7881,5.7881,5.7881,5.7881,5.7881,5.7881,5.7881,5.7881,5.7881,5.7881,5.7881,5.7881,5.7881,5.7881,5.7881,5.7881,5.7881,5.7881,5.7881,5.7881,5.7881,5.7881,5.7881,5.7881,5.7881,5.7881,5.7881,5.7881,5.7881,5.7881,5.7881,5.7881,5.7881,5.7881,5.7881,5.7881,5.7881,5.7881,5.7881,5.7881,5.7881,5.7881,5.7881,5.7881,5.7848,5.778,5.7364,5.6813,5.602,5.4928,5.3984,5.3101,5.2241,5.1686,5.1443,5.1259,5.1229,5.1229,5.1229,5.1229,5.2428,5.2518,5.2877,5.2577,5.2518,5.2518,5.1941,5.1665,5.1572,5.1323,5.1229,5.1323,5.1787,5.188,5.2063,0.0,5.2155,5.1972,5.2215,5.2033,5.2124,0.0,5.3434,0.0,0.0,0.0,0.0,0.0,0.0,0.0,5.7881,5.7881,5.7881,5.7881,5.7881,5.7881,5.7881,5.7881,5.7881,5.7881,5.7881,5.7881,5.7881,5.7881,5.7881,5.7881,5.7881,5.7881,5.7881,5.7881,5.7881,5.7881,5.7881,5.7881,5.7881,5.7881,5.7881,5.7881,5.7881,5.7881,5.7881,5.7881,5.7881,5.7881,5.7881,5.7881,5.7881,5.7881,5.7881,5.7881,5.7881,5.7881,5.7881,5.7881,5.7881,5.7881,5.7881,5.7881,5.7881,5.7881,5.7881,5.7881,5.7881,5.7881,5.7881,5.7881,5.7881,5.7881,5.7881,5.7881,5.7881,5.7881,5.7881,5.7881,5.7881,5.7881,5.7881,5.7881,5.7504,5.7014,5.6432,5.5288,5.4229,5.3498,5.2455,5.1843,5.1656,5.1289,5.1229,5.1229,5.1229,5.1229,5.2673,5.2518,5.2788,5.2966,5.2698,5.2397,5.2518,5.2063,5.1572,5.1572,5.1416,5.1323,5.1572,5.1665,5.1695,5.2002,5.1787,5.1695,5.1972,5.1787,5.1849,5.2306,0.0,0.0,5.438,5.5081,0.0,0.0,0.0,0.0,5.7881,5.7881,5.7881,5.7881,5.7881,5.7881,5.7881,5.7881,5.7881,5.7881,5.7881,5.7881,5.7881,5.7881,5.7881,5.7881,5.7881,5.7881,5.7881,5.7881,5.7881,5.7881,5.7881,5.7881,5.7881,5.7881,5.7881,5.7881,5.7881,5.7881,5.7881,5.7881,5.7881,5.7881,5.7881,5.7881,5.7881,5.7881,5.7881,5.7881,5.7881,5.7881,5.7881,5.7881,5.7881,5.7881,5.7881,5.7881,5.7881,5.7881,5.7881,5.7881,5.7881,5.7881,5.7881,5.7881,5.7881,5.7881,5.7881,5.7881,5.7881,5.7881,5.7881,5.7881,5.7881,5.7881,5.7881,5.7881,5.733,5.6929,5.6636,5.5215,5.4168,5.3647,5.2487,5.1789,5.1656,5.1289,5.1229,5.1229,5.1229,5.1229,5.2764,5.2667,5.3055,5.2877,5.2788,5.2698,5.2487,5.2155,5.1787,5.1572,5.1416,5.1323,5.1572,5.1572,5.1695,5.2002,5.1787,5.1665,5.1787,5.1509,5.1479,5.1849,0.0,0.0,0.0,0.0,0.0,0.0,0.0,0.0,5.7881,5.7881,5.7881,5.7881,5.7881,5.7881,5.7881,5.7881,5.7881,5.7881,5.7881,5.7881,5.7881,5.7881,5.7881,5.7881,5.7881,5.7881,5.7881,5.7881,5.7881,5.7881,5.7881,5.7881,5.7881,5.7881,5.7881,5.7881,5.7881,5.7881,5.7881,5.7881,5.7881,5.7881,5.7881,5.7881,5.7881,5.7881,5.7881,5.7881,5.7881,5.7881,5.7881,5.7881,5.7881,5.7881,5.7881,5.7881,5.7881,5.7881,5.7881,5.7881,5.7881,5.7881,5.7881,5.7881,5.7881,5.7881,5.7881,5.7881,5.7881,5.7881,5.7881,5.7881,5.7881,5.7881,5.7881,5.7881,5.7572,5.7238,5.7066,5.585,5.4955,5.4529,5.3117,5.2276,5.1991,5.1473,5.1229,5.1229,5.1229,5.1229,5.3037,5.2935,5.3233,5.2877,5.2908,5.2877,5.2577,5.2246,5.2002,5.1787,5.1416,5.1229,5.1479,5.1479,5.1509,5.1695,5.1695,5.1572,5.1572,5.1509,5.1509,0.0,0.0,0.0,0.0,0.0,0.0,0.0,0.0,0.0,5.7881,5.7881,5.7881,5.7881,5.7881,5.7881,5.7881,5.7881,5.7881,5.7881,5.7881,5.7881,5.7881,5.7881,5.7881,5.7881,5.7881,5.7881,5.7881,5.7881,5.7881,5.7881,5.7881,5.7881,5.7881,5.7881,5.7881,5.7881,5.7881,5.7881,5.7881,5.7881,5.7881,5.7881,5.7881,5.7881,5.7881,5.7881,5.7881,5.7881,5.7881,5.7881,5.7881,5.7881,5.7881,5.7881,5.7881,5.7881,5.7881,5.7881,5.7881,5.7881,5.7881,5.7881,5.7881,5.7881,5.7881,5.7881,5.7881,5.7881,5.7881,5.7881,5.7881,5.7881,5.7881,5.7881,5.7881,5.7881,5.7746,5.752,5.7372,5.6445,5.5706,5.5165,5.3734,5.2762,5.2329,5.1656,5.1259,5.1229,5.1229,5.1229,5.3606,5.3086,5.3086,5.3086,5.2908,5.2788,5.3086,5.2549,5.2002,5.2002,5.1602,5.1229,5.1229,5.1199,5.1229,5.1229,5.1386,5.1572,5.1572,5.1787,5.188,0.0,0.0,0.0,0.0,0.0,0.0,0.0,0.0,0.0,5.7881,5.7881,5.7881,5.7881,5.7881,5.7881,5.7881,5.7881,5.7881,5.7881,5.7881,5.7881,5.7881,5.7881,5.7881,5.7881,5.7881,5.7881,5.7881,5.7881,5.7881,5.7881,5.7881,5.7881,5.7881,5.7881,5.7881,5.7881,5.7881,5.7881,5.7881,5.7881,5.7881,5.7881,5.7881,5.7881,5.7881,5.7881,5.7881,5.7881,5.7881,5.7881,5.7881,5.7881,5.7881,5.7881,5.7881,5.7881,5.7881,5.7881,5.7881,5.7881,5.7881,5.7881,5.7881,5.7881,5.7881,5.7881,5.7881,5.7881,5.7881,5.7881,5.7881,5.7881,5.7881,5.7881,5.7881,5.7881,5.7746,5.7606,5.7606,5.6814,5.607,5.5409,5.4253,5.3264,5.2329,5.187,5.1473,5.1229,5.1229,5.1229,5.3481,5.3233,5.3201,5.2667,5.2487,5.2427,5.2337,5.2063,5.1695,5.1695,5.1416,5.1229,5.1229,5.1229,5.1229,5.1229,5.1416,5.1572,5.1572,0.0,0.0,0.0,0.0,0.0,0.0,0.0,0.0,0.0,0.0,0.0,5.7881,5.7881,5.7881,5.7881,5.7881,5.7881,5.7881,5.7881,5.7881,5.7881,5.7881,5.7881,5.7881,5.7881,5.7881,5.7881,5.7881,5.7881,5.7881,5.7881,5.7881,5.7881,5.7881,5.7881,5.7881,5.7881,5.7881,5.7881,5.7881,5.7881,5.7881,5.7881,5.7881,5.7881,5.7881,5.7881,5.7881,5.7881,5.7881,5.7881,5.7881,5.7881,5.7881,5.7881,5.7881,5.7881,5.7881,5.7881,5.7881,5.7881,5.7881,5.7881,5.7881,5.7881,5.7881,5.7881,5.7881,5.7881,5.7881,5.7881,5.7881,5.7881,5.7881,5.7881,5.7881,5.7881,5.7881,5.7881,5.7848,5.7814,5.7814,5.7195,5.6579,5.6014,5.48,5.3772,5.3039,5.2395,5.19,5.1473,5.1259,5.1229,5.3357,5.3144,5.3024,5.2487,5.2215,5.2155,5.2002,5.1787,5.1572,5.1572,5.1416,5.1229,5.1229,5.1229,5.1229,5.1229,5.1509,5.1787,5.1787,0.0,0.0,0.0,0.0,0.0,0.0,0.0,0.0,0.0,0.0,0.0,5.7881,5.7881,5.7881,5.7881,5.7881,5.7881,5.7881,5.7881,5.7881,5.7881,5.7881,5.7881,5.7881,5.7881,5.7881,5.7881,5.7881,5.7881,0.0,5.7881,5.7881,5.7881,5.7881,5.7881,5.7881,5.7881,5.7881,5.7881,5.7881,5.7881,5.7881,5.7881,5.7881,5.7881,5.7881,5.7881,5.7881,5.7881,5.7881,5.7881,5.7881,5.7881,5.7881,5.7881,5.7881,5.7881,5.7881,5.7881,5.7881,5.7881,5.7881,5.7881,5.7881,5.7881,5.7881,5.7881,5.7881,5.7881,5.7881,5.7881,5.7881,5.7881,5.7881,5.7881,5.7881,5.7881,5.7881,5.7881,5.7881,5.7881,5.7881,5.7504,5.6962,5.6437,5.5539,5.4528,5.3658,5.2642,5.1906,5.1626,5.1289,5.1229,0.0,5.2908,5.2608,5.2306,5.2155,5.2002,5.2002,5.1787,0.0,5.1572,5.1386,5.1229,5.1229,5.1229,5.1229,5.1229,5.1695,5.2002,5.2002,0.0,0.0,0.0,0.0,0.0,0.0,0.0,0.0,0.0,0.0,0.0,5.7881,5.7881,5.7881,5.7881,5.7881,5.7881,5.7881,5.7881,5.7881,5.7881,5.7881,5.7881,5.7881,5.7881,5.7881,5.7881,5.7881,5.7915,5.7983,5.7983,5.7983,5.809,5.809,5.809,5.809,5.809,5.809,5.809,5.809,5.809,5.809,5.809,5.809,5.809,5.809,5.7949,5.7881,5.7881,5.7881,5.7881,5.7881,5.7881,5.7881,5.7881,5.7881,5.7881,5.7881,5.7881,5.7881,5.7881,5.7881,5.7881,5.7881,5.7881,5.7881,5.7881,5.7881,5.7881,5.7881,5.7881,5.7881,5.7881,5.7881,5.7881,5.7881,5.7881,5.7881,5.7881,5.7881,5.7881,5.7881,5.7746,5.7345,5.6724,5.625,5.5389,5.4071,5.2657,5.1881,5.1656,5.1413,5.1229,5.3409,0.0,5.2639,5.2155,5.188,5.1695,0.0,5.1323,0.0,0.0,0.0,0.0,5.1479,5.1509,5.1602,5.1787,5.2063,5.2215,5.2215,0.0,0.0,0.0,0.0,0.0,0.0,0.0,0.0,0.0,0.0,5.7881,5.7881,5.7881,5.7881,5.7881,5.7881,5.7881,5.7881,5.7881,5.7881,5.7881,5.7881,5.7881,5.7881,5.7881,5.7881,5.7881,5.7881,5.822,5.8761,5.8761,5.9044,5.9609,5.9609,5.9609,5.9609,5.9609,5.9609,5.9609,5.9609,5.9609,5.9609,5.9609,5.9609,5.9609,5.9609,5.8778,5.7881,5.7881,5.7881,5.7881,5.7881,5.7881,5.7881,5.7881,5.7881,5.7881,5.7881,5.7881,5.7881,5.7881,5.7881,5.7881,5.7881,5.7881,5.7881,5.7881,5.7881,5.7881,5.7881,5.7881,5.7881,5.7881,5.7881,5.7881,5.7881,5.7881,5.7881,5.7881,5.7881,5.7881,5.7881,5.7746,5.7465,5.7177,5.6249,5.5377,5.4559,5.345,5.2643,5.2145,5.1686,5.1443,5.3726,5.329,5.2788,5.2518,5.2215,5.1849,5.1757,5.1572,0.0,0.0,0.0,0.0,0.0,0.0,5.2033,5.2246,5.2487,5.2667,0.0,0.0,0.0,0.0,0.0,0.0,0.0,0.0,0.0,0.0,0.0,5.7881,5.7881,5.7881,5.7881,5.7881,5.7881,5.7881,5.7881,5.7881,5.7881,5.7881,5.7881,5.7881,5.7915,5.8254,5.8389,5.8423,5.8761,5.9133,5.9505,5.9505,5.979,6.0109,6.0109,6.0136,6.0122,6.0122,6.0122,6.0122,6.0122,6.0122,6.0122,6.0122,6.0122,6.0122,6.0122,5.9565,5.895,5.8909,5.8953,5.8812,5.8468,5.84,5.8332,5.7949,5.7881,5.7881,5.7881,5.7881,5.7881,5.7881,5.7881,5.7881,5.7881,5.7881,5.7881,5.7881,5.7881,5.8056,5.8366,5.84,5.8502,5.8846,5.8953,5.8953,5.8953,5.8953,5.8642,5.7915,5.7881,5.7881,5.7881,5.7814,5.7606,5.7471,5.6512,5.571,5.5149,5.4166,5.3303,5.2581,5.2027,5.1656,5.4189,5.3813,5.3346,5.317,5.2726,5.2457,5.2397,5.2124,0.0,0.0,0.0,0.0,0.0,0.0,0.0,0.0,0.0,0.0,0.0,0.0,0.0,0.0,0.0,0.0,0.0,0.0,0.0,0.0,0.0,5.7881,5.7881,5.7881,5.7881,5.7881,5.7881,5.7949,5.8051,5.7949,5.7949,5.8051,5.8051,5.8118,5.8254,5.8896,5.9167,5.9201,5.9844,6.0182,6.0283,6.0283,6.0351,6.0452,6.0452,6.0425,6.046,6.046,6.046,6.046,6.046,6.046,6.046,6.046,6.046,6.046,6.046,6.046,6.0482,6.0449,6.0291,5.9979,5.9355,5.9152,5.9021,5.84,5.8225,5.8225,5.8225,5.8225,5.8225,5.8225,5.8225,5.8225,5.8225,5.8225,5.8225,5.8225,5.8225,5.8468,5.9089,5.9152,5.9423,6.0047,6.0081,6.0081,6.0081,6.0081,5.9525,5.8281,5.8118,5.8056,5.7881,5.7881,5.7814,5.764,5.6954,5.6345,5.5853,5.4773,5.3876,5.3121,5.2367,5.1934,5.4613,5.4832,5.48,5.3868,5.3346,5.3051,5.2905,5.2667,5.2487,0.0,0.0,0.0,0.0,0.0,0.0,0.0,0.0,0.0,0.0,0.0,0.0,0.0,0.0,0.0,0.0,0.0,0.0,0.0,0.0,5.7662,5.7662,5.7808,5.7881,5.7881,5.7881,5.8186,5.8829,5.822,5.822,5.8829,5.8829,5.9167,5.9776,5.9877,5.9945,5.9945,6.0047,6.0486,6.1129,6.1129,6.1467,6.2042,6.2042,6.2076,6.2032,6.2032,6.2032,6.2032,6.2032,6.2032,6.2032,6.2032,6.2032,6.2032,6.2032,6.2032,6.2032,6.2053,6.1109,6.0102,5.9923,5.9953,5.9921,5.9745,5.9745,5.9745,5.9745,5.9745,5.9745,5.9745,5.9745,5.9745,5.9745,5.9745,5.9745,5.9745,5.9745,5.9818,5.9921,5.9903,5.9923,6.0102,6.0102,6.0102,6.0102,6.0102,6.0035,5.9789,5.9201,5.8535,5.7915,5.7881,5.7881,5.7848,5.7572,5.7171,5.6581,5.5799,5.4845,5.3813,5.3121,5.2521,5.4497,5.4915,5.5164,5.4717,5.4549,5.4433,5.4348,5.3868,0.0,0.0,0.0,0.0,0.0,0.0,0.0,0.0,0.0,0.0,0.0,0.0,0.0,0.0,0.0,0.0,0.0,0.0,0.0,0.0,0.0,5.7588,5.7588,5.8214,5.849,5.849,5.8863,5.9194,5.9456,5.9119,5.9119,5.9607,5.9607,5.9776,6.0114,6.0554,6.0757,6.0757,6.1163,6.1535,6.1873,6.1873,6.2076,6.2381,6.2381,6.2381,6.2381,6.2381,6.2381,6.2381,6.2381,6.2381,6.2381,6.2381,6.2381,6.2381,6.2381,6.2381,6.2381,6.2381,6.193,6.1223,6.0841,6.0738,6.063,6.0216,6.0072,6.0072,6.0072,6.0072,6.0072,6.0072,6.0072,6.0072,6.0072,6.0072,6.0072,6.0072,6.0072,6.025,6.0664,6.0772,6.0875,6.1335,6.1369,6.1369,6.1369,6.1369,6.1008,6.0114,5.9803,5.94,5.9089,5.9089,5.8919,5.8468,5.8332,5.7803,5.7055,5.6348,5.562,5.4717,5.3782,5.2997,5.4327,5.4749,5.5196,5.5409,5.5491,5.5458,5.5377,0.0,0.0,0.0,0.0,0.0,0.0,0.0,0.0,0.0,0.0,0.0,0.0,0.0,0.0,0.0,0.0,0.0,0.0,0.0,0.0,0.0,5.722,5.7624,5.7792,5.8589,5.8968,5.8968,5.9506,5.9799,5.9845,5.9767,5.9923,6.0155,6.0155,6.0223,6.0314,6.1032,6.1301,6.1335,6.2066,6.2302,6.2302,6.2381,6.2381,6.2381,6.2381,6.2381,6.2381,6.2381,6.2381,6.2381,6.2381,6.2381,6.2381,6.2381,6.2381,6.2381,6.2381,6.2381,6.2381,6.2381,6.2381,6.2279,6.1717,6.1537,6.1402,6.0808,6.0595,6.0595,6.0595,6.0595,6.0595,6.0595,6.0595,6.0595,6.0595,6.0595,6.0595,6.0595,6.0595,6.0841,6.147,6.1537,6.1751,6.2347,6.2381,6.2381,6.2381,6.2381,6.1927,6.0659,6.0319,6.0109,6.0109,6.0109,5.9831,5.9241,5.9118,5.8676,5.7881,5.7222,5.6492,5.5864,5.4589,5.3632,5.4327,5.4915,5.5409,5.5653,5.5766,0.0,5.5491,0.0,0.0,0.0,0.0,0.0,0.0,0.0,0.0,0.0,0.0,0.0,0.0,0.0,0.0,0.0,0.0,0.0,0.0,0.0,0.0,0.0,5.6874,5.7493,5.8378,5.8687,5.88,5.88,5.8833,5.9198,5.986,5.9696,5.9893,6.0331,6.0331,6.047,6.0937,6.125,6.1399,6.1399,6.1837,6.1997,6.2076,6.2302,6.2381,6.2381,6.2381,6.2381,6.2381,6.2381,6.2381,6.2381,6.2381,6.2381,6.2381,6.2381,6.2381,6.2381,6.2381,6.2381,6.2381,6.2381,6.2381,6.2381,6.2347,6.2313,6.2313,6.2279,6.2245,6.2245,6.2245,6.2245,6.2245,6.2245,6.2245,6.2245,6.2245,6.2245,6.2245,6.2245,6.2245,6.2279,6.2313,6.2313,6.2347,6.2381,6.2381,6.2381,6.2381,6.2381,6.2313,6.2256,6.0852,6.0125,6.0125,6.0125,6.0125,5.998,5.996,5.9886,5.9609,5.8671,5.7917,5.7288,5.5701,5.4444,5.3939,5.4242,5.4665,5.5031,5.5278,0.0,0.0,0.0,0.0,0.0,0.0,0.0,0.0,0.0,0.0,0.0,0.0,0.0,0.0,0.0,0.0,0.0,0.0,0.0,0.0,0.0,0.0,5.7293,5.7707,5.8084,5.8462,5.9135,5.9448,5.9448,5.996,6.0159,6.0205,5.9952,5.9663,5.9263,5.9952,6.0421,6.0567,6.0685,6.0769,6.0969,6.1136,6.1268,6.1399,6.1513,6.1589,6.1784,6.2032,6.2133,6.2133,6.2347,6.2381,6.2381,6.2381,6.2381,6.2381,6.2381,6.2381,6.2381,6.2381,6.2381,6.2381,6.2381,6.2381,6.2381,6.2381,6.2381,6.2381,6.2381,6.2381,6.2381,6.2381,6.2381,6.2381,6.2381,6.2381,6.2381,6.2381,6.2381,6.2381,6.2381,6.2381,6.2381,6.2381,6.2381,6.2381,6.2381,6.2381,6.2381,6.2381,6.2381,6.2381,6.2381,6.1818,6.1503,6.1503,6.1503,6.1335,6.0841,6.0883,6.0588,5.9996,5.9472,5.9001,5.8545,5.7365,5.5977,5.4335,5.4648,5.4908,5.5283,5.5453,0.0,0.0,0.0,0.0,0.0,0.0,0.0,0.0,0.0,0.0,0.0,0.0,0.0,0.0,0.0,0.0,0.0,0.0,0.0,0.0,0.0,5.713,5.7614,5.7956,5.8339,5.8652,5.9278,5.9624,5.9624,6.005,6.0054,5.9859,5.9387,5.894,5.8243,5.8908,5.9234,5.9411,5.9531,5.9707,5.9914,6.0259,6.0397,6.0567,6.0736,6.0886,6.1199,6.1501,6.1581,6.1717,6.1998,6.2066,6.2099,6.2245,6.2279,6.2313,6.2381,6.2381,6.2381,6.2381,6.2381,6.2381,6.2381,6.2381,6.2381,6.2381,6.2381,6.2381,6.2381,6.2381,6.2381,6.2381,6.2381,6.2381,6.2381,6.2381,6.2381,6.2381,6.2381,6.2381,6.2381,6.2381,6.2381,6.2381,6.2381,6.2381,6.2381,6.2381,6.2381,6.2381,6.2381,6.2381,6.2381,6.2381,6.2381,6.2381,6.2381,6.2133,6.1683,6.1683,6.1402,6.0841,6.0393,6.0011,5.9614,5.843,5.7103,5.5618,5.6157,5.6511,5.6511,0.0,0.0,0.0,0.0,0.0,0.0,0.0,0.0,0.0,0.0,0.0,0.0,0.0,0.0,0.0,0.0,0.0,0.0,0.0,0.0,0.0,5.5376,5.6203,5.7168,5.7412,5.8,5.894,5.9004,5.9004,5.9004,5.8701,5.861,5.861,5.784,5.7495,5.7495,5.6988,5.6988,5.7433,5.7902,5.8211,5.8211,5.9177,5.9587,5.9619,6.0054,6.0472,6.0684,6.0688,6.085,6.0976,6.1256,6.1402,6.1436,6.1818,6.1998,6.2032,6.2313,6.2381,6.2381,6.2381,6.2381,6.2381,6.2381,6.2381,6.2381,6.2381,6.2381,6.2381,6.2381,6.2381,6.2381,6.2381,6.2381,6.2381,6.2381,6.2381,6.2381,6.2381,6.2381,6.2381,6.2381,6.2381,6.2381,6.2381,6.2381,6.2381,6.2381,6.2381,6.2381,6.2381,6.2381,6.2381,6.2381,6.2381,6.2381,6.2381,6.2381,6.2381,6.2381,6.2381,6.2381,6.2381,6.1402,6.0808,6.0595,5.8659,5.7462,5.5743,5.5889,0.0,0.0,0.0,0.0,0.0,0.0,0.0,0.0,0.0,0.0,0.0,0.0,0.0,0.0,0.0,0.0,0.0,0.0,0.0,0.0,0.0,0.0,5.5689,5.6776,5.7706,5.8201,5.8414,5.869,5.8972,5.9004,5.9004,5.9004,5.8701,5.8487,5.8303,5.7559,5.6988,5.6603,5.6145,5.6244,5.6892,5.7084,5.7275,5.7464,5.7715,5.7902,5.8056,5.8637,5.8895,5.9014,5.9632,5.9924,6.0083,6.0463,6.0787,6.0935,6.1035,6.1307,6.1616,6.1683,6.193,6.2099,6.2099,6.2279,6.2381,6.2381,6.2381,6.2381,6.2381,6.2381,6.2381,6.2381,6.2381,6.2381,6.2381,6.2381,6.2381,6.2381,6.2381,6.2381,6.2381,6.2381,6.2381,6.2381,6.2381,6.2381,6.2381,6.2381,6.2381,6.2381,6.2381,6.2381,6.2381,6.2381,6.2381,6.2381,6.2381,6.2381,6.2381,6.2381,6.2381,6.2381,6.2381,6.2381,6.2381,6.193,6.1614,6.135,6.0192,5.8864,5.6372,0.0,0.0,0.0,0.0,0.0,0.0,0.0,0.0,0.0,0.0,0.0,0.0,0.0,0.0,0.0,0.0,0.0,0.0,0.0,0.0,0.0,5.5196,5.573,5.5923,5.6836,5.7559,5.7653,5.7933,5.8119,5.8119,5.8119,5.8119,5.8119,5.784,5.7653,5.7464,5.6796,5.6342,5.6047,5.5681,5.5681,5.6145,5.6244,5.6342,5.6537,5.6977,5.7294,5.7583,5.8182,5.8467,5.8624,5.9206,5.9505,5.9563,6.0064,6.0388,6.0565,6.0975,6.1267,6.1599,6.1891,6.2219,6.2468,6.2584,6.2876,6.308,6.3012,6.2876,6.2696,6.2595,6.2381,6.2279,6.2381,6.2381,6.2381,6.2381,6.2381,6.2381,6.2381,6.2381,6.2381,6.2381,6.2381,6.2381,6.2381,6.2381,6.2381,6.2381,6.2381,6.2381,6.2381,6.2381,6.2381,6.2381,6.2381,6.2381,6.2381,6.2381,6.2381,6.2381,6.2381,6.2381,6.2381,6.2381,6.2381,6.2381,6.2032,6.177,6.1534,6.0555,5.9404,0.0,0.0,0.0,0.0,0.0,0.0,0.0,0.0,0.0,0.0,0.0,0.0,0.0,0.0,0.0,0.0,0.0,0.0,0.0,0.0,0.0,5.5179,5.5481,5.5581,5.5581,5.6047,5.6311,5.6311,5.6506,5.67,5.67,5.67,5.67,5.67,5.6409,5.6311,5.6311,5.5849,5.5581,5.5581,5.534,5.5269,5.5269,5.5571,5.5702,5.5792,5.6838,5.7412,5.7641,5.8285,5.8762,5.89,5.8965,5.9129,5.9379,5.9884,6.0104,6.0259,6.1116,6.1508,6.162,6.2306,6.2831,6.315,6.3303,6.3758,6.4109,6.3872,6.3555,6.3125,6.2854,6.2471,6.2234,6.2415,6.2415,6.2381,6.2381,6.2381,6.2381,6.2381,6.2381,6.2381,6.2381,6.2381,6.2381,6.2381,6.2381,6.2381,6.2381,6.2381,6.2381,6.2381,6.2381,6.2381,6.2381,6.2381,6.2381,6.2381,6.2381,6.2381,6.2381,6.2381,6.2381,6.2381,6.2381,6.2381,6.2381,6.1964,6.1589,6.1401,6.0256,5.935,0.0,0.0,0.0,0.0,0.0,0.0,0.0,0.0,0.0,0.0,0.0,0.0,0.0,0.0,0.0,0.0,0.0,0.0,0.0,0.0,0.0,5.5179,5.5481,5.5581,5.5581,5.6047,5.6311,5.6311,5.6506,5.67,5.67,5.67,5.67,5.67,5.6409,5.6311,5.6311,5.5849,5.5581,5.5581,5.582,5.5957,5.5957,5.6059,5.6329,5.6809,5.7032,5.7196,5.7299,5.7583,5.7794,5.7902,5.8319,5.8491,5.8549,5.8866,5.9204,5.9347,5.9549,6.0022,6.058,6.0741,6.131,6.2048,6.2333,6.2781,6.312,6.3283,6.3264,6.3206,6.3133,6.3131,6.3194,6.3238,6.2798,6.2381,6.2381,6.2381,6.2381,6.2381,6.2381,6.2381,6.2381,6.2381,6.2381,6.2381,6.2381,6.2381,6.2381,6.2381,6.2381,6.2381,6.2381,6.2381,6.2381,6.2381,6.2381,6.2381,6.2381,6.2381,6.2381,6.2381,6.2381,6.2381,6.2381,6.2381,6.2381,6.2066,6.1803,6.1567,6.064,5.9831,0.0,0.0,0.0,0.0,0.0,0.0,0.0,0.0,0.0,0.0,0.0,0.0,0.0,0.0,0.0,0.0,0.0,0.0,0.0,0.0,0.0,5.5179,5.528,5.5381,5.5381,5.5651,5.575,5.575,5.5948,5.5948,5.5948,5.5948,5.5948,5.5948,5.5849,5.575,5.575,5.5882,5.5861,5.5861,5.6419,5.6795,5.7094,5.6765,5.6795,5.7124,5.7453,5.7573,5.7603,5.8038,5.8278,5.8321,5.855,5.8684,5.8782,5.8931,5.9135,5.935,5.9637,6.0028,6.0321,6.0546,6.1183,6.1877,6.2108,6.2765,6.3356,6.3323,6.3242,6.3153,6.3023,6.2998,6.3057,6.3049,6.3141,6.3294,6.3294,6.3429,6.337,6.3001,6.2944,6.2764,6.2448,6.2381,6.2381,6.2381,6.2381,6.2381,6.2381,6.2381,6.2381,6.2381,6.2381,6.2381,6.2381,6.2381,6.2381,6.2381,6.2381,6.2381,6.2381,6.2381,6.2381,6.2381,6.2381,6.2381,6.2381,6.2032,6.1728,6.1313,6.0586,5.9707,0.0,0.0,0.0,0.0,0.0,0.0,0.0,0.0,0.0,0.0,0.0,0.0,0.0,0.0,0.0,0.0,0.0,0.0,0.0,5.5179,5.5179,5.5179,5.5179,5.5179,5.5179,5.5179,5.5179,5.5179,5.5179,5.5179,5.5179,5.5179,5.5239,5.5359,5.5359,5.5418,5.5508,5.6077,5.6346,5.6346,5.6974,5.7633,5.8261,5.7693,5.7453,5.7483,5.8052,5.8291,5.8351,5.889,5.9099,5.9099,5.9099,5.9099,5.9129,5.9357,5.9417,5.9447,5.9964,6.0193,6.0271,6.0713,6.1255,6.1753,6.1964,6.2707,6.3388,6.3249,6.3083,6.2893,6.2808,6.262,6.2554,6.262,6.3425,6.4228,6.4187,6.427,6.4304,6.3734,6.3656,6.3453,6.2854,6.2753,6.2753,6.2753,6.2798,6.2764,6.2764,6.2764,6.2764,6.2764,6.2764,6.273,6.2629,6.2595,6.2561,6.2381,6.2381,6.2381,6.2381,6.2381,6.2381,6.2381,6.2381,6.2381,6.2381,6.1964,6.1537,6.1098,6.0407,5.9565,0.0,0.0,0.0,0.0,0.0,0.0,0.0,0.0,0.0,0.0,0.0,0.0,0.0,0.0,0.0,0.0,0.0,0.0,5.5179,5.5179,5.5179,5.5179,5.5179,5.5179,5.5179,5.5179,5.5179,5.5179,5.5179,5.5179,5.5179,5.5179,5.5448,5.6017,5.6047,5.6286,5.6825,5.6944,5.6974,5.6974,5.7663,5.8351,5.8979,5.889,5.883,5.883,5.8949,5.8979,5.8979,5.9069,5.9099,5.9099,5.9099,5.9099,5.9099,5.9129,5.9129,5.9129,5.9297,5.9417,5.9615,5.9663,6.012,6.0637,6.0913,6.1247,6.1618,6.2089,6.2198,6.2198,6.2393,6.2588,6.2793,6.3068,6.3546,6.3887,6.3627,6.3672,6.3781,6.4087,6.4383,6.4377,6.4309,6.4288,6.4335,6.4335,6.4291,6.4312,6.4312,6.4312,6.4312,6.4312,6.4312,6.4029,6.3396,6.3328,6.3046,6.2415,6.2381,6.2381,6.2381,6.2381,6.2381,6.2381,6.2381,6.2381,6.2381,6.2099,6.1703,6.1318,6.0857,6.0087,0.0,0.0,0.0,0.0,0.0,0.0,0.0,0.0,0.0,0.0,0.0,0.0,0.0,0.0,0.0,0.0,5.5179,5.5179,5.5179,5.5179,5.5179,5.5179,5.5179,5.5179,5.5179,5.5179,5.5179,5.5179,5.5179,5.5359,5.5718,5.5748,5.6017,5.6675,5.6675,5.6825,5.7094,5.7483,5.7872,5.8231,5.853,5.883,5.9099,5.9099,5.9099,5.9099,5.9099,5.9099,5.9099,5.9099,5.9099,5.9099,5.9099,5.9099,5.9099,5.9099,5.9099,5.9099,5.9099,5.9159,5.9327,5.9327,5.9585,5.9904,6.0102,6.0409,6.0761,6.1071,6.1217,6.1382,6.1628,6.1894,6.2229,6.2468,6.2833,6.3066,6.3099,6.3724,6.4383,6.4481,6.4254,6.4086,6.4368,6.4464,6.4431,6.4613,6.4566,6.46,6.46,6.46,6.46,6.46,6.46,6.4498,6.418,6.4097,6.3961,6.3645,6.3543,6.3294,6.291,6.2629,6.2279,6.1818,6.2245,6.2381,6.2381,6.2032,6.1522,6.0969,6.0435,5.9652,0.0,0.0,0.0,0.0,0.0,0.0,0.0,0.0,0.0,0.0,0.0,0.0,0.0,0.0,0.0,5.5179,5.5179,5.5179,5.5179,5.5179,5.5179,5.5179,5.5179,5.5179,5.5179,5.5329,5.5448,5.5448,5.5598,5.5897,5.6376,5.6406,5.6705,5.7334,5.7363,5.7423,5.7603,5.8112,5.862,5.9099,5.9099,5.9099,5.9099,5.9099,5.9099,5.9099,5.9099,5.9099,5.9099,5.9099,5.9099,5.9099,5.9099,5.9099,5.9099,5.9099,5.9099,5.9099,5.9099,5.9099,5.9099,5.9099,5.9189,5.9387,5.9387,5.9675,6.0042,6.0107,6.0319,6.0486,6.0855,6.1,6.1237,6.1556,6.1738,6.2116,6.2802,6.3901,6.4767,6.4674,6.4254,6.4029,6.4606,6.4657,6.4741,6.5042,6.5093,6.511,6.5178,6.5178,6.5178,6.5178,6.5144,6.4992,6.4825,6.4749,6.4585,6.4449,6.4233,6.3903,6.3276,6.2885,6.2434,6.1743,6.2273,6.2367,6.2032,6.1649,6.114,6.0522,5.9892,5.9088,0.0,0.0,0.0,0.0,0.0,0.0,0.0,0.0,0.0,0.0,0.0,0.0,0.0,5.5179,5.5179,5.5179,5.5179,5.5179,5.5179,5.5179,5.5179,5.5179,5.5179,5.5179,5.5179,5.5748,5.6137,5.6137,5.6675,5.7004,5.7034,5.7034,5.7363,5.8052,5.8082,5.8381,5.9009,5.9039,5.9069,5.9099,5.9099,5.9099,5.9099,5.9099,5.9099,5.9099,5.9099,5.9099,5.9099,5.9099,5.9099,5.9099,5.9099,5.9099,5.9099,5.9099,5.9099,5.9099,5.9099,5.9099,5.9099,5.9099,5.9099,5.9129,5.9129,5.9129,5.9237,5.9422,5.9529,5.9667,5.9986,6.0092,6.0092,6.0407,6.069,6.1339,6.2837,6.3549,6.4114,6.4636,6.4844,6.5081,6.568,6.5767,6.5855,6.632,6.6441,6.6492,6.6627,6.6745,6.6745,6.6745,6.6525,6.6137,6.5463,6.511,6.4657,6.3986,6.3953,6.3815,6.3462,6.343,6.3215,6.276,6.2706,6.223,6.1088,6.0841,6.0545,6.0026,5.9556,5.8781,0.0,0.0,0.0,0.0,0.0,0.0,0.0,0.0,0.0,0.0,0.0,0.0,5.6406,5.5748,5.5179,5.5179,5.5179,5.5329,5.5777,5.5807,5.5957,5.6376,5.6406,5.6406,5.6406,5.6615,5.6765,5.6765,5.6974,5.7304,5.7723,5.7752,5.8052,5.874,5.874,5.886,5.9099,5.9099,5.9099,5.9099,5.9099,5.9099,5.9099,5.9099,5.9099,5.9099,5.9099,5.9099,5.9099,5.9099,5.9099,5.9099,5.9099,5.9099,5.9099,5.9099,5.9099,5.9099,5.9099,5.9099,5.9099,5.9099,5.9099,5.9099,5.9099,5.9099,5.9099,5.9207,5.9207,5.9315,5.9636,5.9636,5.9773,6.0092,6.0197,6.0512,6.1237,6.2116,6.2873,6.3357,6.3516,6.3768,6.4669,6.4943,6.5246,6.5692,6.5801,6.5908,6.6152,6.6119,6.6238,6.6593,6.6424,6.6204,6.6142,6.5734,6.5413,6.5126,6.4706,6.4178,6.3571,6.2917,6.2295,6.1644,6.1183,6.1037,6.1231,6.0882,6.0181,5.9275,5.8414,5.7684,5.5957,0.0,0.0,0.0,0.0,5.6466,0.0,0.0,0.0,0.0,5.7094,5.7094,5.7094,5.6406,5.5837,5.5837,5.5837,5.5987,5.6406,5.6466,5.6645,5.7034,5.7094,5.7094,5.7094,5.7304,5.7453,5.7453,5.7633,5.7962,5.8441,5.8471,5.865,5.9099,5.9099,5.9099,5.9099,5.9099,5.9099,5.9099,5.9099,5.9099,5.9099,5.9099,5.9099,5.9099,5.9099,5.9099,5.9099,5.9099,5.9099,5.9099,5.9099,5.9099,5.9099,5.9099,5.9099,5.9099,5.9099,5.9099,5.9099,5.9099,5.9099,5.9099,5.9099,5.9099,5.9099,5.9099,5.9099,5.9099,5.9315,5.9315,5.9422,5.9773,5.988,5.988,6.0197,6.0897,6.1714,6.2315,6.2383,6.2646,6.3611,6.3926,6.4207,6.4852,6.4943,6.5057,6.5337,6.548,6.5688,6.5947,6.5865,6.5841,6.5841,6.5535,6.5213,6.5041,6.4531,6.3963,6.3399,6.265,6.1981,6.1371,6.0746,6.0595,6.0963,6.0495,5.9846,5.8951,5.8245,5.743,0.0,0.0,0.0,0.0,0.0,0.0,5.7124,0.0,5.7154,5.7154,5.7154,5.7154,5.7154,5.7154,5.7154,5.7154,5.7124,5.7094,5.7124,5.7124,5.7124,5.7154,5.7154,5.7154,5.7154,5.7752,5.8141,5.8141,5.874,5.9099,5.9099,5.9099,5.9099,5.9099,5.9099,5.9099,5.9099,5.9099,5.9099,5.9099,5.9099,5.9099,5.9099,5.9099,5.9099,5.9099,5.9099,5.9129,5.9129,5.9129,5.9099,5.9099,5.9129,5.9129,5.9129,5.9159,5.9159,5.9159,5.9159,5.9159,5.9159,5.9159,5.9159,5.9159,5.9129,5.9129,5.9129,5.9099,5.9099,5.9099,5.9099,5.9099,5.9207,5.9422,5.9529,5.9529,5.988,6.0197,6.0586,6.1379,6.1582,6.1784,6.2612,6.271,6.2971,6.3705,6.38,6.3988,6.442,6.4728,6.4934,6.4982,6.505,6.4949,6.4695,6.444,6.408,6.3479,6.3512,6.3292,6.2766,6.2766,6.2525,6.1919,6.166,6.1107,6.0162,5.9683,5.9255,5.9055,5.8771,5.7968,5.7244,0.0,0.0,0.0,0.0,0.0,5.7842,5.8201,5.856,5.856,5.856,5.856,5.856,5.856,5.856,5.856,5.7723,5.7274,5.7782,5.7842,5.8022,5.8501,5.856,5.856,5.856,5.871,5.883,5.883,5.9009,5.9099,5.9099,5.9099,5.9099,5.9099,5.9099,5.9099,5.9099,5.9099,5.9099,5.9099,5.9099,5.9099,5.9099,5.9099,5.9099,5.9099,5.9099,5.9368,5.9787,5.9308,5.9099,5.9159,5.9638,5.9817,5.9877,6.0386,6.0565,6.0565,6.0565,6.0565,6.0565,6.0565,6.0565,6.0475,5.9967,5.9817,5.9727,5.9249,5.9099,5.9099,5.9099,5.9099,5.9099,5.9207,5.9207,5.9207,5.9315,5.9422,5.9636,6.0272,6.0346,6.0524,6.1206,6.1481,6.1753,6.2121,6.2121,6.2319,6.2907,6.2972,6.3356,6.411,6.404,6.3988,6.4159,6.3709,6.326,6.2712,6.2342,6.1964,6.1659,6.1237,6.1041,6.0824,6.031,5.9984,5.9675,5.953,5.9045,5.8475,5.8068,5.754,5.8052,5.7932,5.7932,5.7932,0.0,0.0,5.853,5.883,5.9099,5.9099,5.9099,5.9099,5.9099,5.9099,5.9099,5.9099,5.8441,5.8082,5.8471,5.853,5.868,5.9069,5.9099,5.9099,5.9099,5.9099,5.9099,5.9099,5.9099,5.9099,5.9099,5.9099,5.9099,5.9099,5.9099,5.9099,5.9099,5.9099,5.9099,5.9099,5.9099,5.9099,5.9129,5.9398,5.9518,5.9518,5.9817,6.0176,6.0475,6.0116,5.9937,5.9967,6.0356,6.0505,6.0565,6.0954,6.1104,6.1104,6.1104,6.1104,6.1104,6.1104,6.1104,6.1044,6.0625,6.0505,6.0446,6.0057,5.9937,5.9877,5.9578,5.9518,5.9458,5.9159,5.9099,5.9099,5.9099,5.9099,5.9207,5.9667,5.9743,5.9925,6.0377,6.0586,6.0794,6.1041,6.1041,6.1144,6.1652,6.1753,6.2053,6.2744,6.2714,6.2678,6.2788,6.2504,6.209,6.1571,6.1247,6.1033,6.0744,6.035,6.0258,6.0258,5.9743,5.9425,5.9357,5.9327,5.9069,5.8614,5.804,5.7719,0.0,5.9099,5.9099,0.0,5.9099,0.0,5.9099,5.9099,5.9099,5.9099,5.9099,5.9099,5.9099,5.9099,5.9099,5.9099,5.9099,5.9099,5.9099,5.9099,5.9099,5.9099,5.9099,5.9099,5.9099,5.9099,5.9099,5.9099,5.9099,5.9099,5.9099,5.9099,5.9099,5.9099,5.9099,5.9099,5.9099,5.9099,5.9099,5.9099,5.9099,5.9129,5.9249,5.9817,6.0116,6.0236,6.0835,6.1164,6.1224,6.1224,6.1194,6.1134,6.1194,6.1224,6.1224,6.1313,6.1343,6.1343,6.1343,6.1343,6.1343,6.1343,6.1343,6.1313,6.1253,6.1224,6.1224,6.1134,6.1104,6.0984,6.0356,6.0206,6.0057,5.9458,5.9338,5.9308,5.9219,5.9219,5.9297,5.9422,5.9422,5.9529,5.988,5.988,5.9986,6.0167,6.0272,6.0377,6.0586,6.0866,6.1072,6.1072,6.1246,6.1348,6.1175,6.1145,6.0865,6.0392,6.035,6.0162,5.9904,5.9904,5.9904,5.9904,5.9615,5.9357,5.9099,5.9099,5.9099,5.9099,5.8524,5.8267,0.0,0.0,0.0,0.0,0.0,0.0,5.9099,5.9099,5.9099,5.9099,5.9099,5.9099,5.9099,5.9099,5.9099,5.9099,5.9099,5.9099,5.9099,5.9099,5.9099,5.9099,5.9099,5.9099,5.9099,5.9099,5.9099,5.9099,5.9099,5.9099,5.9099,5.9099,5.9099,5.9099,5.9099,5.9099,5.9099,5.9099,5.9099,5.9099,5.9099,5.9368,5.9907,6.0027,6.0386,6.0924,6.1044,6.1403,6.1912,6.1912,6.1583,6.1164,6.1702,6.1912,6.1972,6.251,6.269,6.269,6.269,6.269,6.269,6.269,6.269,6.26,6.2061,6.1912,6.1792,6.1253,6.1104,6.1074,6.0954,6.0894,6.0894,6.0745,6.0715,6.0565,6.0027,5.9877,5.9727,5.9327,5.9207,5.9207,5.9207,5.9315,5.9315,5.9315,5.9315,5.9422,5.9743,5.9849,6.0031,6.0481,6.0586,6.0555,6.0586,6.0578,6.0321,5.9696,5.9727,5.9585,5.9327,5.9327,5.9327,5.9327,5.9159,5.9129,5.9099,5.9099,5.9099,5.9099,5.8931,5.8871,0.0,0.0,0.0,5.9099,0.0,0.0,0.0,5.9099,5.9099,5.9099,5.9099,5.9099,5.9099,5.9099,5.9099,5.9099,5.9099,5.9099,5.9099,5.9099,5.9099,5.9099,5.9099,5.9099,5.9099,5.9099,5.9099,5.9099,5.9099,5.9099,5.9099,5.9099,5.9099,5.9099,5.9099,5.9099,5.9099,5.9099,5.9279,5.9608,5.9608,5.9937,6.0625,6.0924,6.1283,6.1613,6.1942,6.2271,6.26,6.26,6.2391,6.2121,6.245,6.26,6.263,6.2959,6.3079,6.3079,6.3079,6.3079,6.3079,6.3079,6.3079,6.3019,6.269,6.26,6.251,6.2181,6.2091,6.2032,6.1702,6.1613,6.1523,6.1194,6.1104,6.1014,6.0685,6.0595,6.0505,6.0176,6.0116,5.9907,5.9219,5.9099,5.9099,5.9099,5.9099,5.9099,5.9315,5.9315,5.9422,5.9743,5.9743,5.9743,5.9743,5.9758,5.9622,5.9302,5.9345,5.9189,5.9099,5.9099,5.9099,5.9099,5.9099,5.9099,5.9099,5.9099,5.9099,5.9099,5.9099,5.9099,0.0,0.0,0.0,0.0,0.0,5.9099,0.0,0.0,0.0,5.9099,5.9099,5.9099,5.9099,5.9099,5.9099,5.9099,5.9099,5.9099,5.9099,5.9099,5.9099,5.9099,5.9099,5.9099,5.9099,5.9099,5.9099,5.9099,5.9099,5.9099,5.9099,5.9099,5.9099,5.9099,5.9099,5.9159,5.9279,5.9279,5.9638,6.0266,6.0266,6.0625,6.1313,6.1852,6.2181,6.2301,6.2839,6.3079,6.3079,6.3079,6.3079,6.3079,6.3079,6.3079,6.3079,6.3079,6.3079,6.3079,6.3079,6.3079,6.3079,6.3079,6.3079,6.3079,6.3079,6.3079,6.3079,6.3079,6.3079,6.2959,6.2421,6.2271,6.2151,6.1613,6.1493,6.1463,6.1343,6.1313,6.1253,6.1134,6.1104,6.0775,5.9668,5.9368,5.9279,5.9279,5.9189,5.9099,5.9099,5.9099,5.9099,5.9099,5.9099,5.9099,5.9099,5.9099,5.9099,5.9099,5.9099,5.9099,5.9099,5.9099,5.9099,5.9099,5.9099,5.9099,5.9099,5.9099,5.9099,5.9099,5.9099,5.9099,0.0,0.0,0.0,0.0,5.9099,0.0,0.0,0.0,5.9099,5.9099,0.0,5.9099,5.9099,0.0,0.0,5.9099,5.9099,5.9099,5.9099,5.9099,5.9099,5.9099,5.9099,5.9099,5.9099,5.9099,5.9099,5.9099,5.9099,5.9099,5.9099,5.9099,5.9099,5.9099,5.9099,5.9398,5.9967,5.9967,6.0326,6.1014,6.1014,6.1343,6.2002,6.2061,6.2421,6.2959,6.3049,6.3079,6.3079,6.3079,6.3079,6.3079,6.3079,6.3079,6.3079,6.3079,6.3079,6.3079,6.3079,6.3079,6.3079,6.3079,6.3079,6.3079,6.3079,6.3079,6.3079,6.3079,6.3079,6.3049,6.2989,6.2959,6.2959,6.2869,6.2839,6.269,6.2121,6.2002,6.1822,6.1224,6.1104,6.1074,6.0924,6.0386,5.9967,5.9967,5.9488,5.9099,5.9099,5.9099,5.9099,5.9099,5.9099,5.9099,5.9099,5.9099,5.9099,5.9099,5.9099,5.9099,5.9099,5.9099,5.9099,5.9099,5.9099,5.9099,5.9099,5.9099,5.9099,5.9099,5.9099,5.9099,0.0,0.0,0.0,0.0,0.0,0.0,5.9668,0.0,5.9099,0.0,0.0,0.0,0.0,0.0,0.0,0.0,5.9099,5.9099,5.9099,5.9099,5.9099,5.9099,5.9099,5.9099,5.9099,5.9099,5.9099,5.9099,5.9099,5.9099,5.9099,5.9099,5.9099,5.9099,5.9488,5.9817,6.0086,6.0475,6.1014,6.1672,6.1672,6.2032,6.266,6.266,6.281,6.3079,6.3079,6.3079,6.3079,6.3079,6.3079,6.3079,6.3079,6.3079,6.3079,6.3079,6.3079,6.3079,6.3079,6.3079,6.3079,6.3079,6.3079,6.3079,6.3079,6.3079,6.3079,6.3079,6.3079,6.3079,6.3079,6.3079,6.3079,6.3079,6.3079,6.2989,6.272,6.266,6.26,6.2301,6.2241,6.2241,6.2241,6.1373,6.0685,6.0685,6.0446,6.0266,6.0266,5.9907,5.9668,5.9668,5.9338,5.9099,5.9099,5.9099,5.9099,5.9099,5.9099,5.9099,5.9099,5.9099,5.9099,5.9099,5.9099,5.9099,5.9099,5.9099,5.9099,5.9099,5.9099,5.9099,6.1553,0.0,0.0,0.0,0.0,0.0,0.0,0.0,0.0,0.0,0.0,0.0,0.0,0.0,5.9099,5.9099,0.0,5.9099,5.9099,5.9099,5.9099,5.9099,5.9099,5.9099,5.9099,5.9099,5.9099,5.9099,5.9099,5.9099,5.9099,5.9279,5.9368,5.9368,6.0027,6.0446,6.0625,6.1134,6.1702,6.2361,6.2361,6.26,6.3079,6.3079,6.3079,6.3079,6.3079,6.3079,6.3079,6.3079,6.3079,6.3079,6.3079,6.3079,6.3079,6.3079,6.3079,6.3079,6.3079,6.3079,6.3079,6.3079,6.3079,6.3079,6.3079,6.3079,6.3079,6.3079,6.3079,6.3079,6.3079,6.3079,6.3079,6.3079,6.3079,6.3079,6.3079,6.3079,6.3079,6.3079,6.3079,6.3079,6.3079,6.2121,6.1373,6.1373,6.1224,6.1104,6.1104,6.0685,6.0356,6.0356,5.9937,5.9668,5.9668,5.9488,5.9308,5.9129,5.9099,5.9099,5.9099,5.9099,5.9099,5.9099,5.9099,5.9099,5.9099,5.9099,5.9099,5.9099,5.9099,5.9099,0.0,0.0,0.0,6.1283,0.0,0.0,0.0,0.0,6.0864,0.0,0.0,0.0,0.0,5.9099,5.9099,5.9099,5.9099,0.0,0.0,5.9099,5.9099,5.9099,5.9099,5.9099,5.9099,5.9099,5.9099,5.9099,5.9099,5.9099,5.9099,5.9697,6.0057,6.0057,6.0715,6.1373,6.2032,6.2061,6.2391,6.3049,6.3049,6.3049,6.3079,6.3079,6.3079,6.3079,6.3079,6.3079,6.3079,6.3079,6.3079,6.3079,6.3079,6.3079,6.3079,6.3079,6.3079,6.3079,6.3079,6.3079,6.3079,6.3079,6.3079,6.3079,6.3079,6.3079,6.3079,6.3079,6.3079,6.3079,6.3079,6.3079,6.3079,6.3079,6.3079,6.3079,6.3079,6.3079,6.3079,6.3079,6.3079,6.3079,6.3079,6.251,6.2061,6.2061,6.1523,6.1104,6.1104,6.1104,6.1074,6.1074,6.1074,6.1044,6.1044,6.0446,5.9787,5.9129,5.9099,5.9099,5.9099,5.9099,5.9099,5.9099,5.9099,5.9099,5.9099,5.9099,5.9099,5.9099,5.9099,5.9099,6.281,6.275,6.269,6.248,0.0,0.0,0.0,0.0,0.0,0.0,0.0,0.0,0.0,6.0446,6.0296,5.9817,5.9757,5.9608,0.0,5.9099,5.9099,5.9099,5.9099,5.9099,5.9099,5.9099,5.9099,5.9099,5.9099,5.9279,5.9727,5.9967,6.0296,6.0745,6.1403,6.1882,6.2091,6.254,6.2869,6.3079,6.3079,6.3079,6.3079,6.3079,6.3079,6.3079,6.3079,6.3079,6.3079,6.3079,6.3079,6.3079,6.3079,6.3079,6.3079,6.3079,6.3079,6.3079,6.3079,6.3079,6.3079,6.3079,6.3079,6.3079,6.3079,6.3079,6.3079,6.3079,6.3079,6.3079,6.3079,6.3079,6.3079,6.3079,6.3079,6.3079,6.3079,6.3079,6.3079,6.3079,6.3079,6.3079,6.3079,6.2899,6.275,6.275,6.257,6.2421,6.2421,6.2032,6.1762,6.1762,6.1373,6.1104,6.1104,6.0894,6.0526,5.9765,5.9705,5.9585,5.9129,5.9099,5.9099,5.9099,5.9099,5.9099,5.9099,5.9099,5.9099,5.9099,5.9099,5.9099,6.3079,6.3079,6.3079,6.3079,6.275,0.0,6.245,0.0,6.1732,0.0,0.0,0.0,0.0,6.1104,6.0954,6.0535,6.0446,6.0206,0.0,5.9458,5.9368,5.9129,5.9099,5.9099,5.9099,5.9099,5.9189,5.9428,5.9458,5.9757,6.0416,6.0685,6.1014,6.1433,6.2091,6.245,6.245,6.2869,6.3079,6.3079,6.3079,6.3079,6.3079,6.3079,6.3079,6.3079,6.3079,6.3079,6.3079,6.3079,6.3079,6.3079,6.3079,6.3079,6.2963,6.3079,6.3079,6.3079,6.2963,6.2963,6.2963,6.2817,6.2847,6.2847,6.2847,6.2847,6.2847,6.2847,6.2847,6.2963,6.2963,6.2963,6.3079,6.3079,6.3079,6.3079,6.3079,6.3079,6.3079,6.3079,6.3079,6.3079,6.3079,6.3079,6.3079,6.3079,6.3079,6.3079,6.3079,6.272,6.245,6.245,6.2061,6.1702,6.1493,6.1463,6.1216,6.0486,6.0464,6.0223,5.9874,5.9615,5.9417,5.9417,5.9189,5.9099,5.9099,5.9099,5.9099,5.9099,5.9099,5.9099]},{"header":{"parameterUnit":"m.s-1","parameterCategory":1,"la1":30.6,"la2":29.2853,"lo1":-89.7004,"lo2":-87.6739,"dy":0.0162,"dx":0.0183,"nx":112,"ny":82,"refTime":"2024-02-01T06:00:00:Z","depth":0,"parameterNumber":3,"parameterNumberName":"V-component_of_WINDS"},"data":[0.0,0.0,0.0,0.0,0.0,0.0,0.0,0.0,0.0,0.0,0.0,0.0,0.0,0.0,0.0,0.0,0.0,0.0,0.0,0.0,0.0,0.0,0.0,0.0,0.0,0.0,0.0,0.0,0.0,0.0,0.0,0.0,0.0,0.0,0.0,0.0,0.0,0.0,0.0,0.0,0.0,0.0,0.0,0.0,0.0,0.0,0.0,0.0,0.0,0.0,0.0,0.0,0.0,0.0,0.0,0.0,0.0,0.0,0.0,0.0,0.0,0.0,0.0,0.0,0.0,0.0,0.0,0.0,0.0,0.0,0.0,0.0,0.0,0.0,0.0,0.0,0.0,0.0,0.0,0.0,0.0,0.0,0.0,0.0,0.0,0.0,0.0,0.0,0.0,0.0,0.0,-1.9322,-1.9399,-1.9359,-1.9359,-1.9359,-1.9359,-1.9345,0.0,0.0,0.0,0.0,0.0,0.0,0.0,0.0,0.0,0.0,0.0,0.0,0.0,0.0,0.0,0.0,0.0,0.0,0.0,0.0,0.0,0.0,0.0,0.0,0.0,0.0,0.0,0.0,0.0,0.0,0.0,0.0,0.0,0.0,0.0,0.0,0.0,0.0,0.0,0.0,0.0,0.0,0.0,0.0,0.0,0.0,0.0,0.0,0.0,0.0,0.0,0.0,0.0,0.0,0.0,0.0,0.0,0.0,0.0,0.0,0.0,0.0,0.0,0.0,0.0,0.0,0.0,0.0,0.0,0.0,0.0,0.0,0.0,0.0,0.0,0.0,0.0,0.0,0.0,0.0,0.0,0.0,0.0,0.0,0.0,0.0,0.0,0.0,0.0,0.0,0.0,0.0,0.0,0.0,0.0,0.0,0.0,0.0,0.0,0.0,0.0,0.0,0.0,0.0,-1.9206,-1.9386,-1.9372,-1.9345,-1.9435,-1.9435,-1.9408,-1.9381,0.0,0.0,0.0,0.0,0.0,0.0,0.0,0.0,0.0,0.0,0.0,0.0,0.0,0.0,0.0,0.0,0.0,0.0,0.0,0.0,0.0,0.0,0.0,0.0,0.0,0.0,0.0,0.0,0.0,0.0,0.0,0.0,0.0,0.0,0.0,0.0,0.0,0.0,0.0,0.0,0.0,0.0,0.0,0.0,0.0,0.0,0.0,0.0,0.0,0.0,0.0,0.0,0.0,0.0,0.0,0.0,0.0,0.0,0.0,0.0,0.0,0.0,0.0,0.0,0.0,0.0,0.0,0.0,0.0,0.0,0.0,0.0,0.0,0.0,0.0,0.0,0.0,0.0,0.0,0.0,0.0,0.0,0.0,0.0,0.0,0.0,0.0,0.0,0.0,0.0,0.0,0.0,0.0,0.0,0.0,0.0,0.0,0.0,0.0,0.0,0.0,0.0,0.0,-1.905,-1.9399,-1.9372,-1.9345,-1.9435,-1.9381,-2.0012,-2.0385,-2.0357,-2.0428,0.0,0.0,0.0,0.0,0.0,0.0,0.0,0.0,0.0,0.0,0.0,0.0,0.0,0.0,0.0,0.0,0.0,0.0,0.0,0.0,0.0,0.0,0.0,0.0,0.0,0.0,0.0,0.0,0.0,0.0,0.0,0.0,0.0,0.0,0.0,0.0,0.0,0.0,0.0,0.0,0.0,0.0,0.0,0.0,0.0,0.0,0.0,0.0,0.0,0.0,0.0,0.0,0.0,0.0,0.0,0.0,0.0,0.0,0.0,0.0,0.0,0.0,0.0,0.0,0.0,0.0,0.0,0.0,0.0,0.0,0.0,0.0,0.0,0.0,0.0,0.0,0.0,0.0,0.0,0.0,0.0,0.0,0.0,0.0,0.0,0.0,0.0,0.0,0.0,0.0,0.0,0.0,0.0,0.0,0.0,0.0,0.0,0.0,0.0,0.0,0.0,0.0,-1.9372,-1.9345,-1.9345,-1.9421,-1.9496,-1.9814,-2.096,-2.1606,-2.1591,-2.1391,0.0,0.0,0.0,0.0,0.0,0.0,0.0,0.0,0.0,0.0,0.0,0.0,0.0,0.0,0.0,0.0,0.0,0.0,0.0,0.0,0.0,0.0,0.0,0.0,0.0,0.0,0.0,0.0,0.0,0.0,0.0,0.0,0.0,0.0,0.0,0.0,0.0,0.0,0.0,0.0,0.0,0.0,0.0,0.0,0.0,0.0,0.0,0.0,0.0,0.0,0.0,0.0,0.0,0.0,0.0,0.0,0.0,0.0,0.0,0.0,0.0,0.0,0.0,0.0,0.0,0.0,0.0,0.0,0.0,0.0,0.0,0.0,0.0,0.0,0.0,0.0,0.0,0.0,0.0,0.0,0.0,0.0,0.0,0.0,0.0,0.0,0.0,0.0,0.0,0.0,0.0,0.0,0.0,0.0,0.0,0.0,0.0,0.0,0.0,0.0,0.0,0.0,-1.9448,-1.9421,-1.9421,-1.9354,-1.9887,-2.0987,-2.2146,-2.2906,-2.2859,-2.1789,0.0,0.0,0.0,0.0,0.0,0.0,0.0,0.0,0.0,0.0,0.0,0.0,0.0,0.0,0.0,0.0,0.0,0.0,0.0,0.0,0.0,0.0,0.0,0.0,0.0,0.0,0.0,0.0,0.0,0.0,0.0,0.0,0.0,0.0,0.0,0.0,0.0,0.0,0.0,0.0,0.0,0.0,0.0,0.0,0.0,0.0,0.0,0.0,0.0,0.0,0.0,0.0,0.0,0.0,0.0,0.0,0.0,0.0,0.0,0.0,0.0,0.0,0.0,0.0,0.0,0.0,0.0,0.0,0.0,0.0,0.0,0.0,0.0,0.0,0.0,0.0,0.0,0.0,0.0,0.0,0.0,0.0,0.0,0.0,0.0,0.0,0.0,0.0,0.0,0.0,0.0,0.0,0.0,0.0,0.0,0.0,0.0,0.0,0.0,0.0,0.0,0.0,-1.9435,-1.9666,0.0,-2.0544,-2.0972,-2.2266,-2.344,-2.4102,-2.4086,0.0,0.0,0.0,0.0,0.0,0.0,0.0,0.0,0.0,0.0,0.0,0.0,0.0,0.0,0.0,0.0,0.0,0.0,0.0,0.0,0.0,0.0,0.0,0.0,0.0,0.0,0.0,0.0,0.0,0.0,0.0,0.0,0.0,0.0,0.0,0.0,0.0,0.0,0.0,0.0,0.0,0.0,0.0,0.0,0.0,0.0,0.0,0.0,0.0,0.0,0.0,0.0,0.0,0.0,0.0,0.0,0.0,0.0,0.0,0.0,0.0,0.0,0.0,0.0,0.0,0.0,0.0,0.0,0.0,0.0,0.0,0.0,0.0,0.0,0.0,0.0,0.0,0.0,0.0,0.0,0.0,0.0,0.0,0.0,0.0,0.0,0.0,0.0,0.0,0.0,0.0,0.0,0.0,0.0,0.0,0.0,0.0,0.0,0.0,0.0,0.0,0.0,-1.9421,-1.9781,-2.0256,0.0,-2.1517,-2.2281,-2.3472,-2.4648,-2.5181,-2.4794,0.0,0.0,0.0,0.0,0.0,0.0,0.0,0.0,0.0,0.0,0.0,0.0,0.0,0.0,0.0,0.0,0.0,0.0,0.0,0.0,0.0,0.0,0.0,0.0,0.0,0.0,0.0,0.0,0.0,0.0,0.0,0.0,0.0,0.0,0.0,0.0,0.0,0.0,0.0,0.0,0.0,0.0,0.0,0.0,0.0,0.0,0.0,0.0,0.0,0.0,0.0,0.0,0.0,0.0,0.0,0.0,0.0,0.0,0.0,0.0,0.0,0.0,0.0,0.0,0.0,0.0,0.0,0.0,0.0,0.0,0.0,0.0,0.0,0.0,0.0,0.0,0.0,0.0,0.0,0.0,0.0,0.0,0.0,0.0,0.0,0.0,0.0,0.0,0.0,0.0,0.0,0.0,0.0,0.0,0.0,0.0,0.0,0.0,0.0,0.0,0.0,0.0,-1.9421,-2.0486,-2.1218,-2.1203,-2.2343,-2.3488,-2.4709,-2.5945,-2.6074,0.0,0.0,0.0,0.0,0.0,0.0,0.0,0.0,0.0,0.0,0.0,0.0,0.0,0.0,0.0,0.0,0.0,0.0,0.0,0.0,0.0,0.0,0.0,0.0,0.0,0.0,0.0,0.0,0.0,0.0,0.0,0.0,0.0,0.0,0.0,0.0,0.0,0.0,0.0,0.0,0.0,0.0,0.0,0.0,0.0,0.0,0.0,0.0,0.0,0.0,0.0,0.0,0.0,0.0,0.0,0.0,0.0,0.0,0.0,0.0,0.0,0.0,0.0,0.0,0.0,0.0,0.0,0.0,0.0,0.0,0.0,0.0,0.0,0.0,0.0,0.0,0.0,0.0,0.0,0.0,0.0,0.0,0.0,0.0,0.0,0.0,0.0,0.0,0.0,0.0,0.0,0.0,0.0,0.0,0.0,0.0,0.0,0.0,0.0,0.0,0.0,0.0,0.0,-2.0615,-2.0989,-2.1576,-2.2389,-2.2812,-2.3472,-2.4718,-2.5874,-2.6388,-2.6131,0.0,0.0,0.0,0.0,0.0,0.0,0.0,0.0,0.0,0.0,0.0,0.0,0.0,0.0,0.0,0.0,0.0,0.0,0.0,0.0,0.0,0.0,0.0,0.0,0.0,0.0,0.0,0.0,0.0,0.0,0.0,0.0,0.0,0.0,0.0,0.0,0.0,0.0,0.0,0.0,0.0,0.0,0.0,0.0,0.0,0.0,0.0,0.0,0.0,0.0,0.0,0.0,0.0,0.0,0.0,0.0,0.0,0.0,0.0,0.0,0.0,0.0,0.0,0.0,0.0,0.0,0.0,0.0,0.0,0.0,0.0,0.0,0.0,0.0,0.0,0.0,0.0,0.0,0.0,0.0,0.0,0.0,0.0,0.0,0.0,0.0,0.0,0.0,0.0,0.0,0.0,0.0,0.0,0.0,0.0,0.0,0.0,0.0,0.0,0.0,0.0,0.0,-2.1089,-2.1576,-2.2017,-2.2281,-2.2702,-2.3487,-2.4727,-2.597,-2.6628,-2.6555,0.0,0.0,0.0,0.0,0.0,0.0,0.0,0.0,0.0,0.0,0.0,0.0,0.0,0.0,0.0,0.0,0.0,0.0,0.0,0.0,0.0,0.0,0.0,0.0,0.0,0.0,0.0,0.0,0.0,0.0,0.0,0.0,0.0,0.0,0.0,0.0,0.0,0.0,0.0,0.0,0.0,0.0,0.0,0.0,0.0,0.0,0.0,0.0,0.0,0.0,0.0,0.0,0.0,0.0,0.0,0.0,0.0,0.0,0.0,0.0,0.0,0.0,0.0,0.0,0.0,0.0,0.0,0.0,0.0,0.0,0.0,0.0,0.0,0.0,0.0,0.0,0.0,0.0,0.0,0.0,0.0,0.0,0.0,0.0,0.0,0.0,0.0,0.0,0.0,0.0,0.0,0.0,0.0,0.0,0.0,0.0,0.0,0.0,0.0,0.0,0.0,0.0,-2.1318,-2.226,-2.2539,-2.1519,-2.2448,-2.3612,-2.4861,-2.6082,-2.6719,-2.6792,0.0,0.0,0.0,0.0,0.0,0.0,0.0,0.0,0.0,0.0,0.0,0.0,0.0,0.0,0.0,0.0,0.0,0.0,0.0,0.0,0.0,0.0,0.0,0.0,0.0,0.0,0.0,0.0,0.0,0.0,0.0,0.0,0.0,0.0,0.0,0.0,0.0,0.0,0.0,0.0,0.0,0.0,0.0,0.0,0.0,0.0,0.0,0.0,0.0,0.0,0.0,0.0,0.0,0.0,0.0,0.0,0.0,0.0,0.0,0.0,-1.9591,0.0,0.0,0.0,0.0,0.0,0.0,0.0,0.0,0.0,0.0,0.0,0.0,0.0,0.0,0.0,0.0,0.0,0.0,0.0,0.0,0.0,0.0,0.0,0.0,0.0,0.0,0.0,0.0,0.0,0.0,0.0,0.0,0.0,0.0,0.0,0.0,0.0,0.0,0.0,0.0,0.0,-2.2456,-2.2828,-2.2893,-2.2688,-2.3694,-2.4923,-2.6172,-2.7303,-2.7924,-2.7905,-2.6899,0.0,0.0,0.0,0.0,0.0,0.0,0.0,0.0,0.0,0.0,0.0,0.0,0.0,0.0,0.0,0.0,0.0,0.0,0.0,0.0,0.0,0.0,0.0,0.0,0.0,0.0,0.0,0.0,0.0,0.0,0.0,0.0,0.0,0.0,0.0,0.0,0.0,0.0,0.0,0.0,0.0,0.0,0.0,0.0,0.0,0.0,0.0,0.0,0.0,0.0,0.0,0.0,0.0,0.0,0.0,0.0,0.0,0.0,0.0,0.0,-2.004,0.0,0.0,0.0,0.0,0.0,0.0,0.0,0.0,0.0,0.0,0.0,0.0,0.0,0.0,0.0,0.0,0.0,0.0,0.0,0.0,0.0,0.0,0.0,0.0,0.0,0.0,0.0,0.0,0.0,0.0,0.0,0.0,0.0,0.0,0.0,0.0,0.0,0.0,0.0,0.0,-2.2877,-2.3488,-2.3809,-2.3834,-2.4982,-2.5952,-2.6536,-2.7663,-2.83,-2.828,-2.7758,0.0,0.0,0.0,0.0,0.0,0.0,0.0,0.0,0.0,0.0,0.0,0.0,0.0,0.0,0.0,0.0,0.0,0.0,0.0,0.0,0.0,0.0,0.0,0.0,0.0,0.0,0.0,0.0,0.0,0.0,0.0,0.0,0.0,0.0,0.0,0.0,0.0,0.0,0.0,0.0,0.0,0.0,0.0,0.0,0.0,0.0,0.0,0.0,0.0,0.0,0.0,0.0,0.0,-2.4351,-2.3983,-2.3424,-2.3311,-2.2974,-2.241,-2.1729,-2.1288,-2.0945,-2.0945,0.0,0.0,0.0,0.0,0.0,0.0,0.0,0.0,0.0,0.0,0.0,0.0,0.0,0.0,0.0,0.0,0.0,0.0,0.0,0.0,0.0,0.0,0.0,0.0,-2.63,-2.5753,-2.4094,0.0,0.0,0.0,0.0,0.0,0.0,0.0,0.0,0.0,0.0,0.0,-2.3295,-2.4384,-2.5069,-2.5099,-2.6136,-2.6865,-2.6844,-2.7733,-2.828,-2.8319,-2.8263,-2.8473,0.0,0.0,0.0,0.0,0.0,0.0,0.0,0.0,0.0,0.0,0.0,0.0,0.0,0.0,0.0,0.0,0.0,0.0,0.0,0.0,0.0,0.0,0.0,0.0,0.0,0.0,0.0,0.0,0.0,0.0,0.0,0.0,-3.1199,-3.0102,0.0,0.0,0.0,0.0,0.0,0.0,0.0,0.0,0.0,0.0,0.0,0.0,0.0,-2.7295,-2.6994,-2.6875,-2.6715,-2.6287,-2.5931,-2.5533,-2.4889,-2.4667,-2.4223,-2.3664,-2.4111,0.0,-2.1972,-2.1972,0.0,0.0,0.0,0.0,0.0,0.0,0.0,0.0,0.0,0.0,0.0,0.0,0.0,0.0,0.0,0.0,0.0,0.0,0.0,0.0,0.0,0.0,-2.6881,-2.7206,-2.7098,-2.6772,0.0,-2.5771,-2.511,-2.4556,-2.4094,0.0,0.0,0.0,0.0,0.0,0.0,0.0,-2.4378,-2.5639,-2.6336,-2.6354,-2.7446,-2.809,-2.8134,-2.8153,-2.8267,-2.8347,-2.8293,-2.893,-3.0549,-3.0589,0.0,0.0,0.0,0.0,0.0,0.0,0.0,0.0,0.0,0.0,0.0,0.0,0.0,0.0,0.0,0.0,0.0,0.0,0.0,0.0,0.0,0.0,0.0,0.0,0.0,0.0,0.0,0.0,0.0,-3.2572,-3.1847,-3.129,-3.0677,-3.0157,0.0,0.0,0.0,0.0,0.0,0.0,0.0,0.0,0.0,-2.86,-2.86,-2.8419,-2.8253,-2.7967,-2.7676,-2.7493,-2.7066,-2.6645,-2.6209,-2.61,-2.5771,-2.5441,-2.5661,-2.5436,-2.494,-2.3954,-2.3536,-2.3311,0.0,0.0,0.0,0.0,-2.2974,-2.3871,-2.4094,-2.465,0.0,-2.5093,0.0,0.0,0.0,0.0,0.0,0.0,0.0,0.0,0.0,0.0,-2.753,-2.7853,-2.7853,-2.7745,-2.7745,-2.7422,-2.6881,0.0,-2.5313,-2.4616,-2.3805,0.0,0.0,0.0,0.0,-2.4411,-2.5697,-2.6811,-2.7578,-2.7616,-2.8038,-2.8301,-2.8309,-2.9205,-2.9734,-2.9721,-2.9785,-3.0074,-3.0837,-3.0923,-3.0908,0.0,0.0,0.0,0.0,0.0,0.0,0.0,0.0,0.0,0.0,0.0,0.0,0.0,0.0,0.0,0.0,0.0,0.0,0.0,0.0,0.0,0.0,0.0,0.0,0.0,0.0,0.0,0.0,-3.2695,-3.2168,-3.2168,-3.1406,-3.0762,0.0,0.0,0.0,0.0,0.0,0.0,-2.9468,-2.9468,-2.9468,-2.9468,-2.9468,-2.9418,-2.9351,-2.8917,-2.8615,-2.8439,-2.8,-2.7701,-2.7375,-2.7375,-2.7322,-2.7196,-2.7178,-2.7363,-2.7605,-2.6074,-2.543,-2.5405,-2.449,-2.4378,-2.4603,-2.4265,-2.4715,-2.5611,-2.5851,-2.6224,-2.6573,-2.6573,-2.65,-2.6318,-2.6008,0.0,0.0,0.0,0.0,-2.6971,-2.7422,-2.7745,-2.8067,-2.8281,-2.8301,-2.8301,-2.8301,-2.8301,-2.8067,0.0,-2.6445,-2.599,-2.5388,0.0,0.0,0.0,0.0,-2.5643,-2.6902,-2.7815,-2.8295,-2.8301,-2.8713,-2.8925,-2.8952,-3.0162,-3.085,-3.095,-3.0943,-3.0853,-3.0853,-3.0878,-3.0898,-3.0898,0.0,0.0,0.0,0.0,0.0,0.0,0.0,0.0,0.0,0.0,0.0,0.0,0.0,0.0,0.0,0.0,0.0,0.0,0.0,0.0,0.0,0.0,0.0,0.0,0.0,0.0,0.0,0.0,0.0,-3.2168,-3.1406,0.0,0.0,0.0,0.0,-3.0879,-3.0762,-3.0762,-3.0782,-3.0762,-3.0762,-3.0762,-3.0762,-3.0762,-3.0743,-3.0276,-2.9961,-2.9531,-2.9101,-2.8668,-2.8468,-2.8468,-2.8458,-2.8596,-2.884,-2.8971,-2.8952,-2.7605,-2.7118,-2.7236,-2.7236,-2.7007,-2.6761,-2.7122,-2.7332,-2.7673,-2.8032,-2.8127,-2.8028,-2.8028,-2.7525,-2.6881,-2.6663,-2.6772,0.0,0.0,-2.7422,-2.7853,-2.7853,-2.8067,-2.8301,-2.8301,-2.8301,-2.8301,-2.8301,-2.8301,-2.8174,0.0,-2.7949,-2.779,-2.6682,0.0,-2.6391,-2.6391,-2.6464,-2.6918,-2.8045,-2.8295,-2.8301,-2.8353,-2.9747,-3.077,-3.075,-3.0903,-3.0948,-3.0937,-3.0859,-3.0859,-3.0859,-3.0879,-3.0898,-3.0898,-3.0917,0.0,0.0,0.0,0.0,0.0,0.0,0.0,0.0,0.0,0.0,0.0,0.0,0.0,0.0,0.0,0.0,0.0,0.0,0.0,0.0,0.0,0.0,0.0,0.0,0.0,0.0,0.0,0.0,-3.2168,-3.1406,0.0,-3.0898,-3.0898,-3.0898,-3.0898,-3.0898,-3.0898,-3.0898,-3.0898,-3.0898,-3.0898,-3.0898,-3.0898,-3.0898,-3.043,-3.0117,-2.9961,-2.9531,-2.9336,-2.9244,-2.9244,-2.9211,-2.9234,-2.9346,-2.9614,-2.9734,-2.9353,-2.888,-2.8446,-2.8087,-2.7974,-2.8087,-2.7974,-2.8201,-2.8653,-2.8785,-2.8914,-2.9133,-2.9133,-2.8906,-2.8622,-2.8224,-2.8148,-2.8199,-2.793,-2.796,-2.8174,-2.8174,-2.8194,-2.8301,-2.8301,-2.8301,-2.8301,-2.8301,-2.8301,-2.8281,-2.8048,-2.8252,-2.8183,-2.7803,-2.7644,-2.7701,-2.7701,-2.7733,-2.779,-2.8295,-2.8243,-2.8732,-2.9839,-3.0492,-3.0903,-3.0915,-3.0935,-3.0878,-3.0879,-3.0898,-3.0898,-3.0898,-3.0898,-3.0859,-3.0917,-3.0895,-3.1471,0.0,0.0,0.0,0.0,0.0,0.0,0.0,0.0,0.0,0.0,0.0,0.0,0.0,0.0,0.0,0.0,0.0,0.0,0.0,0.0,0.0,0.0,0.0,0.0,0.0,0.0,-3.2168,-3.2168,-3.1406,-3.0898,-3.0898,-3.0898,-3.0898,-3.0898,-3.0898,-3.0898,-3.0898,-3.0898,-3.0898,-3.0898,-3.0898,-3.0898,-3.0898,-3.0586,-3.0351,-3.0195,-2.9922,-2.9785,-2.9785,-2.9785,-2.9863,-3.0019,-3.0019,-3.0176,-3.043,-3.043,-3.0159,-2.9679,-2.9317,-2.9336,-2.9451,-2.9203,-2.9451,-2.9659,-2.9505,-2.9672,-2.9766,-2.9609,-2.957,-2.9512,-2.9219,-2.9141,-2.9082,-2.8809,-2.873,-2.873,-2.873,-2.873,-2.8691,-2.8535,-2.8516,-2.8584,-2.832,-2.8272,-2.8349,-2.8349,-2.8291,-2.834,-2.834,-2.8291,-2.8261,-2.825,-2.8339,-2.8308,-2.8325,-2.8848,-2.959,-3.075,-3.0928,-3.0876,-3.0879,-3.0898,-3.0898,-3.0898,-3.0898,-3.0898,-3.0898,-3.0898,-3.0859,-3.0878,-3.1721,-3.2767,-3.3909,0.0,0.0,0.0,0.0,0.0,0.0,0.0,0.0,0.0,0.0,0.0,0.0,0.0,0.0,0.0,0.0,0.0,0.0,0.0,0.0,0.0,0.0,0.0,-3.3418,-3.2695,-3.2168,-3.2168,-3.1406,-3.0898,-3.0898,-3.0898,-3.0898,-3.0898,-3.0898,-3.0898,-3.0898,-3.0898,-3.0898,-3.0898,-3.0898,-3.0898,-3.0898,-3.0898,-3.0664,-3.0215,-3.0215,-3.0215,-3.0215,-3.0215,-3.0469,-3.0898,-3.0898,-3.0898,-3.0898,-3.0898,-3.0898,-3.0898,-3.0898,-3.0898,-3.0898,-3.0898,-3.0898,-3.082,-3.0371,-3.0215,-3.0156,-2.9746,-2.9609,-2.9609,-2.959,-2.959,-2.959,-2.957,-2.957,-2.957,-2.957,-2.957,-2.9473,-2.9043,-2.9074,-2.8996,-2.8418,-2.8358,-2.8353,-2.8372,-2.8339,-2.834,-2.832,-2.832,-2.831,-2.8295,-2.8353,0.0,-2.835,-2.9809,-3.0943,-3.0849,-3.0915,-3.0898,-3.0898,-3.0898,-3.0898,-3.0898,-3.0898,-3.0898,-3.0898,-3.0879,-3.0956,-3.0994,-3.3296,-3.5113,-3.6333,0.0,0.0,0.0,0.0,0.0,0.0,0.0,0.0,0.0,0.0,0.0,0.0,0.0,0.0,0.0,0.0,0.0,0.0,0.0,0.0,0.0,0.0,-3.3418,-3.3418,-3.2695,-3.2168,-3.2168,-3.1406,-3.0898,-3.0898,-3.0898,-3.0898,-3.0898,-3.0898,-3.0898,-3.0898,-3.0898,-3.0898,-3.0898,-3.0898,-3.0898,-3.0898,-3.0898,-3.082,-3.0703,-3.0703,-3.0703,-3.0703,-3.0703,-3.0762,-3.0898,-3.0898,-3.0898,-3.0898,-3.0898,-3.0898,-3.0898,-3.0898,-3.0898,-3.0898,-3.0898,-3.0898,-3.0879,-3.0742,-3.0703,-3.0684,-3.0566,-3.0527,-3.0469,-3.0117,-3.0019,-2.9961,-2.9478,-2.9269,-2.94,-2.9551,-2.957,-2.9551,-2.9414,-2.8945,-2.8477,-2.8363,-2.829,-2.8665,-2.9976,-3.0178,-2.9798,-2.8492,-2.8325,-2.8363,-2.8328,-2.9394,-3.0155,-3.0133,-3.0576,-3.0928,-3.0954,-3.0956,-3.0898,-3.0898,-3.0898,-3.0898,-3.0898,-3.0898,-3.0898,-3.0898,-3.0956,-3.1281,-3.2148,-3.4558,-3.6351,0.0,0.0,0.0,0.0,0.0,0.0,0.0,0.0,0.0,0.0,0.0,0.0,0.0,0.0,0.0,0.0,0.0,0.0,0.0,0.0,0.0,0.0,-3.3418,-3.3418,-3.3418,-3.2851,-3.2363,-3.2187,-3.1562,-3.1094,-3.0918,-3.0898,-3.0898,-3.0898,-3.0898,-3.0898,-3.0898,-3.0898,-3.0898,-3.0898,-3.0898,-3.0898,-3.0898,-3.0898,-3.0898,-3.0898,-3.0898,-3.0898,-3.0898,-3.0898,-3.0898,-3.0898,-3.0898,-3.0898,-3.0898,-3.0898,-3.0898,0.0,0.0,0.0,0.0,0.0,-3.0898,-3.0898,-3.0898,-3.0898,-3.0898,-3.0898,-3.0898,-3.084,-3.0566,-3.0488,-3.043,-3.0023,-2.9945,-2.9964,-3.0117,-3.0117,-3.0078,-3.0167,-2.9805,-2.918,-2.8426,-2.8821,-2.9672,-3.0717,-3.0897,0.0,-2.9526,-2.937,-2.9346,-2.935,-3.028,-3.0897,-3.0892,-3.0932,-3.0895,-3.0879,-3.0898,-3.0898,-3.0898,-3.0898,0.0,0.0,0.0,-3.0879,-3.0956,-3.1381,0.0,0.0,0.0,-3.7581,-3.8669,-3.8664,0.0,0.0,-3.8345,-3.8713,0.0,0.0,0.0,0.0,0.0,0.0,0.0,0.0,0.0,0.0,0.0,0.0,0.0,0.0,0.0,0.0,-3.3418,-3.3418,-3.3418,-3.3105,-3.2695,-3.2226,-3.1777,-3.1348,-3.0937,-3.0898,-3.0898,-3.0898,-3.0898,-3.0898,-3.0898,0.0,0.0,0.0,0.0,-3.0898,-3.0898,-3.0898,-3.0898,-3.0898,-3.0898,-3.0898,-3.0898,-3.0898,-3.0898,-3.0898,-3.0898,-3.0898,-3.0898,-3.0898,-3.0898,-3.0898,-3.0898,-3.0898,-3.0898,-3.0898,-3.0898,-3.0898,-3.0898,0.0,0.0,-3.0898,-3.0898,-3.0898,-3.0898,-3.0898,-3.0898,-3.0898,-3.0898,-3.0898,-3.0898,-3.0898,-3.0937,-3.0853,-3.0888,-3.0482,-2.8897,-2.9848,-3.0888,-3.0888,-3.0915,-3.0898,-3.0898,-3.0869,-3.089,-3.0849,-3.0888,-3.0892,-3.0859,-3.0898,-3.0898,-3.0898,-3.0898,0.0,-3.0898,-3.0898,-3.0898,-3.0898,-3.0898,-3.084,-3.0858,-3.2052,-3.3346,-3.4692,-3.6858,-3.8586,-3.9643,-3.968,-3.974,-3.9719,-3.9735,-3.971,0.0,0.0,0.0,0.0,0.0,0.0,0.0,0.0,0.0,0.0,0.0,0.0,0.0,0.0,0.0,-3.3418,-3.3418,-3.3418,-3.3418,-3.3359,-3.3008,-3.2266,-3.1777,-3.1348,-3.0937,-3.0898,-3.0898,-3.0898,-3.0898,-3.0898,-3.0898,-3.0898,-3.0898,-3.0898,-3.0898,-3.0898,-3.0898,-3.0898,-3.0898,-3.0898,0.0,0.0,-3.0898,-3.0898,-3.0898,-3.0898,-3.0898,-3.0898,-3.0898,-3.0898,-3.0898,-3.0898,-3.0898,-3.0898,-3.0898,-3.0898,-3.0898,-3.0898,-3.0898,-3.0898,-3.0898,-3.0898,-3.0898,-3.0898,-3.0898,-3.0898,0.0,-3.0898,-3.0898,-3.0898,-3.0898,-3.0898,-3.0879,-3.0917,-3.0917,-3.0858,-3.049,-3.0684,-3.0917,-3.0917,-3.084,-3.0898,-3.0898,-3.0897,-3.0954,-3.0897,-3.0917,-3.0937,-3.0879,-3.0898,-3.0898,-3.0898,-3.0898,-3.0898,-3.0898,-3.0898,-3.0898,-3.0898,-3.0898,-3.0897,-3.0912,-3.2044,-3.3733,-3.5927,-3.7261,-3.8534,-3.9715,-3.9719,-3.9747,-3.9722,-3.9744,-3.9744,0.0,0.0,0.0,0.0,0.0,0.0,0.0,0.0,0.0,0.0,0.0,-3.3922,0.0,0.0,-3.367,-3.367,-3.3544,-3.3418,-3.3418,-3.3418,-3.3105,-3.2266,-3.1973,-3.1601,-3.0957,-3.0898,-3.0898,-3.0898,-3.0898,-3.0898,-3.0898,-3.0898,-3.0898,-3.0898,-3.0898,-3.0898,-3.0898,-3.0898,-3.0898,-3.0898,-3.0898,-3.0898,-3.0898,-3.0898,-3.0898,-3.0898,-3.0898,-3.0898,-3.0898,-3.0898,-3.0898,-3.0898,-3.0898,-3.0898,-3.0898,-3.0898,-3.0898,-3.0898,-3.0898,-3.0898,-3.0898,-3.0898,-3.0898,-3.0898,-3.0898,-3.0898,-3.0898,-3.0898,-3.0898,-3.0898,-3.0898,-3.0898,-3.0898,-3.0898,-3.0898,-3.0898,-3.0898,-3.0898,-3.0898,-3.0898,-3.0898,-3.0898,-3.0898,-3.0898,-3.0898,-3.0898,-3.0898,-3.0898,-3.0898,-3.0898,-3.0898,-3.0898,-3.0898,-3.0898,-3.0898,-3.0898,-3.0898,-3.0898,-3.0859,-3.0839,-3.0853,-3.2612,-3.4425,-3.6277,-3.7977,-3.9111,-3.9744,-3.9747,-3.9697,-3.9697,-3.9747,-3.9747,0.0,0.0,0.0,0.0,0.0,0.0,0.0,0.0,-3.5046,-3.4777,-3.4673,-3.4673,-3.4548,-3.4298,-3.4047,-3.4047,-3.3796,-3.3544,-3.3544,-3.3544,-3.3144,-3.2383,-3.2226,-3.1875,-3.1094,-3.0937,-3.0898,-3.0898,-3.0898,-3.0898,-3.0898,-3.0898,-3.0898,-3.0898,-3.0898,-3.0898,-3.0898,-3.0898,-3.0898,-3.0898,-3.0898,-3.0898,-3.0898,-3.0898,-3.0898,-3.0898,-3.0898,-3.0898,-3.0898,-3.0898,-3.0937,-3.1016,-3.1016,-3.1055,-3.1113,-3.0957,-3.0898,-3.0898,-3.0898,-3.0898,-3.0898,-3.0898,-3.0898,-3.0898,-3.0898,-3.0898,-3.0898,-3.0898,-3.0898,-3.0898,-3.0898,-3.0898,-3.0898,-3.0898,-3.0898,-3.0898,-3.0898,-3.0898,-3.0898,-3.0898,-3.0898,-3.0898,-3.0898,-3.0898,-3.0898,-3.0898,-3.0898,-3.0898,-3.0898,-3.0898,-3.0898,-3.0898,-3.0898,-3.0898,-3.0898,-3.0957,-3.0859,-3.084,-3.0937,-3.0976,-3.1281,-3.3388,-3.5224,-3.6593,-3.861,-3.9724,-3.9686,-3.9715,-3.969,-3.969,-3.969,-3.9719,-3.3418,-3.3922,-3.4548,-3.517,-3.552,-3.589,0.0,0.0,-3.6135,-3.5767,-3.5746,-3.552,-3.4922,-3.4797,-3.4673,-3.4423,-3.4298,-3.4173,-3.3922,-3.3796,-3.3618,-3.2773,-3.2402,-3.1973,-3.1504,-3.1113,-3.0898,-3.0898,-3.0898,-3.0898,-3.0898,-3.0898,-3.0898,-3.0898,-3.0898,-3.0898,-3.0898,-3.0898,-3.0898,-3.0898,-3.0898,-3.0898,-3.0898,-3.0898,-3.0898,-3.0898,-3.0898,-3.0898,-3.0898,-3.0898,-3.1113,-3.1445,-3.1445,-3.168,-3.1934,-3.1172,-3.0898,-3.0898,-3.0898,-3.0898,-3.0898,-3.0898,-3.0898,-3.0898,-3.0898,-3.0898,-3.0898,-3.0898,-3.0898,-3.0898,-3.0898,-3.0898,-3.0898,-3.0898,-3.0898,-3.0898,-3.0898,-3.0898,-3.0898,-3.0898,-3.0898,-3.0898,-3.0898,-3.0898,-3.0898,-3.0898,-3.0898,-3.0898,-3.0898,-3.0898,-3.0898,-3.0898,-3.0898,-3.0898,-3.0898,-3.0917,-3.0934,-3.0856,-3.0911,-3.1346,-3.2468,-3.3812,-3.5505,-3.7822,-3.9005,-3.9745,-3.975,-3.9726,-3.9726,-3.9726,-3.9726,-3.9724,-3.4173,-3.4797,0.0,0.0,-3.7231,-3.7572,-3.7714,-3.7932,-3.7932,-3.7451,-3.7089,-3.6868,-3.6401,-3.6013,-3.5644,0.0,-3.4797,-3.4548,-3.3922,-3.3922,-3.3737,-3.3184,-3.2793,-3.2266,-3.1582,-3.1133,-3.0898,-3.0898,-3.0898,-3.0898,-3.0898,-3.0898,-3.0898,-3.0898,-3.0898,-3.0898,-3.0898,-3.0898,-3.0898,-3.0898,-3.0898,-3.0898,-3.0898,-3.0898,-3.0898,-3.0898,-3.1152,-3.125,-3.1269,-3.1523,-3.1738,-3.1894,-3.1894,-3.2012,-3.2129,-3.1758,-3.1482,-3.1304,-3.0988,-3.0849,-3.0849,-3.0849,-3.0853,-3.0936,-3.0936,-3.0918,-3.0898,-3.0898,-3.0898,-3.0898,-3.0898,-3.0898,-3.0898,-3.0898,-3.0898,-3.0898,-3.0898,-3.0898,-3.0898,-3.0898,-3.0898,-3.0898,-3.0898,-3.0898,-3.0898,-3.0898,-3.0898,-3.0898,-3.0898,-3.0898,-3.084,-3.0917,-3.0936,-3.0895,-3.095,-3.0926,-3.1301,-3.2355,-3.3054,-3.4087,-3.5371,-3.6582,-3.8086,-3.984,-4.1002,-4.1681,-4.1588,-4.1588,-4.1588,-4.1588,-4.1588,-4.1651,-3.5046,-3.5788,0.0,-3.7856,-3.8693,-3.9144,-3.9262,-3.9474,-3.9592,-3.8885,-3.8551,-3.8216,-3.7616,-3.7132,-3.6624,-3.5911,-3.5665,-3.517,-3.4548,-3.4298,-3.4047,-3.3544,-3.3047,-3.2559,-3.1934,-3.1387,-3.1016,-3.0898,-3.0898,-3.0898,-3.0898,-3.0898,-3.0898,-3.0898,-3.0898,-3.0898,-3.0898,-3.0898,-3.0898,-3.0898,-3.0898,-3.0898,-3.0898,-3.1016,-3.1133,-3.1269,-3.1562,-3.1699,-3.1719,-3.2031,-3.2246,-3.2344,-3.2344,-3.2422,-3.2519,-3.2519,-3.2202,-3.1667,-3.1047,-3.0888,-3.1028,-3.1488,-3.1614,-3.1521,-3.1065,-3.0873,-3.0917,-3.0917,-3.0917,-3.0917,-3.0917,-3.0858,-3.0898,-3.0898,-3.0957,-3.0898,-3.0898,-3.0898,-3.0898,-3.0898,-3.0898,-3.0898,-3.0898,-3.084,-3.0898,-3.0898,-3.0858,-3.0878,-3.0918,-3.0858,-3.0895,-3.0888,-3.1362,-3.1638,-3.1629,-3.1527,-3.2289,-3.3902,-3.4888,-3.621,-3.7798,-3.9197,-4.0427,-4.1719,-4.2544,-4.2958,-4.2965,-4.2965,-4.2965,-4.2965,-4.2965,-4.3022,-3.6135,-3.6868,-3.7616,-3.8574,-3.9521,-4.0223,-4.0571,-4.0803,-4.0918,-4.0223,-3.9873,-3.9403,-3.8118,-3.7878,-3.7637,-3.6989,-3.6889,-3.6646,-3.5911,-3.5294,-3.4673,-3.3922,-3.3296,-3.2793,0.0,-3.1992,-3.1328,-3.0918,-3.0898,-3.0898,-3.0898,-3.0898,-3.0898,-3.0898,-3.0898,-3.0898,-3.0898,-3.0898,-3.0898,-3.0898,-3.0898,-3.0898,-3.0898,-3.1309,-3.1738,-3.2129,-3.2148,-3.2148,-3.2148,-3.2168,-3.2402,-3.2773,-3.2773,-3.3027,-3.3379,-3.3379,-3.2688,-3.1667,-3.1047,-3.0888,-3.1188,-3.2811,-3.3296,-3.2973,-3.1347,-3.0869,-3.085,-3.085,-3.085,-3.085,-3.085,-3.0863,-3.0873,-3.0873,-3.0878,-3.0898,-3.0898,-3.0898,-3.0898,-3.0898,-3.0898,-3.0898,-3.0898,-3.0917,-3.0873,-3.0873,-3.0901,-3.0857,-3.0911,-3.0901,-3.085,-3.0869,-3.2309,-3.3296,-3.3316,-3.3271,-3.388,-3.5271,-3.5352,-3.6517,-3.9123,-4.0481,-4.1765,-4.2896,-4.3037,-4.2975,-4.2936,-4.2936,-4.2936,-4.2936,-4.2936,-4.3008,-3.721,-3.7954,-3.8812,-3.9521,-4.0455,-4.1148,-4.1263,-4.1492,-4.1631,-4.1263,-4.0571,-3.9873,-3.9521,-3.893,-3.8335,-3.7954,-3.7473,-3.7011,-3.638,-3.5911,-3.5294,-3.4673,-3.4282,0.0,0.0,0.0,0.0,-3.1328,-3.1055,-3.0898,-3.0898,-3.0898,-3.0898,-3.0898,-3.0898,-3.0898,-3.0898,-3.1172,-3.1309,-3.1309,-3.1601,-3.1738,-3.1738,-3.1894,-3.2031,-3.2187,-3.2461,-3.2578,-3.2598,-3.2891,-3.3086,-3.3203,-3.3203,-3.3301,-3.3418,-3.3418,-3.3097,-3.2825,-3.2661,-3.2517,-3.2661,-3.3172,-3.3466,-3.3248,-3.274,-3.2544,-3.2509,-3.2509,-3.2509,-3.2509,-3.2509,-3.2552,-3.2273,-3.1156,-3.0882,-3.0926,-3.0926,-3.0926,-3.0926,-3.0926,-3.0926,-3.0926,-3.0926,-3.0901,-3.1296,-3.2413,-3.159,-3.1309,-3.2433,-3.2552,-3.2588,-3.2559,-3.3065,-3.3367,-3.346,-3.344,-3.3933,-3.5376,-3.5456,-3.6596,-3.9145,-4.0528,-4.1813,-4.2945,-4.2949,-4.3,-4.2986,-4.2986,-4.2986,-4.2986,-4.2986,-4.3022,-3.8529,-3.9262,-4.0106,-4.0571,-4.1378,-4.1948,-4.1948,-4.2086,-4.2199,-4.1859,-4.1033,-4.0339,-4.0223,-3.9638,-3.9049,-3.8908,-3.8455,-3.7856,-3.7352,-3.6746,-3.6156,-3.552,-3.517,-3.4675,0.0,0.0,0.0,-3.1758,-3.1504,-3.1348,-3.1348,-3.1348,-3.1348,-3.1348,-3.1348,-3.1348,-3.1348,-3.1621,-3.1758,-3.1758,-3.2031,-3.2246,-3.2383,-3.2383,-3.248,-3.2637,-3.291,-3.3008,-3.3047,-3.3301,-3.3418,-3.3418,-3.3418,-3.3418,-3.3418,-3.3418,-3.3418,-3.3418,-3.3418,-3.3418,-3.3418,-3.3418,-3.3407,-3.3355,-3.3355,-3.3342,-3.343,-3.343,-3.343,-3.343,-3.343,-3.3351,-3.3192,-3.206,-3.1783,-3.1828,-3.1828,-3.1828,-3.1828,-3.1828,-3.1828,-3.1828,-3.1828,-3.1803,-3.2118,-3.3248,-3.2455,-3.2215,-3.3231,-3.3351,-3.3386,-3.3336,-3.3355,-3.3454,-3.3398,-3.3426,-3.3968,-3.5292,-3.5437,-3.6353,-3.8582,-3.9823,-4.1133,-4.2356,-4.2761,-4.3,-4.2986,-4.2986,-4.2986,-4.2986,-4.2986,-4.2986,-4.0106,-4.0687,-4.1263,-4.1606,-4.2061,-4.2513,-4.2513,-4.2513,-4.2425,-4.211,-4.1402,-4.0571,0.0,0.0,-3.9802,-3.9873,-3.9521,-3.9167,-3.893,-3.8096,-3.7253,0.0,0.0,0.0,0.0,0.0,0.0,-3.2266,0.0,-3.2168,-3.2168,-3.2168,-3.2168,-3.2168,-3.2168,-3.2168,-3.2168,-3.2187,-3.2207,-3.2226,-3.2226,-3.2441,-3.2832,-3.2832,-3.3047,-3.3418,-3.3418,-3.3418,-3.3418,-3.3418,-3.3418,-3.3418,-3.3418,-3.3418,-3.3418,-3.3418,-3.3418,-3.3418,-3.3418,-3.3418,-3.3418,-3.3418,-3.3418,-3.3418,-3.3418,-3.3418,-3.3418,-3.3418,-3.3418,-3.3418,-3.3418,-3.3454,-3.3342,-3.3342,-3.3351,-3.3376,-3.3376,-3.3376,-3.3376,-3.3376,-3.3376,-3.3376,-3.3376,-3.3391,-3.344,-3.3379,-3.3418,-3.3446,-3.3381,-3.3368,-3.3418,-3.3418,-3.3418,-3.3418,-3.3418,-3.334,-3.3902,-3.5271,-3.5314,-3.6009,-3.7221,-3.8535,-3.9942,-4.1233,-4.2386,-4.3,-4.2986,-4.2986,-4.2986,-4.2986,-4.2986,-4.2986,-4.1038,-4.1402,-4.1859,-4.1972,-4.2199,-4.2513,-4.2513,-4.2312,-4.2199,-4.211,-4.1402,-4.0826,0.0,0.0,0.0,-4.0711,-4.0223,0.0,-3.9521,-3.893,0.0,-3.7616,0.0,-3.6013,-3.4922,-3.4322,0.0,0.0,-3.2519,-3.2168,-3.2168,-3.2168,-3.2168,-3.2168,-3.2168,-3.2168,-3.2168,-3.248,-3.2793,-3.3105,-3.3105,-3.3164,-3.3262,-3.3262,-3.332,-3.3418,-3.3418,-3.3418,-3.3418,-3.3418,-3.3418,-3.3418,-3.3418,-3.3418,-3.3418,-3.3418,-3.3418,-3.3418,-3.3418,-3.3418,-3.3418,-3.3418,-3.3418,-3.3418,-3.3418,-3.3418,-3.3418,-3.3418,-3.3418,-3.3418,-3.3418,-3.3359,-3.3426,-3.3426,-3.3368,-3.3434,-3.3434,-3.3434,-3.3434,-3.3434,-3.3434,-3.3434,-3.3434,-3.3368,-3.3446,-3.3418,-3.3418,-3.3398,-3.3426,-3.3379,-3.3418,-3.3418,-3.3418,-3.3418,-3.3418,-3.334,-3.3532,-3.3908,-3.484,-3.5498,-3.5933,-3.806,-3.9919,-4.1148,-4.2396,-4.2987,-4.2986,-4.2986,-4.2986,-4.2986,-4.2986,-4.2986,-4.1776,-4.1883,-4.211,-4.2199,-4.2425,-4.2513,-4.2625,-4.2538,-4.2312,-4.2312,-4.1631,-4.1172,-4.1492,-4.1033,0.0,0.0,0.0,0.0,-4.0246,-3.9755,-3.9167,0.0,-3.7616,0.0,-3.5294,-3.4673,-3.4173,0.0,-3.2988,-3.2715,-3.2715,-3.2715,-3.2715,-3.2715,-3.2715,-3.2715,-3.2715,-3.2949,-3.3184,-3.3418,-3.3418,-3.3418,-3.3418,-3.3418,-3.3418,-3.3418,-3.3418,-3.3418,-3.3418,-3.3418,-3.3418,-3.3418,-3.3418,-3.3418,-3.3418,-3.3418,-3.3418,-3.3418,-3.3418,-3.3418,-3.3418,-3.3418,-3.3418,-3.3418,-3.3418,-3.3418,-3.3418,-3.3418,-3.3418,-3.3418,-3.3418,-3.3418,-3.3418,-3.3418,-3.3418,-3.3418,-3.3418,-3.3418,-3.3418,-3.3418,-3.3418,-3.3418,-3.3418,-3.3418,-3.3418,-3.3418,-3.3418,-3.3418,-3.3418,-3.3418,-3.3418,-3.3418,-3.3418,-3.3418,-3.3418,-3.3379,-3.3446,-3.3348,-3.4673,-3.5355,-3.5407,-3.791,-3.9918,-4.1196,-4.2332,-4.3012,-4.2986,-4.2986,-4.2986,-4.2986,-4.2986,-4.2986,-4.2282,-4.211,-4.2224,-4.2425,-4.2513,-4.2513,-4.2874,-4.2737,-4.2513,-4.2513,-4.2061,-4.172,-4.172,-4.1402,-4.1287,-4.1287,0.0,-4.1172,-4.085,-4.0479,-3.9989,-3.9049,-3.8096,-3.7011,-3.5665,-3.4922,-3.4298,-3.3544,-3.3418,-3.3418,-3.3418,-3.3418,-3.3418,-3.3418,-3.3418,-3.3418,-3.3418,-3.3418,-3.3418,-3.3418,-3.3418,-3.3418,-3.3418,-3.3418,-3.3418,-3.3418,-3.3418,-3.3418,-3.3418,-3.3418,-3.3418,-3.3418,-3.3418,-3.3418,-3.3418,-3.3418,-3.3418,-3.3418,-3.3418,-3.3418,-3.3418,-3.3418,-3.3418,-3.3418,-3.3418,-3.3418,-3.3418,-3.3418,-3.3418,-3.3418,-3.3418,-3.3418,-3.3418,-3.3418,-3.3418,-3.3418,-3.3418,-3.3418,-3.3418,-3.3418,-3.3418,-3.3418,-3.3418,-3.3418,-3.3418,-3.3418,-3.3418,-3.3418,-3.3418,-3.3418,-3.3418,-3.3418,-3.3418,-3.3418,-3.3418,-3.3418,-3.3379,-3.3426,-3.4483,-3.517,-3.5349,-3.7954,-3.9941,-4.1196,-4.2421,-4.2987,-4.2986,-4.2986,-4.2986,-4.2986,-4.2986,-4.2986,-4.2381,-4.211,-4.211,-4.2224,-4.2312,-4.2513,-4.2513,-4.2513,0.0,-4.2513,-4.2199,-4.1972,-4.1972,-4.1745,-4.1492,-4.1492,0.0,0.0,0.0,0.0,-4.0711,0.0,0.0,0.0,0.0,0.0,0.0,0.0,0.0,-3.367,-3.3418,-3.3418,-3.3418,-3.3418,-3.3418,-3.3418,-3.3418,-3.3418,-3.3418,-3.3418,-3.3418,-3.3418,-3.3418,-3.3418,-3.3418,-3.3418,-3.3418,0.0,-3.3418,-3.3418,-3.3418,-3.3418,-3.3418,-3.3418,-3.3418,-3.3418,-3.3418,-3.3418,-3.3418,-3.3418,-3.3418,-3.3418,-3.3418,-3.3418,-3.3418,-3.3418,-3.3418,-3.3418,-3.3418,-3.3418,-3.3418,-3.3418,-3.3418,-3.3418,-3.3418,-3.3418,-3.3418,-3.3418,-3.3418,-3.3418,-3.3418,-3.3418,-3.3418,-3.3418,-3.3418,-3.3418,-3.3418,-3.3418,-3.3418,-3.3418,-3.3418,-3.3418,-3.3418,-3.3418,-3.3418,-3.3418,-3.3379,-3.3426,-3.3579,-3.4225,-3.5349,-3.7918,-3.9896,-4.1196,-4.2347,-4.3025,-4.2986,-4.2986,-4.2986,-4.2986,-4.2986,-4.2986,-4.2381,-4.1769,-4.1426,-4.1745,-4.1859,-4.1972,-4.24,0.0,0.0,-4.2737,-4.265,-4.2425,-4.211,-4.1972,0.0,-4.1402,-4.1631,0.0,-4.1516,-4.1516,0.0,-4.0339,0.0,0.0,0.0,0.0,0.0,0.0,0.0,-3.3796,-3.3418,-3.3418,-3.3418,-3.3418,-3.3418,-3.3418,-3.3418,-3.3418,-3.3418,-3.3418,-3.3418,-3.3418,-3.3418,-3.3418,-3.3418,-3.3418,-3.3418,-3.3418,-3.3418,-3.3418,-3.3418,-3.3418,-3.3418,-3.3418,-3.3418,-3.3418,-3.3418,-3.3418,-3.3418,-3.3418,-3.3418,-3.3418,-3.3418,-3.3418,-3.3418,-3.3418,-3.3418,-3.3418,-3.3418,-3.3418,-3.3418,-3.3418,-3.3418,-3.3418,-3.3418,-3.3418,-3.3418,-3.3418,-3.3418,-3.3418,-3.3418,-3.3418,-3.3418,-3.3418,-3.3418,-3.3418,-3.3418,-3.3418,-3.3418,-3.3418,-3.3418,-3.3418,-3.3418,-3.3418,-3.3418,-3.3418,-3.3398,-3.3359,-3.3454,-3.4306,-3.638,-3.8283,-4.0129,-4.205,-4.2683,-4.2987,-4.2975,-4.3011,-4.2986,-4.2986,-4.2986,-4.2986,-4.2266,-4.1402,-4.0942,-4.1263,-4.1402,-4.1402,-4.2061,-4.24,-4.2513,-4.2874,-4.2986,-4.2874,-4.2312,-4.2199,-4.1972,0.0,-4.1859,-4.2086,-4.172,-4.1948,-4.1834,0.0,-4.0083,0.0,0.0,0.0,0.0,0.0,0.0,0.0,-3.3418,-3.3418,-3.3418,-3.3418,-3.3418,-3.3418,-3.3418,-3.3418,-3.3418,-3.3418,-3.3418,-3.3418,-3.3418,-3.3418,-3.3418,-3.3418,-3.3418,-3.3418,-3.3418,-3.3418,-3.3418,-3.3418,-3.3418,-3.3418,-3.3418,-3.3418,-3.3418,-3.3418,-3.3418,-3.3418,-3.3418,-3.3418,-3.3418,-3.3418,-3.3418,-3.3418,-3.3418,-3.3418,-3.3418,-3.3418,-3.3418,-3.3418,-3.3418,-3.3418,-3.3418,-3.3418,-3.3418,-3.3418,-3.3418,-3.3418,-3.3418,-3.3418,-3.3418,-3.3418,-3.3418,-3.3418,-3.3418,-3.3418,-3.3418,-3.3418,-3.3418,-3.3418,-3.3418,-3.3418,-3.3418,-3.3418,-3.3418,-3.3418,-3.3368,-3.4427,-3.6822,-3.8176,-4.0127,-4.2555,-4.2667,-4.2736,-4.2962,-4.3037,-4.2986,-4.2986,-4.2986,-4.2986,-4.1898,-4.1402,-4.1057,-4.0826,-4.1172,-4.1492,-4.1402,-4.1972,-4.2513,-4.2513,-4.2762,-4.2874,-4.2513,-4.24,-4.2425,-4.211,-4.2312,-4.2425,-4.2086,-4.2312,-4.2174,-4.1606,0.0,0.0,-3.8789,-3.7856,0.0,0.0,0.0,0.0,-3.3418,-3.3418,-3.3418,-3.3418,-3.3418,-3.3418,-3.3418,-3.3418,-3.3418,-3.3418,-3.3418,-3.3418,-3.3418,-3.3418,-3.3418,-3.3418,-3.3418,-3.3418,-3.3418,-3.3418,-3.3418,-3.3418,-3.3418,-3.3418,-3.3418,-3.3418,-3.3418,-3.3418,-3.3418,-3.3418,-3.3418,-3.3418,-3.3418,-3.3418,-3.3418,-3.3418,-3.3418,-3.3418,-3.3418,-3.3418,-3.3418,-3.3418,-3.3418,-3.3418,-3.3418,-3.3418,-3.3418,-3.3418,-3.3418,-3.3418,-3.3418,-3.3418,-3.3418,-3.3418,-3.3418,-3.3418,-3.3418,-3.3418,-3.3418,-3.3418,-3.3418,-3.3418,-3.3418,-3.3418,-3.3418,-3.3418,-3.3418,-3.3418,-3.3434,-3.4037,-3.5562,-3.6893,-3.8817,-4.1351,-4.1378,-4.1938,-4.2962,-4.3037,-4.2986,-4.2986,-4.2986,-4.2986,-4.1783,-4.1148,-4.0711,-4.0942,-4.1057,-4.1172,-4.1378,-4.1859,-4.2312,-4.2513,-4.2762,-4.2874,-4.2513,-4.2513,-4.2425,-4.211,-4.2312,-4.24,-4.2312,-4.265,-4.2625,-4.2174,0.0,0.0,0.0,0.0,0.0,0.0,0.0,0.0,-3.3418,-3.3418,-3.3418,-3.3418,-3.3418,-3.3418,-3.3418,-3.3418,-3.3418,-3.3418,-3.3418,-3.3418,-3.3418,-3.3418,-3.3418,-3.3418,-3.3418,-3.3418,-3.3418,-3.3418,-3.3418,-3.3418,-3.3418,-3.3418,-3.3418,-3.3418,-3.3418,-3.3418,-3.3418,-3.3418,-3.3418,-3.3418,-3.3418,-3.3418,-3.3418,-3.3418,-3.3418,-3.3418,-3.3418,-3.3418,-3.3418,-3.3418,-3.3418,-3.3418,-3.3418,-3.3418,-3.3418,-3.3418,-3.3418,-3.3418,-3.3418,-3.3418,-3.3418,-3.3418,-3.3418,-3.3418,-3.3418,-3.3418,-3.3418,-3.3418,-3.3418,-3.3418,-3.3418,-3.3418,-3.3418,-3.3418,-3.3418,-3.3418,-3.3407,-3.4053,-3.5314,-3.5924,-3.7418,-3.9983,-4.0758,-4.1769,-4.3049,-4.3,-4.2986,-4.2986,-4.2986,-4.2986,-4.1437,-4.0803,-4.0479,-4.0942,-4.0966,-4.0942,-4.1263,-4.1745,-4.211,-4.2312,-4.2762,-4.2986,-4.2625,-4.2625,-4.265,-4.2425,-4.2425,-4.2513,-4.2513,-4.265,-4.265,0.0,0.0,0.0,0.0,0.0,0.0,0.0,0.0,0.0,-3.3418,-3.3418,-3.3418,-3.3418,-3.3418,-3.3418,-3.3418,-3.3418,-3.3418,-3.3418,-3.3418,-3.3418,-3.3418,-3.3418,-3.3418,-3.3418,-3.3418,-3.3418,-3.3418,-3.3418,-3.3418,-3.3418,-3.3418,-3.3418,-3.3418,-3.3418,-3.3418,-3.3418,-3.3418,-3.3418,-3.3418,-3.3418,-3.3418,-3.3418,-3.3418,-3.3418,-3.3418,-3.3418,-3.3418,-3.3418,-3.3418,-3.3418,-3.3418,-3.3418,-3.3418,-3.3418,-3.3418,-3.3418,-3.3418,-3.3418,-3.3418,-3.3418,-3.3418,-3.3418,-3.3418,-3.3418,-3.3418,-3.3418,-3.3418,-3.3418,-3.3418,-3.3418,-3.3418,-3.3418,-3.3418,-3.3418,-3.3418,-3.3418,-3.334,-3.3882,-3.4814,-3.4759,-3.6003,-3.8627,-3.9942,-4.1408,-4.2945,-4.2962,-4.3011,-4.2986,-4.2986,-4.2986,-4.0763,-4.0735,-4.0735,-4.0735,-4.0966,-4.1057,-4.0735,-4.1426,-4.211,-4.211,-4.2538,-4.2986,-4.2986,-4.2961,-4.2986,-4.2986,-4.2737,-4.2513,-4.2513,-4.2312,-4.2199,0.0,0.0,0.0,0.0,0.0,0.0,0.0,0.0,0.0,-3.3418,-3.3418,-3.3418,-3.3418,-3.3418,-3.3418,-3.3418,-3.3418,-3.3418,-3.3418,-3.3418,-3.3418,-3.3418,-3.3418,-3.3418,-3.3418,-3.3418,-3.3418,-3.3418,-3.3418,-3.3418,-3.3418,-3.3418,-3.3418,-3.3418,-3.3418,-3.3418,-3.3418,-3.3418,-3.3418,-3.3418,-3.3418,-3.3418,-3.3418,-3.3418,-3.3418,-3.3418,-3.3418,-3.3418,-3.3418,-3.3418,-3.3418,-3.3418,-3.3418,-3.3418,-3.3418,-3.3418,-3.3418,-3.3418,-3.3418,-3.3418,-3.3418,-3.3418,-3.3418,-3.3418,-3.3418,-3.3418,-3.3418,-3.3418,-3.3418,-3.3418,-3.3418,-3.3418,-3.3418,-3.3418,-3.3418,-3.3418,-3.3418,-3.334,-3.3426,-3.3426,-3.3466,-3.4697,-3.7374,-3.8698,-4.0503,-4.2945,-4.2949,-4.3,-4.2986,-4.2986,-4.2986,-4.0668,-4.0479,-4.0455,-4.1148,-4.1378,-4.1516,-4.1631,-4.1972,-4.2425,-4.2425,-4.2762,-4.2986,-4.2986,-4.2986,-4.2986,-4.2986,-4.2762,-4.2513,-4.2513,0.0,0.0,0.0,0.0,0.0,0.0,0.0,0.0,0.0,0.0,0.0,-3.3418,-3.3418,-3.3418,-3.3418,-3.3418,-3.3418,-3.3418,-3.3418,-3.3418,-3.3418,-3.3418,-3.3418,-3.3418,-3.3418,-3.3418,-3.3418,-3.3418,-3.3418,-3.3418,-3.3418,-3.3418,-3.3418,-3.3418,-3.3418,-3.3418,-3.3418,-3.3418,-3.3418,-3.3418,-3.3418,-3.3418,-3.3418,-3.3418,-3.3418,-3.3418,-3.3418,-3.3418,-3.3418,-3.3418,-3.3418,-3.3418,-3.3418,-3.3418,-3.3418,-3.3418,-3.3418,-3.3418,-3.3418,-3.3418,-3.3418,-3.3418,-3.3418,-3.3418,-3.3418,-3.3418,-3.3418,-3.3418,-3.3418,-3.3418,-3.3418,-3.3418,-3.3418,-3.3418,-3.3418,-3.3418,-3.3418,-3.3418,-3.3418,-3.3398,-3.3379,-3.3379,-3.3355,-3.4164,-3.603,-3.8194,-4.0153,-4.1813,-4.2618,-4.2974,-4.3,-4.3011,-4.2986,-4.0574,-4.0595,-4.0687,-4.1378,-4.172,-4.1859,-4.211,-4.2312,-4.2513,-4.2513,-4.2762,-4.2986,-4.2986,-4.2986,-4.2986,-4.2986,-4.265,-4.2312,-4.2312,0.0,0.0,0.0,0.0,0.0,0.0,0.0,0.0,0.0,0.0,0.0,-3.3418,-3.3418,-3.3418,-3.3418,-3.3418,-3.3418,-3.3418,-3.3418,-3.3418,-3.3418,-3.3418,-3.3418,-3.3418,-3.3418,-3.3418,-3.3418,-3.3418,-3.3418,0.0,-3.3418,-3.3418,-3.3418,-3.3418,-3.3418,-3.3418,-3.3418,-3.3418,-3.3418,-3.3418,-3.3418,-3.3418,-3.3418,-3.3418,-3.3418,-3.3418,-3.3418,-3.3418,-3.3418,-3.3418,-3.3418,-3.3418,-3.3418,-3.3418,-3.3418,-3.3418,-3.3418,-3.3418,-3.3418,-3.3418,-3.3418,-3.3418,-3.3418,-3.3418,-3.3418,-3.3418,-3.3418,-3.3418,-3.3418,-3.3418,-3.3418,-3.3418,-3.3418,-3.3418,-3.3418,-3.3418,-3.3418,-3.3418,-3.3418,-3.3418,-3.3418,-3.3418,-3.3368,-3.4057,-3.5437,-3.7461,-3.9254,-4.0434,-4.1686,-4.2598,-4.2937,-4.3037,-4.2986,0.0,-4.0966,-4.1287,-4.1606,-4.1859,-4.211,-4.211,-4.2312,0.0,-4.2513,-4.2737,-4.2986,-4.2986,-4.2986,-4.2986,-4.2986,-4.2425,-4.211,-4.211,0.0,0.0,0.0,0.0,0.0,0.0,0.0,0.0,0.0,0.0,0.0,-3.3418,-3.3418,-3.3418,-3.3418,-3.3418,-3.3418,-3.3418,-3.3418,-3.3418,-3.3418,-3.3418,-3.3418,-3.3418,-3.3418,-3.3418,-3.3418,-3.3418,-3.3437,-3.3476,-3.3476,-3.3476,-3.3369,-3.3369,-3.3369,-3.3369,-3.3369,-3.3369,-3.3369,-3.3369,-3.3369,-3.3369,-3.3369,-3.3369,-3.3369,-3.3369,-3.3457,-3.3418,-3.3418,-3.3418,-3.3418,-3.3418,-3.3418,-3.3418,-3.3418,-3.3418,-3.3418,-3.3418,-3.3418,-3.3418,-3.3418,-3.3418,-3.3418,-3.3418,-3.3418,-3.3418,-3.3418,-3.3418,-3.3418,-3.3418,-3.3418,-3.3418,-3.3418,-3.3418,-3.3418,-3.3418,-3.3418,-3.3418,-3.3418,-3.3418,-3.3418,-3.3418,-3.334,-3.3948,-3.5273,-3.6529,-3.789,-3.9285,-4.0588,-4.1825,-4.2962,-4.295,-4.2986,-4.0246,0.0,-4.1311,-4.1859,-4.2199,-4.2425,0.0,-4.2874,0.0,0.0,0.0,0.0,-4.2625,-4.265,-4.2538,-4.2312,-4.1972,-4.172,-4.172,0.0,0.0,0.0,0.0,0.0,0.0,0.0,0.0,0.0,0.0,-3.3418,-3.3418,-3.3418,-3.3418,-3.3418,-3.3418,-3.3418,-3.3418,-3.3418,-3.3418,-3.3418,-3.3418,-3.3418,-3.3418,-3.3418,-3.3418,-3.3418,-3.3418,-3.3613,-3.3926,-3.3926,-3.3747,-3.3383,-3.3383,-3.3383,-3.3383,-3.3383,-3.3383,-3.3383,-3.3383,-3.3383,-3.3383,-3.3383,-3.3383,-3.3383,-3.3383,-3.3425,-3.3418,-3.3418,-3.3418,-3.3418,-3.3418,-3.3418,-3.3418,-3.3418,-3.3418,-3.3418,-3.3418,-3.3418,-3.3418,-3.3418,-3.3418,-3.3418,-3.3418,-3.3418,-3.3418,-3.3418,-3.3418,-3.3418,-3.3418,-3.3418,-3.3418,-3.3418,-3.3418,-3.3418,-3.3418,-3.3418,-3.3418,-3.3418,-3.3418,-3.3418,-3.3418,-3.334,-3.3513,-3.3848,-3.5148,-3.7002,-3.9277,-4.0644,-4.1874,-4.2985,-4.2987,-4.2975,-3.9755,-4.0339,-4.1057,-4.1402,-4.172,-4.2174,-4.2287,-4.2513,0.0,0.0,0.0,0.0,0.0,0.0,-4.1948,-4.1745,-4.1378,-4.1148,0.0,0.0,0.0,0.0,0.0,0.0,0.0,0.0,0.0,0.0,0.0,-3.3418,-3.3418,-3.3418,-3.3418,-3.3418,-3.3418,-3.3418,-3.3418,-3.3418,-3.3418,-3.3418,-3.3418,-3.3418,-3.3437,-3.3633,-3.3711,-3.373,-3.3926,-3.4141,-3.4355,-3.4355,-3.4173,-3.4008,-3.4008,-3.4197,-3.4537,-3.4537,-3.4537,-3.4537,-3.4537,-3.4537,-3.4537,-3.4537,-3.4537,-3.4537,-3.4537,-3.4564,-3.4379,-3.3669,-3.3354,-3.3444,-3.3417,-3.3378,-3.3339,-3.3457,-3.3418,-3.3418,-3.3418,-3.3418,-3.3418,-3.3418,-3.3418,-3.3418,-3.3418,-3.3418,-3.3418,-3.3418,-3.3418,-3.335,-3.3359,-3.3378,-3.3436,-3.3463,-3.3354,-3.3354,-3.3354,-3.3354,-3.3347,-3.3437,-3.3418,-3.3418,-3.3418,-3.3379,-3.3426,-3.3348,-3.4124,-3.5491,-3.755,-3.9354,-4.0901,-4.2201,-4.2698,-4.2962,-3.919,-3.9638,-4.0199,-4.0432,-4.1009,-4.1353,-4.1492,-4.1834,0.0,0.0,0.0,0.0,0.0,0.0,0.0,0.0,0.0,0.0,0.0,0.0,0.0,0.0,0.0,0.0,0.0,0.0,0.0,0.0,0.0,-3.3418,-3.3418,-3.3418,-3.3418,-3.3418,-3.3418,-3.3457,-3.3516,-3.3457,-3.3457,-3.3516,-3.3516,-3.3555,-3.3633,-3.4004,-3.416,-3.418,-3.4551,-3.4746,-3.4805,-3.4805,-3.4844,-3.4902,-3.4902,-3.5416,-3.597,-3.597,-3.597,-3.597,-3.597,-3.597,-3.597,-3.597,-3.597,-3.597,-3.597,-3.597,-3.5627,-3.42,-3.3764,-3.3762,-3.3753,-3.3637,-3.3392,-3.3378,-3.3447,-3.3447,-3.3447,-3.3447,-3.3447,-3.3447,-3.3447,-3.3447,-3.3447,-3.3447,-3.3447,-3.3447,-3.3447,-3.3417,-3.3431,-3.3637,-3.3791,-3.38,-3.3819,-3.3819,-3.3819,-3.3819,-3.3849,-3.3819,-3.3555,-3.335,-3.3418,-3.3418,-3.3379,-3.3446,-3.3381,-3.4023,-3.5411,-3.7821,-3.9684,-4.0946,-4.2217,-4.2811,-3.8596,-3.8216,-3.8194,-3.9498,-4.0199,-4.0524,-4.0779,-4.1148,-4.1378,0.0,0.0,0.0,0.0,0.0,0.0,0.0,0.0,0.0,0.0,0.0,0.0,0.0,0.0,0.0,0.0,0.0,0.0,0.0,0.0,-3.3796,-3.3796,-3.3544,-3.3418,-3.3418,-3.3418,-3.3594,-3.3965,-3.3613,-3.3613,-3.3965,-3.3965,-3.416,-3.4512,-3.457,-3.4609,-3.4609,-3.4668,-3.4922,-3.5293,-3.5293,-3.5488,-3.582,-3.582,-3.584,-3.5995,-3.5995,-3.5995,-3.5995,-3.5995,-3.5995,-3.5995,-3.5995,-3.5995,-3.5995,-3.5995,-3.5995,-3.5995,-3.5646,-3.5638,-3.558,-3.5651,-3.444,-3.3386,-3.3459,-3.3459,-3.3459,-3.3459,-3.3459,-3.3459,-3.3459,-3.3459,-3.3459,-3.3459,-3.3459,-3.3459,-3.3459,-3.3459,-3.3329,-3.3386,-3.476,-3.5651,-3.558,-3.558,-3.558,-3.558,-3.558,-3.554,-3.5571,-3.418,-3.3456,-3.3437,-3.3418,-3.3418,-3.3398,-3.3407,-3.4013,-3.5355,-3.6932,-3.8403,-3.9638,-4.0946,-4.1964,-3.8693,-3.8096,-3.7736,-3.8313,-3.8551,-3.8648,-3.8766,-3.9498,0.0,0.0,0.0,0.0,0.0,0.0,0.0,0.0,0.0,0.0,0.0,0.0,0.0,0.0,0.0,0.0,0.0,0.0,0.0,0.0,0.0,-3.3922,-3.3922,-3.3779,-3.3769,-3.3769,-3.3984,-3.4348,-3.4674,-3.4477,-3.4477,-3.4414,-3.4414,-3.4512,-3.4707,-3.4961,-3.5078,-3.5078,-3.5312,-3.5527,-3.5723,-3.5723,-3.584,-3.6016,-3.6016,-3.6016,-3.6016,-3.6016,-3.6016,-3.6016,-3.6016,-3.6016,-3.6016,-3.6016,-3.6016,-3.6016,-3.6016,-3.6016,-3.6016,-3.6016,-3.5936,-3.6063,-3.6017,-3.5422,-3.4829,-3.4766,-3.4858,-3.4858,-3.4858,-3.4858,-3.4858,-3.4858,-3.4858,-3.4858,-3.4858,-3.4858,-3.4858,-3.4858,-3.4858,-3.4785,-3.4848,-3.5441,-3.6037,-3.5949,-3.5969,-3.5969,-3.5969,-3.5969,-3.5579,-3.4707,-3.3835,-3.3436,-3.3431,-3.3431,-3.3335,-3.3417,-3.3339,-3.3709,-3.4282,-3.5725,-3.6989,-3.8313,-3.9615,-4.085,-3.893,-3.8335,-3.7758,-3.7374,-3.7253,-3.7231,-3.7352,0.0,0.0,0.0,0.0,0.0,0.0,0.0,0.0,0.0,0.0,0.0,0.0,0.0,0.0,0.0,0.0,0.0,0.0,0.0,0.0,0.0,-3.5064,-3.4624,-3.4725,-3.4684,-3.4735,-3.4735,-3.5052,-3.54,-3.5781,-3.5912,-3.5651,-3.5258,-3.5258,-3.5297,-3.5528,-3.5771,-3.5929,-3.5949,-3.6014,-3.6152,-3.6152,-3.6016,-3.6016,-3.6016,-3.6016,-3.6016,-3.6016,-3.6016,-3.6016,-3.6016,-3.6016,-3.6016,-3.6016,-3.6016,-3.6016,-3.6016,-3.6016,-3.6016,-3.6016,-3.6016,-3.6016,-3.5957,-3.5992,-3.6068,-3.5989,-3.5997,-3.605,-3.605,-3.605,-3.605,-3.605,-3.605,-3.605,-3.605,-3.605,-3.605,-3.605,-3.605,-3.605,-3.6017,-3.6028,-3.6068,-3.6012,-3.5996,-3.6016,-3.6016,-3.6016,-3.6016,-3.5394,-3.4145,-3.3953,-3.4008,-3.4008,-3.4008,-3.4023,-3.4031,-3.3618,-3.3367,-3.3418,-3.4383,-3.5644,-3.6975,-3.8223,-3.9686,-3.893,-3.8096,-3.7374,-3.7011,-3.6911,0.0,-3.7253,0.0,0.0,0.0,0.0,0.0,0.0,0.0,0.0,0.0,0.0,0.0,0.0,0.0,0.0,0.0,0.0,0.0,0.0,0.0,0.0,0.0,-3.7288,-3.6981,-3.7191,-3.685,-3.6742,-3.6742,-3.6763,-3.6991,-3.7405,-3.7666,-3.7425,-3.679,-3.679,-3.7237,-3.7893,-3.7534,-3.7441,-3.7441,-3.6789,-3.6519,-3.6384,-3.6152,-3.6016,-3.6016,-3.6016,-3.6016,-3.6016,-3.6016,-3.6016,-3.6016,-3.6016,-3.6016,-3.6016,-3.6016,-3.6016,-3.6016,-3.6016,-3.6016,-3.6016,-3.6016,-3.6016,-3.6016,-3.5996,-3.5976,-3.5976,-3.5957,-3.5937,-3.5937,-3.5937,-3.5937,-3.5937,-3.5937,-3.5937,-3.5937,-3.5937,-3.5937,-3.5937,-3.5937,-3.5937,-3.5957,-3.5976,-3.5976,-3.5996,-3.6016,-3.6016,-3.6016,-3.6016,-3.6016,-3.5976,-3.5763,-3.5845,-3.577,-3.577,-3.577,-3.577,-3.5861,-3.427,-3.3367,-3.3383,-3.3533,-3.4286,-3.5624,-3.6868,-3.8834,-3.9731,-3.9049,-3.8455,-3.7998,-3.7637,0.0,0.0,0.0,0.0,0.0,0.0,0.0,0.0,0.0,0.0,0.0,0.0,0.0,0.0,0.0,0.0,0.0,0.0,0.0,0.0,0.0,0.0,-3.8282,-3.7655,-3.7361,-3.7424,-3.7311,-3.7328,-3.7328,-3.7467,-3.7957,-3.854,-3.8933,-3.9303,-3.9973,-3.8933,-3.8492,-3.8772,-3.866,-3.8528,-3.8283,-3.8017,-3.7729,-3.7441,-3.7327,-3.6824,-3.6032,-3.5995,-3.6054,-3.6054,-3.5996,-3.6016,-3.6016,-3.6016,-3.6016,-3.6016,-3.6016,-3.6016,-3.6016,-3.6016,-3.6016,-3.6016,-3.6016,-3.6016,-3.6016,-3.6016,-3.6016,-3.6016,-3.6016,-3.6016,-3.6016,-3.6016,-3.6016,-3.6016,-3.6016,-3.6016,-3.6016,-3.6016,-3.6016,-3.6016,-3.6016,-3.6016,-3.6016,-3.6016,-3.6016,-3.6016,-3.6016,-3.6016,-3.6016,-3.6016,-3.6016,-3.6016,-3.6016,-3.6051,-3.6048,-3.6048,-3.6048,-3.5949,-3.6017,-3.5328,-3.498,-3.4989,-3.5032,-3.4754,-3.4142,-3.5499,-3.758,-4.0574,-3.9887,-3.9528,-3.907,-3.8828,0.0,0.0,0.0,0.0,0.0,0.0,0.0,0.0,0.0,0.0,0.0,0.0,0.0,0.0,0.0,0.0,0.0,0.0,0.0,0.0,0.0,-3.9632,-3.9412,-3.8908,-3.8614,-3.8637,-3.868,-3.872,-3.872,-3.8997,-3.9561,-3.9997,-4.0625,-4.1271,-4.2316,-4.1248,-4.071,-4.0452,-4.0344,-4.0084,-3.9844,-3.932,-3.9035,-3.8772,-3.8507,-3.7678,-3.641,-3.6589,-3.6455,-3.5992,-3.5975,-3.6014,-3.6034,-3.5937,-3.5957,-3.5976,-3.6016,-3.6016,-3.6016,-3.6016,-3.6016,-3.6016,-3.6016,-3.6016,-3.6016,-3.6016,-3.6016,-3.6016,-3.6016,-3.6016,-3.6016,-3.6016,-3.6016,-3.6016,-3.6016,-3.6016,-3.6016,-3.6016,-3.6016,-3.6016,-3.6016,-3.6016,-3.6016,-3.6016,-3.6016,-3.6016,-3.6016,-3.6016,-3.6016,-3.6016,-3.6016,-3.6016,-3.6016,-3.6016,-3.6016,-3.6016,-3.6016,-3.6054,-3.5973,-3.5973,-3.5989,-3.6017,-3.593,-3.5349,-3.4245,-3.5631,-3.7438,-4.1532,-4.08,-4.0309,-4.0309,0.0,0.0,0.0,0.0,0.0,0.0,0.0,0.0,0.0,0.0,0.0,0.0,0.0,0.0,0.0,0.0,0.0,0.0,0.0,0.0,0.0,-4.1919,-4.1399,-4.1535,-4.1331,-4.118,-4.1271,-4.1315,-4.1315,-4.1315,-4.1678,-4.1806,-4.1806,-4.2799,-4.3326,-4.3326,-4.3927,-4.3927,-4.3279,-4.265,-4.2293,-4.2293,-4.0862,-4.0192,-4.0214,-3.9561,-3.834,-3.7187,-3.7922,-3.7289,-3.6097,-3.6083,-3.5989,-3.6008,-3.6051,-3.5975,-3.5995,-3.5976,-3.6016,-3.6016,-3.6016,-3.6016,-3.6016,-3.6016,-3.6016,-3.6016,-3.6016,-3.6016,-3.6016,-3.6016,-3.6016,-3.6016,-3.6016,-3.6016,-3.6016,-3.6016,-3.6016,-3.6016,-3.6016,-3.6016,-3.6016,-3.6016,-3.6016,-3.6016,-3.6016,-3.6016,-3.6016,-3.6016,-3.6016,-3.6016,-3.6016,-3.6016,-3.6016,-3.6016,-3.6016,-3.6016,-3.6016,-3.6016,-3.6016,-3.6016,-3.6016,-3.6016,-3.6016,-3.5989,-3.5997,-3.605,-3.755,-3.8941,-4.1626,-4.1167,0.0,0.0,0.0,0.0,0.0,0.0,0.0,0.0,0.0,0.0,0.0,0.0,0.0,0.0,0.0,0.0,0.0,0.0,0.0,0.0,0.0,0.0,-4.2925,-4.2397,-4.1926,-4.1706,-4.1474,-4.1287,-4.1293,-4.1315,-4.1315,-4.1315,-4.1678,-4.1911,-4.2166,-4.3177,-4.3927,-4.4422,-4.5061,-4.4939,-4.4051,-4.3802,-4.3553,-4.3302,-4.2902,-4.265,-4.2374,-4.1633,-4.0857,-3.9993,-3.9845,-3.9475,-3.9018,-3.9078,-3.8353,-3.7524,-3.7586,-3.6837,-3.5933,-3.5973,-3.5936,-3.6034,-3.6034,-3.5957,-3.6016,-3.6016,-3.6016,-3.6016,-3.6016,-3.6016,-3.6016,-3.6016,-3.6016,-3.6016,-3.6016,-3.6016,-3.6016,-3.6016,-3.6016,-3.6016,-3.6016,-3.6016,-3.6016,-3.6016,-3.6016,-3.6016,-3.6016,-3.6016,-3.6016,-3.6016,-3.6016,-3.6016,-3.6016,-3.6016,-3.6016,-3.6016,-3.6016,-3.6016,-3.6016,-3.6016,-3.6016,-3.6016,-3.6016,-3.6016,-3.6016,-3.5936,-3.6475,-3.7595,-3.7978,-3.9517,-4.248,0.0,0.0,0.0,0.0,0.0,0.0,0.0,0.0,0.0,0.0,0.0,0.0,0.0,0.0,0.0,0.0,0.0,0.0,0.0,0.0,0.0,-4.4497,-4.433,-4.4086,-4.3612,-4.3177,-4.3051,-4.2673,-4.242,-4.242,-4.242,-4.242,-4.242,-4.2799,-4.3051,-4.3302,-4.4175,-4.4816,-4.5184,-4.5696,-4.5696,-4.5061,-4.4939,-4.4816,-4.457,-4.4515,-4.4362,-4.3986,-4.3843,-4.3461,-4.2788,-4.1843,-4.128,-4.1128,-4.1088,-4.0541,-3.9708,-3.9221,-3.847,-3.7563,-3.7004,-3.6833,-3.6796,-3.6133,-3.5937,-3.6053,-3.6014,-3.5937,-3.6016,-3.5957,-3.6016,-3.5957,-3.6016,-3.6016,-3.6016,-3.6016,-3.6016,-3.6016,-3.6016,-3.6016,-3.6016,-3.6016,-3.6016,-3.6016,-3.6016,-3.6016,-3.6016,-3.6016,-3.6016,-3.6016,-3.6016,-3.6016,-3.6016,-3.6016,-3.6016,-3.6016,-3.6016,-3.6016,-3.6016,-3.6016,-3.6016,-3.6016,-3.6016,-3.6016,-3.6016,-3.6016,-3.5995,-3.6749,-3.8264,-3.8208,-3.9693,0.0,0.0,0.0,0.0,0.0,0.0,0.0,0.0,0.0,0.0,0.0,0.0,0.0,0.0,0.0,0.0,0.0,0.0,0.0,0.0,0.0,-4.6301,-4.5939,-4.5817,-4.5817,-4.5184,-4.4792,-4.4792,-4.4546,-4.4299,-4.4299,-4.4299,-4.4299,-4.4299,-4.4669,-4.4792,-4.4792,-4.5428,-4.5817,-4.5817,-4.623,-4.6376,-4.6376,-4.6013,-4.5917,-4.5991,-4.5821,-4.5667,-4.544,-4.5948,-4.591,-4.5605,-4.4232,-4.3355,-4.2944,-4.2912,-4.2872,-4.2587,-4.1417,-4.0904,-4.0592,-3.9312,-3.8692,-3.832,-3.6917,-3.6441,-3.6456,-3.6321,-3.6325,-3.6445,-3.6289,-3.625,-3.6112,-3.6035,-3.6035,-3.6016,-3.6016,-3.6016,-3.6016,-3.6016,-3.6016,-3.6016,-3.6016,-3.6016,-3.6016,-3.6016,-3.6016,-3.6016,-3.6016,-3.6016,-3.6016,-3.6016,-3.6016,-3.6016,-3.6016,-3.6016,-3.6016,-3.6016,-3.6016,-3.6016,-3.6016,-3.6016,-3.6016,-3.6016,-3.6016,-3.6016,-3.6016,-3.5955,-3.6824,-3.8182,-3.8387,-3.9844,0.0,0.0,0.0,0.0,0.0,0.0,0.0,0.0,0.0,0.0,0.0,0.0,0.0,0.0,0.0,0.0,0.0,0.0,0.0,0.0,0.0,-4.6301,-4.5939,-4.5817,-4.5817,-4.5184,-4.4792,-4.4792,-4.4546,-4.4299,-4.4299,-4.4299,-4.4299,-4.4299,-4.4669,-4.4792,-4.4792,-4.5428,-4.5817,-4.5817,-4.6631,-4.6954,-4.6954,-4.6831,-4.7057,-4.7457,-4.7433,-4.7359,-4.7234,-4.7257,-4.7431,-4.7731,-4.6597,-4.6944,-4.805,-4.8095,-4.7304,-4.6367,-4.6108,-4.523,-4.4216,-4.3928,-4.313,-4.1852,-4.0286,-3.9804,-3.9633,-3.8401,-3.8958,-3.9495,-3.8122,-3.7746,-3.741,-3.6327,-3.6074,-3.6016,-3.6016,-3.6016,-3.6016,-3.6016,-3.6016,-3.6016,-3.6016,-3.6016,-3.6016,-3.6016,-3.6016,-3.6016,-3.6016,-3.6016,-3.6016,-3.6016,-3.6016,-3.6016,-3.6016,-3.6016,-3.6016,-3.6016,-3.6016,-3.6016,-3.6016,-3.6016,-3.6016,-3.6016,-3.6016,-3.6016,-3.6016,-3.6014,-3.6769,-3.8285,-3.938,-4.0737,0.0,0.0,0.0,0.0,0.0,0.0,0.0,0.0,0.0,0.0,0.0,0.0,0.0,0.0,0.0,0.0,0.0,0.0,0.0,0.0,0.0,-4.6301,-4.618,-4.6059,-4.6059,-4.5671,-4.555,-4.555,-4.5306,-4.5306,-4.5306,-4.5306,-4.5306,-4.5306,-4.5428,-4.555,-4.555,-4.6066,-4.6459,-4.6459,-4.7132,-4.7657,-4.7908,-4.7631,-4.7657,-4.7933,-4.8209,-4.8309,-4.8335,-4.8484,-4.8685,-4.8937,-4.848,-4.8807,-4.9543,-4.9668,-4.9182,-4.8491,-4.8509,-4.7962,-4.734,-4.6669,-4.5896,-4.4956,-4.3489,-4.2535,-4.1934,-4.1913,-4.2457,-4.2798,-4.1516,-4.0912,-4.0171,-3.8636,-3.7193,-3.5993,-3.5993,-3.6621,-3.6956,-3.6191,-3.5976,-3.6054,-3.6055,-3.6016,-3.6016,-3.6016,-3.6016,-3.6016,-3.6016,-3.6016,-3.6016,-3.6016,-3.6016,-3.6016,-3.6016,-3.6016,-3.6016,-3.6016,-3.6016,-3.6016,-3.6016,-3.6016,-3.6016,-3.6016,-3.6016,-3.6016,-3.6016,-3.5995,-3.636,-3.7206,-3.8597,-4.0084,0.0,0.0,0.0,0.0,0.0,0.0,0.0,0.0,0.0,0.0,0.0,0.0,0.0,0.0,0.0,0.0,0.0,0.0,0.0,-4.6301,-4.6301,-4.6301,-4.6301,-4.6301,-4.6301,-4.6301,-4.6301,-4.6301,-4.6301,-4.6301,-4.6301,-4.6301,-4.6351,-4.6451,-4.6451,-4.6502,-4.6577,-4.7054,-4.728,-4.728,-4.7807,-4.836,-4.8887,-4.841,-4.8209,-4.8234,-4.8711,-4.8912,-4.8962,-4.9414,-4.959,-4.959,-4.959,-4.959,-4.9615,-4.9586,-4.9636,-4.9661,-4.9651,-4.9619,-4.9463,-4.8293,-4.7858,-4.7599,-4.6482,-4.5142,-4.4385,-4.5324,-4.5622,-4.5485,-4.48,-4.4255,-4.3395,-4.1841,-3.944,-3.7269,-3.6872,-3.8047,-3.8447,-3.6797,-3.6383,-3.6266,-3.6289,-3.623,-3.623,-3.623,-3.6074,-3.6054,-3.6054,-3.6054,-3.6054,-3.6054,-3.6054,-3.6035,-3.5977,-3.5957,-3.5938,-3.6016,-3.6016,-3.6016,-3.6016,-3.6016,-3.6016,-3.6016,-3.6016,-3.6016,-3.6016,-3.5955,-3.6068,-3.635,-3.793,-3.9239,0.0,0.0,0.0,0.0,0.0,0.0,0.0,0.0,0.0,0.0,0.0,0.0,0.0,0.0,0.0,0.0,0.0,0.0,-4.6301,-4.6301,-4.6301,-4.6301,-4.6301,-4.6301,-4.6301,-4.6301,-4.6301,-4.6301,-4.6301,-4.6301,-4.6301,-4.6301,-4.6527,-4.7004,-4.7029,-4.723,-4.7682,-4.7782,-4.7807,-4.7807,-4.8385,-4.8962,-4.949,-4.9414,-4.9364,-4.9364,-4.9464,-4.949,-4.949,-4.9565,-4.959,-4.959,-4.959,-4.959,-4.959,-4.9615,-4.9615,-4.9615,-4.9536,-4.9636,-4.9581,-4.9401,-4.9339,-4.9323,-4.9107,-4.85,-4.771,-4.6576,-4.6234,-4.6234,-4.6168,-4.6102,-4.5622,-4.4161,-4.347,-4.2688,-4.073,-4.0368,-4.0049,-3.8507,-3.7547,-3.7168,-3.7129,-3.693,-3.677,-3.677,-3.6374,-3.6017,-3.6017,-3.6017,-3.6017,-3.6017,-3.6017,-3.6042,-3.6051,-3.6012,-3.6034,-3.6035,-3.6016,-3.6016,-3.6016,-3.6016,-3.6016,-3.6016,-3.6016,-3.6016,-3.6016,-3.6034,-3.6709,-3.7945,-3.9332,-4.0149,0.0,0.0,0.0,0.0,0.0,0.0,0.0,0.0,0.0,0.0,0.0,0.0,0.0,0.0,0.0,0.0,-4.6301,-4.6301,-4.6301,-4.6301,-4.6301,-4.6301,-4.6301,-4.6301,-4.6301,-4.6301,-4.6301,-4.6301,-4.6301,-4.6451,-4.6753,-4.6778,-4.7004,-4.7556,-4.7556,-4.7682,-4.7908,-4.8234,-4.856,-4.8862,-4.9113,-4.9364,-4.959,-4.959,-4.959,-4.959,-4.959,-4.959,-4.959,-4.959,-4.959,-4.959,-4.959,-4.959,-4.959,-4.959,-4.959,-4.959,-4.959,-4.964,-4.9561,-4.9561,-4.9556,-4.9601,-4.9544,-4.9356,-4.8984,-4.7714,-4.7399,-4.7313,-4.6863,-4.6641,-4.6258,-4.5803,-4.5234,-4.4571,-4.357,-4.2579,-4.1215,-3.9514,-3.8608,-3.8127,-3.7727,-3.7406,-3.7387,-3.7305,-3.7465,-3.7485,-3.7485,-3.7485,-3.7485,-3.7485,-3.7485,-3.7426,-3.7429,-3.6635,-3.6004,-3.6008,-3.5951,-3.5993,-3.5956,-3.5977,-3.5957,-3.6051,-3.5937,-3.6016,-3.6016,-3.5995,-3.6784,-3.8283,-3.9623,-4.0236,0.0,0.0,0.0,0.0,0.0,0.0,0.0,0.0,0.0,0.0,0.0,0.0,0.0,0.0,0.0,-4.6301,-4.6301,-4.6301,-4.6301,-4.6301,-4.6301,-4.6301,-4.6301,-4.6301,-4.6301,-4.6426,-4.6527,-4.6527,-4.6652,-4.6903,-4.7305,-4.733,-4.7581,-4.8109,-4.8134,-4.8184,-4.8335,-4.8761,-4.9188,-4.959,-4.959,-4.959,-4.959,-4.959,-4.959,-4.959,-4.959,-4.959,-4.959,-4.959,-4.959,-4.959,-4.959,-4.959,-4.959,-4.959,-4.959,-4.959,-4.959,-4.959,-4.959,-4.959,-4.9665,-4.9611,-4.9611,-4.9631,-4.9495,-4.8674,-4.8411,-4.8328,-4.7545,-4.7232,-4.6989,-4.7021,-4.6523,-4.5754,-4.5211,-4.3713,-4.2061,-4.061,-3.9956,-3.9429,-3.8628,-3.8467,-3.8326,-3.8122,-3.8343,-3.8544,-3.8584,-3.8584,-3.8584,-3.8584,-3.8564,-3.8666,-3.8567,-3.7383,-3.6726,-3.6649,-3.6712,-3.6894,-3.7272,-3.6858,-3.6777,-3.7099,-3.7049,-3.6737,-3.5995,-3.5953,-3.6737,-3.8187,-4.0018,-4.0991,0.0,0.0,0.0,0.0,0.0,0.0,0.0,0.0,0.0,0.0,0.0,0.0,0.0,-4.6301,-4.6301,-4.6301,-4.6301,-4.6301,-4.6301,-4.6301,-4.6301,-4.6301,-4.6301,-4.6301,-4.6301,-4.6778,-4.7104,-4.7104,-4.7556,-4.7832,-4.7857,-4.7857,-4.8134,-4.8711,-4.8736,-4.8987,-4.9515,-4.954,-4.9565,-4.959,-4.959,-4.959,-4.959,-4.959,-4.959,-4.959,-4.959,-4.959,-4.959,-4.959,-4.959,-4.959,-4.959,-4.959,-4.959,-4.959,-4.959,-4.959,-4.959,-4.959,-4.959,-4.959,-4.959,-4.9615,-4.9615,-4.9615,-4.9486,-4.9202,-4.9072,-4.8967,-4.8576,-4.8445,-4.8445,-4.805,-4.763,-4.6855,-4.5028,-4.388,-4.284,-4.1975,-4.1509,-4.1063,-4.0249,-4.0105,-3.9962,-3.9261,-3.8747,-3.8583,-3.8661,-3.8535,-3.8535,-3.8535,-3.8602,-3.857,-3.8561,-3.8544,-3.8467,-3.8447,-3.8427,-3.9106,-4.0625,-3.906,-3.8738,-3.9983,-4.014,-3.8697,-3.5984,-3.6017,-3.674,-3.8241,-4.0932,-4.2903,0.0,0.0,0.0,0.0,0.0,0.0,0.0,0.0,0.0,0.0,0.0,0.0,-4.733,-4.6778,-4.6301,-4.6301,-4.6301,-4.6426,-4.6803,-4.6828,-4.6954,-4.7305,-4.733,-4.733,-4.733,-4.7506,-4.7631,-4.7631,-4.7807,-4.8083,-4.8435,-4.846,-4.8711,-4.9289,-4.9289,-4.9389,-4.959,-4.959,-4.959,-4.959,-4.959,-4.959,-4.959,-4.959,-4.959,-4.959,-4.959,-4.959,-4.959,-4.959,-4.959,-4.959,-4.959,-4.959,-4.959,-4.959,-4.959,-4.959,-4.959,-4.959,-4.959,-4.959,-4.959,-4.959,-4.959,-4.959,-4.959,-4.9461,-4.9461,-4.9332,-4.8942,-4.8942,-4.8837,-4.8445,-4.8313,-4.7918,-4.6989,-4.5754,-4.464,-4.3952,-4.3653,-4.3214,-4.1997,-4.1573,-4.1167,-4.0453,-4.0126,-3.9798,-3.9161,-3.9141,-3.9017,-3.8641,-3.8543,-3.8997,-3.9939,-4.0085,-4.0085,-4.0105,-4.0041,-4.0298,-4.089,-4.125,-4.1624,-4.2169,-4.304,-4.1949,-3.8821,-3.8786,-3.9082,-3.9606,-4.1474,-4.3075,-4.6954,0.0,0.0,0.0,0.0,-4.738,0.0,0.0,0.0,0.0,-4.7908,-4.7908,-4.7908,-4.733,-4.6853,-4.6853,-4.6853,-4.6979,-4.733,-4.738,-4.7531,-4.7857,-4.7908,-4.7908,-4.7908,-4.8083,-4.8209,-4.8209,-4.836,-4.8636,-4.9038,-4.9063,-4.9213,-4.959,-4.959,-4.959,-4.959,-4.959,-4.959,-4.959,-4.959,-4.959,-4.959,-4.959,-4.959,-4.959,-4.959,-4.959,-4.959,-4.959,-4.959,-4.959,-4.959,-4.959,-4.959,-4.959,-4.959,-4.959,-4.959,-4.959,-4.959,-4.959,-4.959,-4.959,-4.959,-4.959,-4.959,-4.959,-4.959,-4.959,-4.9332,-4.9332,-4.9202,-4.8837,-4.8706,-4.8706,-4.8313,-4.7364,-4.6294,-4.5483,-4.5324,-4.4892,-4.3514,-4.3119,-4.27,-4.1714,-4.1573,-4.1247,-4.0432,-4.0126,-3.986,-3.943,-3.9186,-3.9757,-4.1543,-4.115,-4.1147,-4.1636,-4.1707,-4.1936,-4.2362,-4.3462,-4.421,-4.4589,-4.5568,-4.5248,-4.3485,-4.1772,-4.1131,-4.1663,-4.2512,-4.3671,0.0,0.0,0.0,0.0,0.0,0.0,-4.7933,0.0,-4.7958,-4.7958,-4.7958,-4.7958,-4.7958,-4.7958,-4.7958,-4.7958,-4.7933,-4.7908,-4.7933,-4.7933,-4.7933,-4.7958,-4.7958,-4.7958,-4.7958,-4.846,-4.8786,-4.8786,-4.9289,-4.959,-4.959,-4.959,-4.959,-4.959,-4.959,-4.959,-4.959,-4.959,-4.959,-4.959,-4.959,-4.959,-4.959,-4.959,-4.959,-4.959,-4.959,-4.9615,-4.9615,-4.9615,-4.959,-4.959,-4.9615,-4.9615,-4.9615,-4.964,-4.964,-4.964,-4.964,-4.964,-4.964,-4.964,-4.964,-4.964,-4.9615,-4.9615,-4.9615,-4.959,-4.959,-4.959,-4.959,-4.959,-4.9461,-4.9202,-4.9072,-4.9072,-4.8706,-4.8313,-4.7762,-4.6674,-4.6405,-4.6136,-4.5074,-4.4937,-4.4503,-4.3375,-4.3236,-4.2958,-4.2236,-4.1834,-4.1368,-4.1001,-4.0451,-4.098,-4.3024,-4.1848,-4.1614,-4.3222,-4.3244,-4.3907,-4.5393,-4.5393,-4.6055,-4.7512,-4.7528,-4.8173,-4.9594,-4.4771,-4.3249,-4.4501,-4.4489,-4.5086,-4.8033,0.0,0.0,0.0,0.0,0.0,-4.8535,-4.8837,-4.9138,-4.9138,-4.9138,-4.9138,-4.9138,-4.9138,-4.9138,-4.9138,-4.8435,-4.8058,-4.8485,-4.8535,-4.8686,-4.9088,-4.9138,-4.9138,-4.9138,-4.9264,-4.9364,-4.9364,-4.9515,-4.959,-4.959,-4.959,-4.959,-4.959,-4.959,-4.959,-4.959,-4.959,-4.959,-4.959,-4.959,-4.959,-4.959,-4.959,-4.959,-4.959,-4.959,-4.9816,-5.0167,-4.9766,-4.959,-4.964,-5.0042,-5.0193,-5.0243,-5.067,-5.082,-5.082,-5.082,-5.082,-5.082,-5.082,-5.082,-5.0745,-5.0318,-5.0193,-5.0117,-4.9715,-4.959,-4.959,-4.959,-4.959,-4.959,-4.9461,-4.9461,-4.9461,-4.9332,-4.9202,-4.8942,-4.8158,-4.8002,-4.7714,-4.6965,-4.654,-4.6113,-4.5549,-4.5549,-4.5278,-4.4458,-4.4298,-4.3747,-4.2635,-4.2387,-4.2958,-4.4509,-4.4403,-4.4295,-4.4732,-4.5711,-4.6482,-4.6887,-4.6989,-4.7051,-4.7521,-4.7544,-4.8142,-4.9631,-4.8207,-4.7813,-4.8203,-4.8081,-4.7432,-4.8711,-4.8611,-4.8611,-4.8611,0.0,0.0,-4.9113,-4.9364,-4.959,-4.959,-4.959,-4.959,-4.959,-4.959,-4.959,-4.959,-4.9038,-4.8736,-4.9063,-4.9113,-4.9238,-4.9565,-4.959,-4.959,-4.959,-4.959,-4.959,-4.959,-4.959,-4.959,-4.959,-4.959,-4.959,-4.959,-4.959,-4.959,-4.959,-4.959,-4.959,-4.959,-4.959,-4.959,-4.9615,-4.9841,-4.9941,-4.9941,-5.0193,-5.0494,-5.0745,-5.0444,-5.0293,-5.0318,-5.0645,-5.077,-5.082,-5.1147,-5.1272,-5.1272,-5.1272,-5.1272,-5.1272,-5.1272,-5.1272,-5.1222,-5.087,-5.077,-5.072,-5.0393,-5.0293,-5.0243,-4.9992,-4.9941,-4.9891,-4.964,-4.959,-4.959,-4.959,-4.959,-4.9461,-4.8967,-4.8812,-4.8526,-4.8026,-4.7762,-4.7497,-4.7051,-4.7051,-4.6917,-4.6248,-4.6113,-4.5708,-4.4755,-4.4527,-4.4914,-4.5828,-4.5621,-4.5526,-4.5768,-4.7423,-4.8331,-4.8318,-4.8436,-4.8362,-4.8362,-4.8379,-4.8769,-4.9586,-4.9561,-4.9565,-4.962,-4.9571,-4.8863,0.0,-4.959,-4.959,0.0,-4.959,0.0,-4.959,-4.959,-4.959,-4.959,-4.959,-4.959,-4.959,-4.959,-4.959,-4.959,-4.959,-4.959,-4.959,-4.959,-4.959,-4.959,-4.959,-4.959,-4.959,-4.959,-4.959,-4.959,-4.959,-4.959,-4.959,-4.959,-4.959,-4.959,-4.959,-4.959,-4.959,-4.959,-4.959,-4.959,-4.959,-4.9615,-4.9715,-5.0193,-5.0444,-5.0544,-5.1046,-5.1322,-5.1373,-5.1373,-5.1348,-5.1297,-5.1348,-5.1373,-5.1373,-5.1448,-5.1473,-5.1473,-5.1473,-5.1473,-5.1473,-5.1473,-5.1473,-5.1448,-5.1398,-5.1373,-5.1373,-5.1297,-5.1272,-5.1172,-5.0645,-5.0519,-5.0393,-4.9891,-4.9791,-4.9766,-4.969,-4.969,-4.9536,-4.9202,-4.9202,-4.9072,-4.8706,-4.8706,-4.8576,-4.8289,-4.8158,-4.8026,-4.7762,-4.734,-4.7074,-4.7074,-4.6784,-4.665,-4.6941,-4.6076,-4.5865,-4.655,-4.8436,-4.9594,-4.9601,-4.9601,-4.9601,-4.9601,-4.9581,-4.9586,-4.959,-4.959,-4.959,-4.959,-4.9544,-4.9546,0.0,0.0,0.0,0.0,0.0,0.0,-4.959,-4.959,-4.959,-4.959,-4.959,-4.959,-4.959,-4.959,-4.959,-4.959,-4.959,-4.959,-4.959,-4.959,-4.959,-4.959,-4.959,-4.959,-4.959,-4.959,-4.959,-4.959,-4.959,-4.959,-4.959,-4.959,-4.959,-4.959,-4.959,-4.959,-4.959,-4.959,-4.959,-4.959,-4.959,-4.9816,-5.0268,-5.0368,-5.067,-5.1122,-5.1222,-5.1523,-5.195,-5.195,-5.1674,-5.1322,-5.1774,-5.195,-5.2,-5.2452,-5.2603,-5.2603,-5.2603,-5.2603,-5.2603,-5.2603,-5.2603,-5.2528,-5.2076,-5.195,-5.185,-5.1398,-5.1272,-5.1247,-5.1147,-5.1096,-5.1096,-5.0971,-5.0946,-5.082,-5.0368,-5.0243,-5.0117,-4.9561,-4.9461,-4.9461,-4.9461,-4.9332,-4.9332,-4.9332,-4.9332,-4.9202,-4.8812,-4.8682,-4.8396,-4.7894,-4.7762,-4.7738,-4.7762,-4.7329,-4.734,-4.8126,-4.9017,-4.9556,-4.9561,-4.9561,-4.9561,-4.9561,-4.964,-4.9615,-4.959,-4.959,-4.959,-4.959,-4.9668,-4.9618,0.0,0.0,0.0,-4.959,0.0,0.0,0.0,-4.959,-4.959,-4.959,-4.959,-4.959,-4.959,-4.959,-4.959,-4.959,-4.959,-4.959,-4.959,-4.959,-4.959,-4.959,-4.959,-4.959,-4.959,-4.959,-4.959,-4.959,-4.959,-4.959,-4.959,-4.959,-4.959,-4.959,-4.959,-4.959,-4.959,-4.959,-4.9741,-5.0017,-5.0017,-5.0293,-5.087,-5.1122,-5.1423,-5.1699,-5.1975,-5.2251,-5.2528,-5.2528,-5.2352,-5.2126,-5.2402,-5.2528,-5.2553,-5.2829,-5.2929,-5.2929,-5.2929,-5.2929,-5.2929,-5.2929,-5.2929,-5.2879,-5.2603,-5.2528,-5.2452,-5.2176,-5.2101,-5.2051,-5.1774,-5.1699,-5.1624,-5.1348,-5.1272,-5.1197,-5.0921,-5.0845,-5.077,-5.0494,-5.0444,-5.0268,-4.969,-4.959,-4.959,-4.959,-4.959,-4.959,-4.9332,-4.9332,-4.9202,-4.8812,-4.8812,-4.8812,-4.8812,-4.8608,-4.8713,-4.9102,-4.9357,-4.9665,-4.959,-4.959,-4.959,-4.959,-4.959,-4.959,-4.959,-4.959,-4.959,-4.959,-4.959,-4.959,0.0,0.0,0.0,0.0,0.0,-4.959,0.0,0.0,0.0,-4.959,-4.959,-4.959,-4.959,-4.959,-4.959,-4.959,-4.959,-4.959,-4.959,-4.959,-4.959,-4.959,-4.959,-4.959,-4.959,-4.959,-4.959,-4.959,-4.959,-4.959,-4.959,-4.959,-4.959,-4.959,-4.959,-4.964,-4.9741,-4.9741,-5.0042,-5.0569,-5.0569,-5.087,-5.1448,-5.19,-5.2176,-5.2277,-5.2729,-5.2929,-5.2929,-5.2929,-5.2929,-5.2929,-5.2929,-5.2929,-5.2929,-5.2929,-5.2929,-5.2929,-5.2929,-5.2929,-5.2929,-5.2929,-5.2929,-5.2929,-5.2929,-5.2929,-5.2929,-5.2929,-5.2929,-5.2829,-5.2377,-5.2251,-5.2151,-5.1699,-5.1599,-5.1574,-5.1473,-5.1448,-5.1398,-5.1297,-5.1272,-5.0996,-5.0067,-4.9816,-4.9741,-4.9741,-4.9665,-4.959,-4.959,-4.959,-4.959,-4.959,-4.959,-4.959,-4.959,-4.959,-4.959,-4.959,-4.959,-4.959,-4.959,-4.959,-4.959,-4.959,-4.959,-4.959,-4.959,-4.959,-4.959,-4.959,-4.959,-4.959,0.0,0.0,0.0,0.0,-4.959,0.0,0.0,0.0,-4.959,-4.959,0.0,-4.959,-4.959,0.0,0.0,-4.959,-4.959,-4.959,-4.959,-4.959,-4.959,-4.959,-4.959,-4.959,-4.959,-4.959,-4.959,-4.959,-4.959,-4.959,-4.959,-4.959,-4.959,-4.959,-4.959,-4.9841,-5.0318,-5.0318,-5.0619,-5.1197,-5.1197,-5.1473,-5.2026,-5.2076,-5.2377,-5.2829,-5.2904,-5.2929,-5.2929,-5.2929,-5.2929,-5.2929,-5.2929,-5.2929,-5.2929,-5.2929,-5.2929,-5.2929,-5.2929,-5.2929,-5.2929,-5.2929,-5.2929,-5.2929,-5.2929,-5.2929,-5.2929,-5.2929,-5.2929,-5.2904,-5.2854,-5.2829,-5.2829,-5.2754,-5.2729,-5.2603,-5.2126,-5.2026,-5.1875,-5.1373,-5.1272,-5.1247,-5.1122,-5.067,-5.0318,-5.0318,-4.9916,-4.959,-4.959,-4.959,-4.959,-4.959,-4.959,-4.959,-4.959,-4.959,-4.959,-4.959,-4.959,-4.959,-4.959,-4.959,-4.959,-4.959,-4.959,-4.959,-4.959,-4.959,-4.959,-4.959,-4.959,-4.959,0.0,0.0,0.0,0.0,0.0,0.0,-5.0067,0.0,-4.959,0.0,0.0,0.0,0.0,0.0,0.0,0.0,-4.959,-4.959,-4.959,-4.959,-4.959,-4.959,-4.959,-4.959,-4.959,-4.959,-4.959,-4.959,-4.959,-4.959,-4.959,-4.959,-4.959,-4.959,-4.9916,-5.0193,-5.0419,-5.0745,-5.1197,-5.1749,-5.1749,-5.2051,-5.2578,-5.2578,-5.2703,-5.2929,-5.2929,-5.2929,-5.2929,-5.2929,-5.2929,-5.2929,-5.2929,-5.2929,-5.2929,-5.2929,-5.2929,-5.2929,-5.2929,-5.2929,-5.2929,-5.2929,-5.2929,-5.2929,-5.2929,-5.2929,-5.2929,-5.2929,-5.2929,-5.2929,-5.2929,-5.2929,-5.2929,-5.2929,-5.2929,-5.2854,-5.2628,-5.2578,-5.2528,-5.2277,-5.2226,-5.2226,-5.2226,-5.1498,-5.0921,-5.0921,-5.072,-5.0569,-5.0569,-5.0268,-5.0067,-5.0067,-4.9791,-4.959,-4.959,-4.959,-4.959,-4.959,-4.959,-4.959,-4.959,-4.959,-4.959,-4.959,-4.959,-4.959,-4.959,-4.959,-4.959,-4.959,-4.959,-4.959,-5.1649,0.0,0.0,0.0,0.0,0.0,0.0,0.0,0.0,0.0,0.0,0.0,0.0,0.0,-4.959,-4.959,0.0,-4.959,-4.959,-4.959,-4.959,-4.959,-4.959,-4.959,-4.959,-4.959,-4.959,-4.959,-4.959,-4.959,-4.959,-4.9741,-4.9816,-4.9816,-5.0368,-5.072,-5.087,-5.1297,-5.1774,-5.2327,-5.2327,-5.2528,-5.2929,-5.2929,-5.2929,-5.2929,-5.2929,-5.2929,-5.2929,-5.2929,-5.2929,-5.2929,-5.2929,-5.2929,-5.2929,-5.2929,-5.2929,-5.2929,-5.2929,-5.2929,-5.2929,-5.2929,-5.2929,-5.2929,-5.2929,-5.2929,-5.2929,-5.2929,-5.2929,-5.2929,-5.2929,-5.2929,-5.2929,-5.2929,-5.2929,-5.2929,-5.2929,-5.2929,-5.2929,-5.2929,-5.2929,-5.2929,-5.2929,-5.2126,-5.1498,-5.1498,-5.1373,-5.1272,-5.1272,-5.0921,-5.0645,-5.0645,-5.0293,-5.0067,-5.0067,-4.9916,-4.9766,-4.9615,-4.959,-4.959,-4.959,-4.959,-4.959,-4.959,-4.959,-4.959,-4.959,-4.959,-4.959,-4.959,-4.959,-4.959,0.0,0.0,0.0,-5.1423,0.0,0.0,0.0,0.0,-5.1071,0.0,0.0,0.0,0.0,-4.959,-4.959,-4.959,-4.959,0.0,0.0,-4.959,-4.959,-4.959,-4.959,-4.959,-4.959,-4.959,-4.959,-4.959,-4.959,-4.959,-4.959,-5.0092,-5.0393,-5.0393,-5.0946,-5.1498,-5.2051,-5.2076,-5.2352,-5.2904,-5.2904,-5.2904,-5.2929,-5.2929,-5.2929,-5.2929,-5.2929,-5.2929,-5.2929,-5.2929,-5.2929,-5.2929,-5.2929,-5.2929,-5.2929,-5.2929,-5.2929,-5.2929,-5.2929,-5.2929,-5.2929,-5.2929,-5.2929,-5.2929,-5.2929,-5.2929,-5.2929,-5.2929,-5.2929,-5.2929,-5.2929,-5.2929,-5.2929,-5.2929,-5.2929,-5.2929,-5.2929,-5.2929,-5.2929,-5.2929,-5.2929,-5.2929,-5.2929,-5.2452,-5.2076,-5.2076,-5.1624,-5.1272,-5.1272,-5.1272,-5.1247,-5.1247,-5.1247,-5.1222,-5.1222,-5.072,-5.0167,-4.9615,-4.959,-4.959,-4.959,-4.959,-4.959,-4.959,-4.959,-4.959,-4.959,-4.959,-4.959,-4.959,-4.959,-4.959,-5.2703,-5.2653,-5.2603,-5.2427,0.0,0.0,0.0,0.0,0.0,0.0,0.0,0.0,0.0,-5.072,-5.0594,-5.0193,-5.0142,-5.0017,0.0,-4.959,-4.959,-4.959,-4.959,-4.959,-4.959,-4.959,-4.959,-4.959,-4.959,-4.9741,-5.0117,-5.0318,-5.0594,-5.0971,-5.1523,-5.1925,-5.2101,-5.2477,-5.2754,-5.2929,-5.2929,-5.2929,-5.2929,-5.2929,-5.2929,-5.2929,-5.2929,-5.2929,-5.2929,-5.2929,-5.2929,-5.2929,-5.2929,-5.2929,-5.2929,-5.2929,-5.2929,-5.2929,-5.2929,-5.2929,-5.2929,-5.2929,-5.2929,-5.2929,-5.2929,-5.2929,-5.2929,-5.2929,-5.2929,-5.2929,-5.2929,-5.2929,-5.2929,-5.2929,-5.2929,-5.2929,-5.2929,-5.2929,-5.2929,-5.2929,-5.2929,-5.2929,-5.2929,-5.2779,-5.2653,-5.2653,-5.2503,-5.2377,-5.2377,-5.2051,-5.1825,-5.1825,-5.1498,-5.1272,-5.1272,-5.1096,-5.0563,-4.9706,-4.9656,-4.9556,-4.9615,-4.959,-4.959,-4.959,-4.959,-4.959,-4.959,-4.959,-4.959,-4.959,-4.959,-4.959,-5.2929,-5.2929,-5.2929,-5.2929,-5.2653,0.0,-5.2402,0.0,-5.18,0.0,0.0,0.0,0.0,-5.1272,-5.1147,-5.0795,-5.072,-5.0519,0.0,-4.9891,-4.9816,-4.9615,-4.959,-4.959,-4.959,-4.959,-4.9665,-4.9866,-4.9891,-5.0142,-5.0695,-5.0921,-5.1197,-5.1548,-5.2101,-5.2402,-5.2402,-5.2754,-5.2929,-5.2929,-5.2929,-5.2929,-5.2929,-5.2929,-5.2929,-5.2929,-5.2929,-5.2929,-5.2929,-5.2929,-5.2929,-5.2929,-5.2929,-5.2929,-5.3067,-5.2929,-5.2929,-5.2929,-5.3067,-5.3067,-5.3067,-5.3179,-5.3204,-5.3204,-5.3204,-5.3204,-5.3204,-5.3204,-5.3204,-5.3067,-5.3067,-5.3067,-5.2929,-5.2929,-5.2929,-5.2929,-5.2929,-5.2929,-5.2929,-5.2929,-5.2929,-5.2929,-5.2929,-5.2929,-5.2929,-5.2929,-5.2929,-5.2929,-5.2929,-5.2628,-5.2402,-5.2402,-5.2076,-5.1774,-5.1599,-5.1574,-5.1139,-5.0306,-4.9843,-4.9644,-4.9576,-4.9581,-4.9636,-4.9636,-4.9665,-4.959,-4.959,-4.959,-4.959,-4.959,-4.959,-4.959]}]]